GFSGL_850_thetae_000.txt.gz
Theta_e
350 342 338 348 351 348 353 342 336 331 322 327 327 323 329 321 331 334 333 331 332 331 330 332 334 335 332 329 329 329 329 328 328 327 327 327 329 329 329 329 328 328 327
344 338 341 351 352 353 349 337 325 334 319 316 321 322 329 325 331 335 334 331 332 331 332 334 334 333 333 333 331 332 330 329 329 328 327 328 327 327 328 329 328 326 326
354 355 349 346 350 354 339 326 324 329 317 318 330 325 325 331 332 335 335 334 331 331 333 334 334 334 333 332 331 329 329 328 328 328 328 328 327 326 326 325 327 325 326
355 357 357 355 354 351 340 329 325 328 318 323 329 329 328 329 335 335 335 335 330 331 333 334 334 335 333 333 331 332 332 330 328 328 327 327 326 325 325 325 325 324 323
357 357 358 358 355 349 338 337 335 329 323 324 326 326 328 331 325 331 334 333 330 328 334 335 335 335 332 328 329 329 327 328 327 327 326 326 324 325 326 325 325 325 323
357 358 358 358 355 351 347 342 343 338 333 329 325 324 327 326 323 329 327 333 334 336 336 336 330 327 329 328 328 327 327 326 324 325 326 325 326 327 326 325 325 324 324
357 357 358 355 351 349 349 347 345 345 341 334 325 328 329 325 328 328 324 327 334 335 334 327 327 329 331 330 330 328 327 326 324 324 326 327 326 326 325 324 324 324 322
352 356 355 349 347 347 347 347 346 344 340 331 330 332 331 332 328 333 332 329 329 332 330 329 328 329 328 328 329 327 327 326 328 327 325 323 323 322 319 319 320 320 319
351 351 345 344 346 347 347 347 345 343 338 339 336 336 336 336 332 331 330 332 333 329 327 326 327 325 327 327 326 325 327 326 325 324 321 317 316 315 314 316 320 321 320
335 337 339 344 347 349 348 346 344 342 340 339 338 336 335 333 328 327 329 331 328 326 326 326 326 325 327 326 326 326 326 325 324 320 319 320 318 319 318 319 318 318 319
334 336 340 346 350 348 346 343 343 339 338 338 337 337 335 330 330 331 331 329 328 326 325 327 327 324 327 326 324 322 323 319 315 315 319 317 315 317 317 317 317 315 314
340 340 345 350 348 346 344 344 343 339 338 337 336 337 336 334 332 332 327 328 327 326 327 329 328 325 324 323 321 321 319 316 316 319 318 314 315 315 314 313 312 311 310
337 344 349 348 347 345 343 343 340 342 339 338 337 338 336 337 334 329 328 327 327 327 329 324 324 323 321 320 320 319 317 317 318 317 314 313 313 313 312 311 310 307 310
341 344 345 347 346 345 343 342 340 340 339 338 339 337 335 334 332 325 326 328 326 323 322 322 322 320 319 318 318 317 316 316 315 312 312 312 311 311 310 308 306 307 315
344 346 348 347 344 343 342 341 340 338 337 336 334 332 330 332 332 331 328 327 325 324 323 321 321 320 320 319 318 316 315 313 312 312 311 310 309 307 306 305 305 311 316
350 347 346 344 343 341 339 338 336 335 329 327 327 328 328 326 326 326 325 324 322 322 320 320 319 319 318 318 316 314 312 311 310 309 308 308 306 305 304 304 306 311 315
344 341 341 340 338 338 337 335 332 328 327 328 326 326 325 324 326 325 323 321 319 318 317 318 317 317 316 314 312 311 310 309 307 306 306 305 304 304 304 304 306 309 313
342 337 338 337 336 335 334 333 333 333 330 326 325 326 325 326 324 321 319 318 317 316 317 316 316 314 312 311 310 309 308 306 305 304 304 303 303 303 303 304 305 308 311
334 334 334 333 332 331 331 331 331 331 329 328 326 325 325 322 320 318 318 317 319 317 315 313 312 311 310 309 309 307 305 303 301 302 303 303 302 302 303 303 304 306 311
331 330 331 332 332 332 332 331 330 330 329 329 325 323 322 321 319 318 317 317 316 315 313 312 311 310 309 308 306 304 301 301 302 302 302 302 302 302 302 303 304 305 310
331 330 331 331 330 328 327 326 326 326 326 325 325 324 322 321 321 320 319 317 315 314 313 312 311 309 308 305 302 300 300 301 301 301 301 301 301 301 302 302 303 304 306
331 329 327 324 324 324 327 327 327 326 325 324 324 324 321 319 320 320 319 316 315 313 312 311 309 306 304 301 299 298 300 300 300 300 300 300 300 301 301 302 302 303 304
328 326 327 328 328 327 327 326 326 325 325 325 324 323 320 320 320 319 318 316 313 312 310 308 306 304 301 298 296 298 299 300 299 299 299 300 300 301 301 301 301 302 303
328 328 327 326 325 324 324 324 324 324 324 323 323 322 321 319 319 318 316 314 313 311 310 307 305 303 300 296 296 296 297 297 296 298 297 299 300 301 301 301 301 302 302
325 325 324 324 323 322 323 322 322 321 321 320 319 319 318 318 318 316 315 314 312 311 309 306 304 302 298 295 295 295 295 294 294 295 295 299 300 300 301 300 300 301 302
320 319 319 319 318 318 318 318 318 317 316 316 316 316 315 315 316 316 315 313 312 311 309 306 304 302 299 296 295 295 295 295 296 296 295 298 299 300 299 300 300 300 301

GFSGL_850_thetae_003.txt.gz
Theta_e
357 357 356 358 358 356 355 352 352 349 349 335 317 318 322 335 336 332 335 335 336 336 335 330 332 334 333 331 331 331 330 330 330 328 330 329 329 329 329 329 331 329 329
358 356 356 355 356 357 354 354 347 333 326 320 315 317 329 326 331 325 336 335 334 334 333 333 334 334 335 335 333 332 333 331 331 331 329 330 330 329 329 327 328 327 327
357 358 358 356 354 355 354 350 337 331 325 321 318 315 319 320 323 321 324 336 335 334 334 334 335 335 334 334 333 333 331 331 332 329 329 328 328 327 327 327 327 326 325
355 356 357 357 356 355 352 344 337 324 321 321 321 316 318 324 322 331 327 335 337 336 334 334 335 335 334 333 334 335 332 332 332 330 329 329 328 326 327 326 326 326 326
354 356 356 358 357 355 354 346 340 328 319 319 320 316 320 332 335 338 336 335 337 337 334 335 335 334 336 334 334 330 331 331 331 330 329 327 328 327 327 327 327 326 326
356 357 359 360 360 357 354 352 348 339 328 326 322 317 318 330 333 330 331 331 335 335 334 334 335 334 333 332 327 328 331 329 329 328 328 327 326 327 327 326 326 325 323
356 359 360 361 360 360 357 355 352 344 337 333 324 320 324 333 333 326 321 327 333 334 333 333 333 335 330 327 330 329 327 325 328 328 327 327 327 325 323 323 324 323 322
358 360 360 360 359 359 357 353 350 348 343 338 332 327 334 337 334 328 327 326 327 329 334 336 336 333 328 327 327 327 324 326 328 328 328 326 326 324 318 317 318 317 318
361 359 361 360 357 353 350 347 347 347 347 343 337 335 337 338 334 332 332 327 331 332 334 335 333 327 326 326 325 324 326 327 330 328 326 325 323 317 317 317 319 318 318
359 359 360 351 345 343 343 345 347 348 349 344 341 338 340 340 339 336 334 330 331 332 333 334 326 326 325 325 323 325 327 329 327 326 326 323 319 320 317 318 318 320 319
355 356 356 346 343 344 346 348 347 345 345 343 341 340 340 340 338 336 330 326 331 332 334 332 327 326 327 324 324 326 325 323 322 321 321 321 321 319 317 317 317 316 315
352 356 348 345 345 348 349 349 346 344 342 341 340 342 342 339 337 331 328 329 330 332 331 331 331 329 326 325 323 322 321 320 320 319 320 321 320 316 315 315 314 312 310
356 351 346 352 351 350 347 345 343 341 344 343 343 341 341 339 336 334 331 330 331 328 328 327 329 328 325 323 321 319 319 318 318 320 320 318 314 314 313 312 311 308 305
354 346 348 353 351 349 345 343 342 342 341 343 342 341 339 338 338 335 333 330 327 327 327 327 327 324 322 320 318 318 317 318 319 318 314 314 313 312 311 309 307 306 306
350 353 351 350 348 348 345 343 342 343 341 342 340 337 337 336 336 334 328 327 329 328 328 326 324 324 323 322 321 319 318 318 316 315 313 312 310 309 308 306 305 306 308
354 352 350 346 347 344 343 342 342 339 338 337 335 333 334 332 332 329 329 326 328 327 324 323 322 322 321 320 320 319 318 315 314 313 310 309 308 307 306 305 306 307 308
348 346 346 346 344 343 341 340 338 337 335 329 327 327 327 327 327 326 326 325 323 321 318 320 321 321 320 319 317 315 313 313 311 309 308 307 306 305 305 305 306 307 309
347 345 343 344 342 341 340 338 335 334 332 329 328 327 327 326 324 325 325 322 319 318 318 319 320 318 317 315 313 313 312 310 308 306 305 305 305 305 304 305 305 306 307
343 341 341 339 338 337 335 334 333 333 332 331 328 324 326 325 325 323 320 319 321 322 320 319 317 316 315 313 312 311 309 307 304 302 304 305 304 304 304 304 305 305 306
339 338 337 336 335 334 333 332 331 330 329 330 329 325 325 325 322 321 320 319 321 320 319 318 316 315 314 313 311 309 306 303 303 304 304 304 303 303 303 304 304 305 306
334 334 334 335 333 332 331 330 329 327 327 326 327 326 325 322 323 323 322 321 320 319 318 317 316 315 313 312 309 306 303 302 303 303 303 303 303 303 303 303 304 304 305
333 333 332 332 330 328 328 328 327 326 326 325 325 325 325 324 323 323 322 321 320 319 318 316 315 314 311 308 305 303 301 302 302 303 302 302 302 303 303 303 304 304 304
332 331 330 328 328 328 328 328 326 326 325 325 326 326 324 323 322 322 321 320 318 317 316 314 313 311 308 305 301 300 300 302 302 301 301 302 302 303 303 304 303 303 304
330 329 329 329 329 328 326 325 325 325 324 324 324 323 323 322 320 320 319 318 317 316 314 313 311 309 307 303 300 299 299 300 300 299 301 301 302 303 303 303 303 303 303
330 328 327 326 326 325 324 323 323 323 322 322 321 322 321 319 319 318 317 316 315 315 313 312 309 307 306 302 299 298 298 297 295 295 295 299 302 302 303 302 302 302 303
326 326 325 324 323 322 322 321 321 321 321 320 319 318 319 318 317 316 316 314 314 313 312 311 309 307 305 302 299 297 296 295 296 296 297 297 302 302 302 301 302 302 302

GFSGL_850_thetae_006.txt.gz
Theta_e
361 358 354 352 342 348 351 353 351 350 352 348 344 341 334 333 335 331 329 332 335 335 331 330 331 332 331 331 332 333 331 330 329 331 327 327 327 328 328 329 328 327 327
361 359 354 346 347 344 349 351 351 352 351 349 346 339 336 337 329 327 321 330 335 332 334 333 328 328 329 333 331 329 330 331 333 330 330 330 328 328 328 329 328 328 328
362 358 357 353 349 344 335 345 351 350 347 341 345 339 330 334 327 325 321 321 326 327 330 333 331 333 333 333 335 334 333 333 331 332 331 330 328 327 324 325 326 327 327
361 359 359 357 349 342 337 332 342 346 346 342 340 337 330 325 324 325 325 323 322 322 333 334 333 334 334 333 331 329 329 331 332 330 332 331 330 329 327 328 328 328 327
357 360 360 358 353 352 349 336 344 349 350 348 348 347 339 324 323 329 331 329 328 329 336 334 333 334 335 329 328 330 331 331 328 329 330 327 325 328 328 327 326 325 323
352 357 358 359 360 359 355 353 356 356 357 355 350 346 340 330 320 333 333 337 336 333 330 331 333 335 334 330 330 332 329 327 330 328 327 324 323 328 325 325 326 326 324
350 355 354 357 359 359 357 357 357 357 357 356 352 344 338 333 330 337 338 336 334 333 330 332 333 331 331 330 330 327 327 327 327 326 323 324 326 324 325 325 322 319 317
350 354 354 355 359 358 358 358 357 357 357 356 351 345 339 333 328 329 333 331 332 328 328 330 330 327 328 332 329 327 326 325 325 325 326 325 325 326 325 325 321 316 315
351 358 357 361 364 361 360 360 359 357 360 355 350 343 337 333 332 334 333 331 326 324 326 327 327 326 325 327 327 326 325 325 323 325 325 326 327 327 325 320 318 317 317
355 359 363 364 364 362 361 360 358 358 351 350 349 344 339 337 335 336 339 333 331 330 328 329 329 330 328 327 326 325 326 324 324 327 324 324 325 323 321 320 318 317 318
361 364 365 365 362 360 359 355 353 349 350 350 348 345 343 340 338 340 340 338 334 331 329 331 332 332 331 327 327 326 325 324 324 322 321 320 320 321 321 320 317 318 318
364 364 365 363 361 357 352 349 349 348 347 346 345 343 341 340 341 340 338 333 328 328 330 334 334 332 330 327 328 326 325 322 320 319 319 319 321 320 317 315 315 315 313
361 361 362 358 351 349 348 350 348 347 345 344 342 341 341 340 339 338 336 330 328 330 331 331 330 328 327 327 328 325 320 318 318 317 319 320 319 316 314 313 312 310 308
357 354 352 349 349 349 348 348 346 344 343 342 343 341 341 340 340 337 336 332 330 330 331 330 328 327 326 326 322 321 320 319 317 319 319 317 314 313 311 310 309 307 306
350 352 348 351 348 349 349 347 343 342 342 342 342 339 337 339 337 335 332 326 324 327 327 327 326 325 324 324 322 321 320 319 317 318 316 314 313 310 309 308 306 306 307
351 349 350 349 348 348 347 344 344 342 343 341 340 340 336 335 335 334 329 324 325 326 327 329 327 324 324 322 321 320 319 319 317 315 314 313 309 308 307 306 306 306 306
345 349 350 348 347 346 343 341 342 342 339 338 337 335 332 329 330 328 325 326 327 327 326 324 320 321 322 321 320 318 316 315 314 312 309 308 307 306 306 305 305 305 306
350 350 349 346 347 343 343 341 339 337 337 335 329 327 327 327 326 324 324 325 325 323 319 319 320 321 320 318 317 315 314 313 311 309 307 306 305 305 305 305 305 305 305
348 346 346 347 344 342 340 340 340 337 333 331 330 326 326 326 326 324 325 324 322 322 322 321 320 319 317 316 315 314 313 311 308 305 305 305 305 305 304 304 304 305 305
344 344 343 341 340 339 338 336 334 334 334 333 330 328 325 325 325 325 323 321 319 320 322 321 319 318 316 316 315 313 311 307 304 304 305 304 304 304 304 304 304 304 305
340 340 339 337 337 335 334 333 332 331 331 330 330 329 326 325 323 322 323 322 322 322 321 320 318 317 316 315 313 310 307 304 303 304 304 304 303 303 303 304 304 304 304
334 336 335 335 333 333 332 330 329 328 327 328 329 328 326 326 325 325 323 323 322 321 320 318 318 317 315 313 310 308 305 302 303 303 304 303 303 303 304 304 305 304 304
333 332 333 332 331 330 329 330 329 328 327 327 326 325 325 325 325 324 322 322 322 320 319 318 316 315 313 310 307 304 301 302 303 303 302 302 303 303 303 304 304 303 303
332 331 330 330 329 328 328 328 327 326 326 327 327 327 326 325 323 322 320 319 319 318 317 316 315 313 311 308 305 302 300 300 301 301 299 298 301 303 303 304 303 303 303
331 330 329 329 328 328 325 325 325 325 324 324 324 324 323 323 322 318 317 318 317 317 315 315 314 312 309 308 306 301 299 299 298 298 296 296 298 303 304 303 302 302 303
327 327 327 326 326 325 324 324 323 323 323 323 322 321 322 322 321 319 318 318 316 316 315 313 312 311 309 307 304 302 299 298 296 296 296 296 300 303 303 301 302 302 302

GFSGL_850_thetae_009.txt.gz
Theta_e
354 354 354 347 349 348 345 344 350 354 353 349 347 346 346 344 331 322 323 325 328 330 330 326 327 328 332 333 332 331 333 331 331 329 330 330 329 326 326 325 326 327 329
355 354 353 351 346 350 344 343 344 350 352 352 351 348 346 342 335 323 320 326 323 329 333 332 328 331 328 325 328 331 331 330 331 332 332 330 330 330 330 327 325 326 326
355 355 354 353 346 348 346 344 341 345 349 351 352 351 350 347 339 330 323 326 321 331 332 334 332 325 323 322 332 331 331 332 333 332 328 329 329 329 330 330 328 327 327
354 355 354 352 345 340 339 339 344 345 350 351 351 350 350 348 346 337 327 329 325 330 331 331 331 331 327 329 331 330 331 328 327 328 328 327 329 329 330 329 329 329 328
354 355 353 350 349 342 344 340 339 348 350 353 353 352 352 350 348 341 330 329 324 328 331 333 335 334 331 331 332 331 328 327 328 328 327 328 328 327 326 322 327 326 322
352 353 353 353 353 351 348 342 345 347 350 354 356 354 352 351 349 345 336 332 327 326 329 330 334 333 333 331 332 331 330 329 331 328 327 327 326 324 323 325 325 323 324
350 352 352 353 354 354 355 354 354 355 358 357 357 356 354 353 351 348 339 332 328 330 333 333 336 334 331 331 334 330 328 328 328 327 326 325 325 323 326 325 325 324 323
350 350 351 352 352 355 357 358 359 359 359 358 357 358 356 355 351 344 335 329 337 336 335 336 332 331 333 332 329 328 327 327 326 326 324 323 325 324 324 324 325 323 320
351 348 350 349 350 356 359 359 361 361 360 360 358 357 354 351 347 340 334 335 336 335 337 336 332 333 329 327 325 327 328 327 325 325 322 322 324 324 323 324 324 321 320
350 349 348 351 351 357 361 360 362 360 355 354 359 354 352 348 342 340 335 330 331 333 333 333 333 329 327 329 329 328 328 326 327 326 325 325 325 323 321 320 321 322 322
349 351 350 352 356 359 361 360 357 356 354 356 353 350 348 344 342 338 336 336 339 337 333 332 330 327 329 331 330 329 328 327 325 324 322 321 319 319 321 321 320 317 315
353 353 357 358 360 362 360 358 356 355 356 351 348 347 346 344 341 339 338 339 340 338 335 332 332 333 333 331 329 328 327 327 322 319 317 317 319 320 317 315 314 313 312
357 361 366 365 367 367 358 355 356 350 348 348 346 345 343 342 340 340 340 340 338 334 332 329 329 329 329 329 327 326 325 320 319 318 317 319 320 318 317 315 314 311 309
361 366 367 366 364 361 357 349 345 347 346 346 345 343 342 341 339 339 337 336 335 330 328 330 329 330 328 326 323 321 320 319 318 317 317 317 316 315 314 312 309 308 306
364 362 362 363 361 356 348 347 347 346 345 342 341 341 340 339 338 337 335 333 329 327 330 331 328 326 324 323 324 323 320 319 318 317 318 317 315 314 311 308 306 305 305
357 358 358 356 347 347 347 346 346 344 342 342 341 340 338 334 337 336 332 326 322 322 323 324 325 324 322 324 323 321 320 319 318 318 316 313 311 309 307 306 305 305 305
352 352 350 344 346 346 347 345 344 340 340 341 340 339 337 336 335 332 331 325 324 326 327 327 326 321 322 321 320 319 317 315 314 312 312 312 309 307 305 305 304 304 304
348 345 345 346 347 347 347 345 340 338 339 340 338 336 335 329 327 327 327 326 327 327 326 323 319 320 321 321 319 318 317 315 314 313 312 308 305 305 305 304 304 304 304
346 349 348 347 346 347 345 342 338 337 337 336 334 330 327 327 326 325 324 324 325 323 322 322 321 320 320 319 317 316 315 314 313 311 304 305 305 304 304 303 304 304 304
347 349 348 347 344 342 339 339 338 339 336 333 332 329 326 324 323 324 325 324 323 321 322 321 321 319 318 317 316 316 314 312 309 303 304 304 304 303 303 303 304 304 304
341 340 340 341 340 339 339 338 337 335 334 333 331 329 327 323 322 322 322 322 321 320 320 321 320 319 318 318 316 314 311 308 303 303 304 304 303 302 303 303 304 304 304
334 336 338 338 338 337 336 334 332 332 333 332 330 328 325 325 325 324 324 323 322 322 321 320 319 318 318 317 314 313 310 307 304 302 303 303 303 302 303 303 304 304 303
337 336 335 334 333 333 331 329 328 328 328 328 327 328 328 326 325 325 324 323 322 321 321 320 319 318 317 315 312 310 309 303 301 303 303 303 301 302 303 303 304 303 303
330 331 332 332 331 330 330 329 328 328 327 327 326 326 325 325 325 325 324 322 321 320 318 317 317 316 315 313 312 308 307 302 300 301 301 299 296 298 303 303 303 302 302
330 330 330 329 329 328 328 328 327 327 326 326 326 325 325 325 324 321 320 318 315 318 315 315 317 316 314 313 311 309 307 300 299 299 298 297 296 301 303 303 303 302 302
328 328 328 328 328 326 325 324 324 324 324 323 325 324 323 323 323 322 319 316 315 314 314 314 314 314 312 311 310 308 304 301 300 297 296 296 296 302 303 302 301 302 302

GFSGL_850_thetae_012.txt.gz
Theta_e
349 349 350 351 349 347 347 346 346 351 353 352 350 346 344 344 345 344 333 322 321 322 322 324 323 324 328 332 333 332 331 332 332 331 330 329 329 329 328 327 328 325 325
349 350 351 351 351 347 347 345 345 349 351 353 351 348 347 346 345 344 341 324 321 320 320 325 328 328 329 330 333 332 332 332 330 330 330 329 329 328 329 329 328 329 327
350 351 351 351 352 350 343 345 343 345 347 354 353 351 349 348 347 346 342 332 322 322 320 326 329 331 330 328 328 329 329 331 330 329 330 329 327 328 327 328 330 330 329
349 352 351 350 351 350 347 341 342 342 344 345 353 353 352 351 350 349 347 343 331 323 322 325 331 332 333 331 327 326 332 333 332 330 326 327 327 328 328 327 327 326 325
349 350 351 350 350 351 349 343 340 342 342 344 349 351 351 351 351 350 349 346 341 328 325 320 325 327 332 333 330 328 331 330 330 327 327 329 328 327 325 325 325 324 324
349 349 349 350 351 351 350 348 340 340 344 346 347 350 351 352 351 351 350 347 345 335 329 321 325 328 334 335 328 330 331 332 328 330 329 328 326 325 325 325 326 326 325
350 350 350 350 349 350 350 350 348 343 344 350 351 353 355 353 353 352 350 348 347 339 332 324 327 330 333 335 331 330 328 329 330 329 328 327 325 323 323 324 324 325 324
351 350 350 350 349 349 350 349 351 351 351 352 353 354 354 351 349 350 352 351 346 340 333 325 330 333 333 333 332 331 330 329 328 328 327 326 324 321 323 325 325 325 324
352 351 350 350 350 351 350 349 351 354 355 355 355 357 352 333 353 355 353 348 342 333 327 335 336 337 334 331 331 332 328 325 327 328 328 326 324 323 324 324 323 323 321
351 350 349 350 351 351 351 353 353 354 355 357 358 357 342 343 354 353 347 342 337 333 336 337 337 334 335 333 330 326 327 329 328 328 327 326 324 322 321 320 319 320 321
346 348 352 352 351 350 353 357 355 354 358 360 358 356 350 354 352 345 341 339 336 334 333 335 334 334 334 330 328 328 329 328 327 327 325 320 318 317 318 320 319 316 314
348 352 354 354 353 354 355 359 357 356 356 355 356 355 356 349 345 342 340 338 336 335 337 336 334 332 330 329 329 329 328 327 327 321 318 317 317 319 318 317 316 315 313
350 352 353 354 354 354 357 359 357 357 355 357 356 355 348 345 343 342 340 338 338 339 337 334 332 329 329 329 329 328 326 323 319 318 317 316 317 317 317 316 315 313 309
350 351 352 353 355 356 359 358 356 357 354 354 351 346 345 344 342 340 339 339 339 339 336 331 329 329 329 329 327 323 321 320 320 318 317 316 316 317 315 314 312 308 305
351 352 355 358 358 361 363 358 355 353 352 348 343 343 343 342 341 338 338 336 335 335 332 330 330 331 328 323 322 322 322 321 319 318 317 317 317 316 313 309 305 305 304
357 358 359 362 362 361 356 351 348 346 345 342 340 339 339 339 338 337 335 332 328 323 324 325 327 325 323 321 322 323 322 320 319 319 319 317 313 311 309 306 305 304 304
357 360 359 354 353 347 332 332 346 344 342 340 340 339 338 332 333 334 332 327 324 321 322 323 324 324 321 320 322 321 320 319 317 316 314 313 312 311 308 305 304 304 304
357 354 354 352 350 342 341 344 343 341 341 342 340 339 338 334 331 329 332 328 324 324 325 325 324 323 321 322 321 319 318 316 315 314 313 312 308 303 304 304 303 303 304
352 352 351 348 347 346 346 344 342 339 338 338 338 337 335 333 329 329 329 327 324 324 325 324 321 320 319 320 320 318 317 315 314 313 312 305 304 304 303 303 303 303 303
347 346 347 347 348 347 345 343 339 339 335 335 335 335 332 328 326 326 325 324 324 324 323 321 322 321 320 318 318 317 316 316 311 307 304 304 304 303 303 302 303 303 304
346 348 347 346 346 343 340 336 332 325 331 333 333 333 327 325 324 323 324 324 322 323 321 321 321 320 319 318 318 318 316 315 312 309 304 303 303 303 302 302 303 303 304
338 338 336 337 338 338 336 334 334 335 333 331 332 331 327 325 323 323 322 322 321 321 320 320 319 319 318 317 317 317 315 313 311 307 303 303 303 303 302 302 303 304 303
330 330 331 330 331 335 336 336 334 334 333 331 330 329 326 324 324 324 324 323 323 322 321 321 320 318 318 317 316 315 314 312 309 307 302 303 303 302 299 301 303 303 302
335 335 336 335 334 332 330 329 329 328 330 329 329 328 327 326 325 324 324 324 323 322 322 321 319 317 317 316 315 313 312 311 309 305 301 300 300 299 296 300 303 303 302
331 329 329 331 330 329 330 329 328 328 327 327 327 326 326 326 325 324 324 323 321 321 319 319 316 316 316 315 314 313 309 307 305 301 300 299 298 297 297 302 303 302 302
329 329 330 329 327 326 325 325 325 326 327 326 326 326 325 325 324 323 321 319 317 314 313 313 313 316 315 314 311 310 308 305 302 301 300 298 296 296 298 301 301 301 302

GFSGL_850_thetae_018.txt.gz
Theta_e
346 346 347 347 347 348 348 347 347 346 343 343 345 347 345 345 348 347 344 338 337 331 322 321 321 320 321 324 328 333 331 331 330 330 330 330 331 330 329 330 328 328 327
344 344 345 346 346 347 347 347 347 347 342 343 343 346 345 344 347 348 344 342 342 340 332 322 321 322 322 322 322 326 332 332 331 331 331 331 330 330 329 329 328 327 326
345 345 345 345 346 346 346 347 347 348 344 341 343 341 342 343 348 348 345 342 344 344 343 335 322 322 322 324 324 326 329 331 332 331 328 331 331 330 329 327 327 327 325
345 345 345 345 345 345 345 346 347 347 347 340 342 338 344 348 348 348 348 346 346 346 345 343 336 324 323 325 328 328 329 329 328 330 329 329 331 331 330 327 329 326 325
343 344 344 344 345 345 345 346 347 347 348 342 340 341 342 346 348 346 348 348 347 347 346 346 344 336 325 326 330 331 332 333 331 329 329 331 332 329 329 329 328 326 325
343 343 343 345 345 345 345 346 347 347 348 347 342 341 343 343 344 344 346 349 349 349 348 347 346 343 335 326 329 332 334 334 332 329 331 330 330 328 329 327 326 325 324
343 343 344 346 346 345 345 346 347 347 347 349 346 343 342 342 342 343 345 347 348 350 350 349 347 345 343 334 333 330 333 334 334 332 329 329 329 329 328 328 327 325 322
343 345 346 346 346 347 347 346 346 347 346 347 348 346 342 343 343 342 342 344 346 348 350 349 343 346 344 335 334 328 332 334 334 333 331 330 329 326 327 328 327 325 323
343 345 345 345 346 347 347 346 346 347 348 347 348 348 347 341 340 340 342 344 346 348 351 338 345 344 343 338 336 328 333 333 333 330 331 328 327 328 328 327 326 324 321
342 342 343 345 346 348 348 348 347 347 348 349 349 349 348 347 341 339 342 345 347 351 353 347 345 342 340 336 335 331 336 334 332 330 328 327 328 327 325 322 319 317 318
343 346 347 347 347 347 347 349 351 350 351 351 350 349 348 348 346 341 345 347 350 353 340 347 344 340 336 332 334 337 335 334 333 330 328 328 326 323 318 316 316 318 317
347 347 349 351 351 349 346 337 350 355 354 353 353 352 351 350 350 347 350 352 353 348 346 344 339 330 331 334 334 334 333 333 330 328 328 326 322 318 315 315 315 315 314
349 349 349 350 351 349 351 349 355 355 354 355 354 357 358 354 352 351 355 354 348 347 343 337 334 334 334 334 334 332 329 329 328 328 327 321 318 316 315 315 315 315 313
344 344 348 350 351 353 353 356 357 357 355 355 354 350 358 351 354 354 352 346 343 340 337 335 334 333 335 335 333 330 328 328 328 326 320 318 318 317 317 316 315 313 311
338 339 347 346 348 351 352 354 357 357 357 355 358 357 356 353 349 348 345 342 340 338 336 334 334 336 335 333 328 328 328 328 324 320 319 318 318 318 317 316 313 310 308
333 333 334 340 348 350 353 355 357 357 358 357 358 356 353 348 344 338 332 335 339 336 335 334 336 335 332 328 328 329 326 321 320 321 320 319 318 316 314 312 310 307 304
334 335 334 336 339 347 353 356 356 358 358 358 353 351 343 342 339 333 332 332 339 337 335 335 336 334 328 328 329 324 321 321 322 321 318 317 315 314 312 311 305 303 303
334 335 350 351 350 349 352 354 354 355 348 335 333 334 333 331 331 334 337 338 338 338 337 336 335 331 328 327 323 321 320 321 319 317 317 316 315 313 311 304 303 303 301
335 336 340 344 342 349 352 351 348 341 333 333 333 333 336 337 339 339 336 337 336 335 334 331 323 321 322 322 321 319 320 320 319 318 317 316 312 310 304 303 302 301 301
333 334 338 336 336 333 335 336 336 335 333 333 333 338 337 339 339 337 336 335 333 330 325 321 321 321 322 322 320 319 320 319 318 317 316 314 309 305 303 303 302 301 301
336 337 333 332 334 335 329 327 330 332 331 333 332 338 340 339 337 335 334 333 328 325 322 321 321 323 323 321 320 319 320 319 317 316 315 313 309 305 303 302 302 301 300
336 338 336 336 337 332 334 334 335 336 337 338 339 339 334 331 331 333 332 330 329 326 323 323 323 323 321 321 321 320 319 317 316 315 314 312 309 304 302 302 302 301 300
332 333 334 336 336 337 337 336 337 337 335 335 335 335 334 332 332 327 325 327 327 325 323 321 321 320 319 319 318 317 317 316 315 313 312 311 310 304 302 302 302 297 298
333 330 330 334 336 335 333 331 331 332 333 333 332 330 330 329 329 327 325 324 323 322 321 320 319 319 319 318 317 317 315 315 314 313 312 310 308 303 302 301 299 298 297
328 330 331 330 332 332 333 332 331 330 329 328 327 327 330 330 327 325 323 322 322 322 321 321 320 320 319 318 317 316 315 314 311 311 311 307 304 300 299 299 298 297 297
329 328 329 329 329 329 329 329 329 329 330 330 331 331 330 329 326 324 323 323 322 322 322 318 317 319 320 319 316 315 313 310 309 309 303 303 301 300 299 298 297 296 300

GFSGL_850_thetae_021.txt.gz
Theta_e
341 341 343 343 344 346 347 347 346 347 348 348 345 342 343 345 344 345 347 345 339 332 327 322 322 321 321 322 322 326 331 332 333 334 330 330 330 331 331 329 329 329 328
343 342 342 343 344 345 345 346 346 346 347 348 347 344 342 345 343 344 347 347 341 333 332 328 322 322 321 321 321 321 322 329 333 333 334 331 331 331 330 330 330 328 328
344 344 343 343 344 344 344 345 346 346 346 347 348 344 342 343 344 343 345 347 344 339 338 339 338 327 322 322 322 323 323 325 328 331 333 332 328 330 331 330 329 328 328
344 344 344 343 343 343 344 345 346 346 346 347 347 345 341 342 343 342 344 347 345 341 341 342 343 341 329 323 323 325 327 326 327 330 333 333 329 331 331 332 332 330 329
343 343 342 343 343 344 344 344 345 346 346 346 347 347 340 341 340 340 342 345 346 345 344 345 345 345 343 332 326 326 328 330 330 333 334 333 332 332 332 332 330 331 329
342 341 342 343 343 343 345 345 345 345 346 346 347 347 345 338 336 337 342 345 346 347 347 346 346 346 346 344 332 329 329 331 332 335 335 334 334 328 331 330 331 330 329
341 342 343 344 344 344 344 345 344 344 345 346 346 347 347 337 336 336 340 344 347 347 348 349 348 348 347 346 344 333 331 332 333 334 334 333 333 329 328 329 329 327 330
341 342 342 343 343 344 345 344 345 345 345 345 346 347 347 344 335 335 338 341 345 347 348 350 350 349 349 347 346 340 335 332 330 333 334 334 331 330 329 327 327 328 327
341 341 341 342 343 345 346 345 345 346 346 345 346 346 346 344 338 335 338 342 345 345 346 347 347 350 350 342 346 342 335 332 331 334 334 333 331 330 327 328 328 326 327
341 342 343 345 345 345 345 348 348 346 345 346 346 347 346 344 341 339 340 343 345 346 346 346 346 350 340 343 345 342 336 329 331 334 332 330 329 327 328 327 324 323 322
340 342 343 344 345 346 347 347 348 350 350 348 346 346 347 346 345 344 345 346 345 346 347 346 346 350 346 345 343 342 335 329 335 334 333 331 328 328 327 322 317 317 319
342 343 343 344 346 348 348 349 350 351 351 351 350 350 347 347 348 347 347 350 348 346 345 345 348 347 346 343 341 338 333 336 335 334 333 330 328 326 320 316 315 315 315
346 346 347 347 348 349 350 350 352 355 352 354 355 353 352 350 350 350 350 350 350 349 349 349 348 344 345 339 334 334 336 334 334 334 332 328 327 321 317 315 315 315 315
345 345 344 346 348 350 352 353 355 355 356 355 357 354 349 350 347 351 352 354 353 352 351 346 344 344 335 331 334 335 334 333 331 330 328 328 323 318 317 317 316 315 314
335 335 336 342 346 347 348 350 352 353 353 353 356 355 351 342 335 353 353 352 351 349 341 342 339 336 335 334 334 334 333 330 328 328 328 325 319 318 318 317 315 314 312
333 333 333 333 337 345 352 349 351 353 353 353 355 355 354 350 355 354 355 352 345 337 333 332 333 335 334 334 334 334 331 329 328 328 324 320 319 319 319 315 314 312 311
335 335 334 335 344 347 350 352 354 352 355 357 357 356 356 356 356 355 348 337 335 334 333 332 331 334 334 335 335 330 327 328 327 322 320 321 320 320 316 315 312 311 308
333 333 335 335 344 347 348 348 348 349 350 356 359 357 356 356 352 337 335 336 335 334 335 332 333 334 334 335 330 327 329 326 321 321 321 319 316 316 315 313 310 307 306
336 334 337 338 337 335 335 335 341 343 348 350 351 355 348 343 341 340 340 335 333 333 334 336 335 334 335 331 328 329 326 321 321 321 318 317 317 316 313 310 307 304 303
337 337 335 335 335 336 335 335 331 333 336 333 337 339 334 334 333 334 333 332 332 335 336 336 335 335 332 330 328 326 321 320 321 320 318 317 316 314 311 308 306 305 305
336 337 336 335 334 333 333 332 329 331 328 328 331 328 333 333 332 332 333 333 334 333 336 336 335 328 324 323 324 322 319 319 320 319 318 317 316 315 312 307 306 305 304
334 335 336 337 335 333 332 334 332 330 332 332 333 334 335 336 337 337 338 336 335 334 334 329 322 321 321 322 323 320 320 320 319 318 317 315 314 313 308 306 305 305 304
332 335 336 336 335 336 336 336 334 332 333 333 332 332 334 337 337 336 336 334 333 328 325 322 322 322 323 323 322 320 320 319 319 317 316 314 313 311 308 306 305 305 304
330 330 331 333 334 334 334 335 335 335 334 334 335 336 336 335 333 332 330 329 328 326 324 323 323 323 322 321 321 320 320 318 316 316 315 313 312 310 308 306 305 304 302
325 327 328 329 330 331 331 331 331 332 334 334 334 333 332 332 332 328 326 327 329 328 324 321 320 320 319 318 318 318 317 317 315 315 314 312 311 310 306 305 303 301 300
326 326 325 325 326 327 327 328 328 327 328 329 329 328 330 331 329 327 329 329 329 325 322 321 320 319 319 319 318 317 317 316 316 314 312 311 309 306 304 302 301 301 301

GFSGL_850_thetae_024.txt.gz
Theta_e
339 339 341 342 343 344 345 346 346 347 349 348 348 344 345 346 342 344 344 352 337 335 334 332 324 326 335 336 337 335 334 334 334 333 334 334 331 330 334 333 334 334 334
343 340 339 340 341 342 343 344 345 346 347 347 348 348 345 346 344 343 341 350 344 341 337 333 333 329 323 328 337 336 335 336 334 336 335 335 334 336 334 337 335 334 334
355 351 347 342 340 340 341 341 343 344 345 346 347 348 347 344 344 342 341 341 347 342 342 337 340 335 324 332 331 335 336 336 334 334 335 337 336 336 336 334 336 336 334
353 356 354 345 342 341 341 342 342 343 345 346 346 346 347 346 346 342 341 340 344 345 344 342 344 341 338 334 325 324 330 333 336 335 334 334 336 336 335 333 335 337 335
351 354 354 344 344 344 343 342 343 344 344 345 346 346 346 347 350 341 338 339 340 343 344 343 345 344 342 342 339 332 330 329 333 336 335 334 334 335 336 334 333 333 332
350 350 353 353 348 344 346 345 344 344 344 345 346 346 346 347 348 341 335 337 337 339 344 344 346 345 344 345 345 342 336 328 332 334 335 335 336 336 336 335 334 333 332
348 351 350 351 348 347 349 348 345 345 348 345 345 346 346 346 346 340 333 335 334 336 340 345 350 349 345 346 346 346 344 337 329 337 338 337 338 338 337 335 334 333 333
347 345 348 347 348 355 351 348 347 349 348 346 345 345 346 346 345 345 341 336 339 343 344 348 351 351 347 348 348 347 346 345 338 330 335 338 338 338 336 332 332 330 332
343 341 340 344 348 351 349 345 346 349 350 348 348 345 345 345 346 345 345 344 341 346 351 352 352 350 348 349 350 348 346 345 341 334 331 336 336 334 333 334 334 332 332
343 345 343 341 343 342 342 345 348 348 348 355 355 348 345 345 345 344 345 347 345 344 349 347 344 347 347 348 350 349 346 345 342 339 332 333 335 334 331 329 331 331 329
351 352 348 346 343 343 344 345 348 350 355 355 355 355 351 345 345 346 344 345 346 349 347 351 352 346 346 347 349 346 341 345 342 340 334 334 333 331 329 328 328 326 323
353 354 353 348 352 357 351 350 353 356 356 355 357 357 357 351 346 346 347 346 345 349 349 349 349 342 344 347 348 345 344 344 342 337 336 336 334 332 329 327 324 318 320
351 352 354 356 356 354 356 357 359 357 358 359 358 358 357 356 353 349 346 346 347 348 352 351 349 342 345 348 349 344 344 342 338 335 336 335 334 330 327 325 317 315 314
350 353 355 358 359 360 359 360 359 359 361 359 359 359 359 359 358 358 351 353 351 350 353 353 350 348 348 348 345 343 341 337 334 336 335 335 331 327 325 322 321 320 319
356 357 358 357 357 359 360 359 359 359 359 360 360 359 359 358 358 356 353 353 353 352 351 352 350 348 345 344 342 338 334 332 333 335 335 333 328 326 323 322 321 319 319
334 341 346 348 350 354 355 358 357 356 359 359 358 358 359 358 356 354 352 354 352 352 350 350 347 346 344 340 336 331 331 331 335 334 332 329 327 325 323 322 321 319 317
341 338 346 343 349 348 349 351 353 356 359 355 356 358 357 356 358 357 355 354 351 352 351 346 343 340 338 334 333 332 332 335 333 333 329 328 325 324 323 322 320 318 316
340 337 341 343 344 345 342 341 341 341 345 347 349 349 352 357 358 357 357 353 353 351 346 342 335 333 334 333 332 334 334 334 333 330 329 326 324 324 323 320 319 317 315
342 342 341 338 336 335 338 338 337 338 337 337 337 344 345 349 349 355 355 352 345 343 336 333 335 334 333 332 333 334 334 333 331 329 327 325 324 323 321 319 317 314 312
338 336 337 340 340 340 340 339 336 336 335 333 334 333 332 332 330 327 343 344 339 334 333 334 335 332 334 334 335 334 332 331 329 327 325 324 323 321 319 317 315 313 310
336 337 336 334 334 336 339 337 336 334 332 334 328 328 329 329 331 330 331 333 334 335 334 335 335 334 335 334 334 332 330 328 327 326 324 323 321 319 318 315 313 311 309
336 335 336 336 335 335 335 334 334 334 333 332 328 328 327 328 329 328 327 327 334 334 335 335 334 335 335 335 333 330 328 326 325 324 323 321 319 318 317 315 313 311 309
335 337 335 335 335 335 334 335 335 335 334 333 332 332 332 331 331 332 332 333 333 334 334 335 337 335 335 332 329 327 325 324 323 322 321 320 318 317 315 313 312 310 309
330 331 332 333 332 334 334 332 332 333 334 335 332 332 333 333 331 332 335 335 335 335 335 334 332 327 327 327 326 325 324 323 322 321 320 319 318 316 314 313 311 310 308
325 325 326 327 326 327 327 327 327 328 329 330 331 333 333 333 334 333 334 334 334 332 328 324 324 325 323 322 326 325 323 322 322 320 320 318 316 314 313 311 310 309 308
320 320 323 323 323 323 324 324 325 326 326 326 327 329 328 330 332 331 332 331 330 326 324 322 322 326 322 324 323 322 322 321 320 318 318 316 315 314 313 311 309 308 306

GFSGL_850_thetae_027.txt.gz
Theta_e
343 341 337 335 338 339 344 351 350 352 356 351 356 353 349 347 350 351 350 352 351 345 346 346 341 330 338 338 338 337 336 336 335 335 336 336 335 331 337 335 334 336 335
351 344 340 339 337 338 339 342 346 346 347 355 351 355 351 347 349 352 348 351 353 350 350 346 345 331 326 335 339 338 337 337 336 335 336 338 336 337 332 338 337 335 336
358 356 355 345 341 339 340 339 341 342 343 345 351 352 350 350 348 345 344 341 347 350 350 351 342 339 331 331 330 338 339 338 339 337 337 338 338 339 338 339 337 336 333
357 358 359 356 342 343 345 340 339 339 340 342 347 349 349 348 348 345 338 338 339 339 343 348 351 346 336 332 330 328 335 338 338 338 337 336 336 338 338 337 336 336 337
356 357 358 359 359 359 356 349 343 340 339 339 342 345 346 348 353 350 348 343 339 337 343 348 353 352 346 334 335 336 334 334 335 337 338 337 336 336 337 336 337 335 335
355 355 357 359 360 360 359 357 354 344 340 341 341 342 344 345 349 353 351 346 343 347 350 353 351 354 353 345 339 341 342 340 338 337 336 338 337 337 338 337 337 336 334
352 356 356 358 359 361 361 361 357 352 352 346 343 344 343 344 345 346 351 350 346 346 352 353 353 353 352 350 342 342 344 344 344 341 336 337 338 338 338 337 337 337 336
354 353 356 356 359 359 357 353 360 360 352 354 352 349 346 344 344 345 346 349 349 351 352 351 352 347 352 351 347 344 345 346 346 345 341 335 333 338 340 337 336 336 334
342 351 354 358 359 359 353 350 357 357 357 355 358 358 351 345 345 344 346 347 350 350 349 350 351 350 348 351 348 345 345 347 347 347 345 337 335 338 332 336 337 336 335
343 346 354 356 358 358 356 353 353 360 359 360 357 355 350 345 348 346 345 349 350 349 350 350 350 348 350 351 350 348 348 347 349 348 345 341 333 334 329 333 336 336 334
354 355 357 355 358 358 355 352 354 359 362 361 359 361 361 358 349 345 345 350 349 351 352 354 353 348 346 349 350 346 344 346 349 347 344 342 335 335 331 334 333 331 333
351 355 358 358 359 360 357 358 360 360 360 360 361 361 361 360 360 355 349 349 348 351 353 353 354 354 352 350 353 348 346 350 349 346 343 342 338 337 336 334 332 329 328
355 356 358 358 359 358 360 360 363 361 362 362 362 362 362 361 362 360 358 354 354 354 350 355 353 352 352 353 352 352 351 349 346 344 342 340 337 335 334 334 330 328 324
359 359 359 361 361 363 361 363 362 362 362 362 361 361 360 361 361 362 363 361 360 358 356 353 355 354 351 353 353 351 350 348 344 344 341 338 335 335 334 332 329 326 321
362 362 362 362 362 363 362 361 362 362 362 362 362 361 361 361 361 362 361 362 362 360 359 357 354 354 353 353 352 347 346 343 343 342 340 336 335 335 333 329 327 325 323
360 361 360 359 361 362 361 363 360 361 361 360 359 360 361 361 360 360 361 360 360 359 358 357 355 353 352 352 350 347 343 343 343 340 333 332 334 333 331 328 325 324 322
352 347 349 346 348 349 352 353 354 356 355 356 356 356 358 358 359 359 358 358 359 359 359 357 355 350 352 352 348 346 342 343 336 335 333 332 334 331 329 327 325 324 322
343 342 347 346 348 350 351 349 347 346 345 344 342 343 346 348 348 349 353 354 353 355 355 356 353 351 350 350 346 344 340 336 335 335 334 335 333 330 328 326 325 324 321
345 345 345 342 340 341 343 344 342 341 341 338 337 335 333 332 333 335 338 340 345 349 350 351 351 348 346 343 344 340 337 336 335 335 335 334 331 329 327 325 324 322 320
340 338 342 343 343 343 343 342 340 338 338 338 335 331 330 332 330 331 331 331 337 336 335 339 344 343 344 343 341 337 336 335 335 335 334 331 330 327 326 325 323 321 318
339 339 339 340 339 340 340 340 340 340 339 336 334 330 328 328 332 331 330 331 335 337 337 337 338 338 337 337 335 334 335 336 334 334 332 330 327 326 324 323 321 319 317
338 337 337 335 336 336 336 334 334 333 333 334 336 335 332 333 333 331 330 330 328 329 332 331 331 328 331 334 334 335 335 334 333 332 329 327 326 325 323 321 319 317 315
337 336 335 336 336 336 336 334 332 333 332 332 333 333 333 333 333 333 332 332 333 334 332 332 335 335 334 336 335 334 333 332 330 328 327 325 324 322 321 319 318 316 315
332 331 331 331 330 330 330 330 329 329 331 332 332 331 332 332 333 333 332 333 333 333 334 336 335 335 335 335 333 331 330 328 327 326 326 324 322 321 320 319 317 316 314
325 325 326 327 325 324 324 323 324 325 325 326 328 329 331 330 330 332 333 334 335 335 335 334 334 334 334 332 330 326 326 326 325 324 324 322 321 320 319 318 317 315 314
321 321 321 321 319 319 318 319 320 320 320 321 322 323 325 327 328 329 329 331 332 333 332 330 328 328 325 326 326 325 325 324 323 323 323 322 321 320 318 316 314 314 313

GFSGL_850_thetae_030.txt.gz
Theta_e
347 338 337 339 336 336 339 340 347 351 357 350 357 353 351 351 346 350 349 347 345 350 350 347 336 329 329 337 339 338 337 336 334 334 338 337 336 334 334 336 334 333 334
350 348 343 339 336 334 335 336 339 346 347 357 351 357 354 354 345 344 342 345 352 350 347 347 344 336 332 334 339 338 337 337 336 335 335 338 337 337 336 332 330 334 336
360 358 354 347 341 337 334 333 336 340 345 344 351 351 356 354 350 345 340 340 341 353 351 349 348 339 333 330 333 337 338 338 337 336 336 336 336 337 338 337 336 336 331
360 361 359 356 350 349 344 339 336 338 338 341 342 348 351 349 348 348 348 342 338 340 350 355 350 346 338 331 330 328 331 337 336 336 335 334 338 338 338 339 336 336 335
357 360 359 358 357 355 355 351 349 343 339 337 339 341 346 349 346 345 348 347 346 339 338 350 353 349 341 336 335 333 329 335 338 337 337 337 337 336 338 338 338 336 336
357 357 357 358 359 360 360 359 354 348 346 345 342 342 343 343 343 342 343 346 347 347 344 342 350 350 345 343 339 340 334 331 331 333 335 336 338 337 336 336 338 337 337
357 357 358 359 359 359 359 360 360 357 354 350 350 348 343 341 339 340 341 343 347 348 346 345 344 344 348 347 346 343 343 337 339 339 339 337 337 337 337 338 338 337 336
355 356 360 359 360 360 360 360 360 361 358 356 354 351 350 343 342 340 341 344 347 348 350 347 345 344 349 349 347 348 345 343 340 342 343 343 339 338 339 338 338 338 335
347 352 353 357 359 360 360 360 360 361 363 360 356 358 355 350 351 350 351 353 351 350 351 351 351 350 347 353 353 348 345 346 343 342 343 345 345 343 336 338 340 338 332
343 342 347 352 354 358 360 361 360 361 362 364 361 358 360 358 359 358 360 359 356 353 355 354 353 353 351 350 354 354 353 347 345 344 344 344 344 343 339 339 337 337 334
343 347 347 347 351 358 360 364 363 364 364 363 363 363 360 359 360 362 364 363 360 358 357 357 357 356 356 354 352 353 350 352 347 346 344 345 345 345 342 337 336 336 336
346 348 350 350 355 360 362 364 366 364 363 362 364 362 362 363 362 362 363 363 363 363 360 358 357 358 357 357 357 354 353 355 353 349 348 347 346 346 344 340 333 331 334
352 350 352 353 360 359 363 363 364 363 362 362 362 362 364 365 363 364 364 363 362 362 362 361 359 359 357 357 357 357 356 356 354 352 351 349 349 346 343 339 335 333 334
353 357 357 358 362 361 361 364 362 363 362 362 365 365 365 364 362 362 362 362 364 364 363 361 361 359 356 358 357 356 356 355 354 353 352 348 348 343 341 337 334 332 331
359 360 362 362 363 363 362 361 366 364 363 364 364 362 362 362 365 363 363 364 364 363 363 363 363 361 361 357 356 356 356 356 356 353 352 348 345 342 339 336 333 334 331
363 364 364 363 363 362 364 362 361 362 363 362 362 361 361 361 361 361 362 361 361 361 360 361 362 361 360 359 358 355 354 355 355 353 351 348 343 340 338 334 333 334 331
356 359 355 360 353 365 361 364 364 361 360 360 360 359 359 359 359 359 359 360 360 360 359 358 358 358 358 359 358 357 355 352 352 350 347 346 341 338 335 332 334 331 328
350 349 349 349 351 353 354 355 352 351 349 348 349 350 351 348 342 336 337 337 338 342 345 347 351 353 354 353 353 353 352 350 349 347 347 344 340 331 333 334 330 328 325
347 345 344 343 344 343 345 345 344 343 342 341 339 336 332 332 331 330 331 332 332 332 333 336 340 342 344 348 349 349 348 348 347 345 343 342 334 334 334 332 330 327 325
343 346 346 346 345 345 344 344 342 341 339 339 338 334 330 332 332 332 331 330 332 331 333 337 337 338 338 337 338 340 345 345 346 343 340 336 335 335 333 330 328 326 325
340 341 341 341 341 341 341 340 340 340 340 339 337 335 334 333 335 334 333 333 331 330 330 335 334 333 333 333 336 337 339 339 337 336 335 335 335 333 331 329 327 325 324
339 338 338 337 337 336 336 337 334 334 332 332 334 334 333 334 333 334 334 334 334 334 334 331 330 332 333 333 330 332 332 329 329 331 335 335 333 330 328 327 326 325 322
336 335 334 334 333 332 331 330 329 330 331 331 332 333 332 331 332 334 333 334 334 334 334 334 335 335 336 335 334 332 332 334 335 335 334 332 330 329 327 325 324 323 320
330 330 330 330 330 328 327 325 325 323 326 326 328 328 329 330 330 331 333 333 334 334 334 334 335 335 335 335 335 334 335 335 335 333 330 329 328 327 326 324 321 319 318
325 325 324 323 322 322 321 321 321 321 321 321 322 322 322 325 327 328 329 331 332 332 333 333 335 336 336 335 335 334 331 327 330 330 329 328 326 325 324 321 320 319 317
321 320 319 319 319 318 317 316 316 315 315 316 316 317 319 321 321 322 323 326 327 329 330 331 330 330 333 331 332 329 329 327 325 324 326 326 324 323 321 320 319 318 317

GFSGL_850_thetae_033.txt.gz
Theta_e
349 348 344 337 336 342 341 339 345 354 352 351 353 354 350 350 350 350 343 343 344 345 346 343 333 326 337 339 340 338 335 333 333 335 336 337 336 336 335 334 335 335 334
348 348 349 343 337 336 339 334 337 340 350 350 349 351 356 353 351 351 343 339 345 343 344 347 340 337 329 333 335 338 337 334 332 330 334 338 337 336 336 336 335 332 332
349 349 347 348 345 337 335 334 334 335 335 345 356 352 351 355 355 353 351 338 336 338 339 346 346 344 338 334 331 334 338 337 335 334 333 334 337 337 337 337 337 335 334
349 348 347 346 345 342 336 334 335 334 334 336 342 355 354 352 352 354 352 348 341 336 338 338 347 349 340 337 336 332 335 337 337 335 334 335 335 336 337 337 337 337 334
350 349 347 345 344 343 340 335 332 333 336 335 336 339 346 351 351 350 349 348 346 344 342 338 337 336 337 336 336 335 332 334 335 335 335 334 334 334 335 336 337 337 337
352 352 352 352 352 350 344 340 338 335 335 336 336 337 341 343 344 344 345 347 346 346 343 342 342 339 337 337 339 339 338 334 332 332 329 332 332 333 333 335 337 337 338
353 353 354 355 355 355 355 354 347 343 342 340 341 341 341 339 341 345 346 348 346 345 344 343 341 342 342 341 340 345 346 342 341 336 331 330 333 334 336 336 336 336 337
355 355 356 356 356 357 357 357 357 356 352 349 347 347 347 343 343 344 348 352 354 352 350 346 345 343 343 343 342 345 349 348 345 345 341 333 332 335 336 337 337 337 337
356 357 356 356 356 357 358 358 358 358 358 358 357 356 354 352 353 354 355 355 355 356 357 356 353 350 349 349 350 350 348 348 346 349 348 345 337 336 336 339 340 339 339
355 356 356 358 358 358 359 359 359 359 359 359 359 359 358 358 359 360 360 360 358 358 358 357 358 358 358 357 355 354 353 350 349 347 350 349 347 341 340 337 338 340 339
348 349 349 349 352 355 356 359 361 361 361 361 361 362 362 361 362 364 364 363 362 361 360 360 359 359 359 359 361 359 356 354 353 353 351 350 350 346 342 342 342 341 339
346 345 344 344 344 346 351 355 360 362 363 363 364 364 364 362 363 363 364 363 365 362 361 361 361 360 360 358 358 357 358 359 358 356 355 354 352 350 347 343 343 342 341
341 343 349 351 350 351 352 357 362 363 365 365 365 363 362 361 361 362 362 362 362 362 361 361 361 361 359 360 359 358 358 358 359 356 355 353 353 353 350 346 342 340 339
345 344 341 354 356 355 356 361 363 364 364 365 363 362 361 361 362 362 362 364 364 365 364 364 363 363 363 362 361 360 358 359 358 358 356 354 352 350 352 349 344 340 337
356 355 358 356 355 356 359 362 362 362 362 361 361 360 361 362 364 364 365 365 364 362 361 361 363 363 362 360 362 361 360 359 357 357 357 355 352 351 351 350 347 343 337
361 361 362 361 359 361 360 361 362 364 366 364 362 364 365 364 361 361 361 360 360 360 359 358 358 358 358 359 360 361 359 355 355 356 354 354 353 348 347 348 347 344 338
364 363 361 361 362 361 361 362 363 362 362 364 363 361 359 358 359 359 359 359 359 358 356 353 348 349 354 353 355 355 354 354 353 352 352 352 352 348 348 346 347 340 337
352 351 355 355 357 363 362 364 365 360 357 354 354 351 353 355 354 352 348 340 332 331 332 332 332 332 335 341 343 343 344 345 349 350 350 350 350 348 344 342 342 340 334
347 347 348 350 351 354 351 346 345 345 345 345 343 340 336 332 331 331 331 331 331 331 331 331 333 334 336 333 331 333 335 336 337 338 339 343 349 347 345 341 337 337 332
345 346 343 343 346 345 344 343 341 340 339 339 338 336 335 331 331 333 334 334 333 331 331 329 331 333 332 331 331 332 331 333 334 337 340 339 337 335 335 334 333 333 331
342 344 344 344 344 344 343 342 340 339 338 337 336 335 334 333 334 335 334 334 334 334 334 334 334 334 334 334 335 334 331 330 331 331 331 329 328 327 327 328 330 331 329
340 339 339 338 338 339 338 338 338 337 336 335 334 332 332 331 331 331 332 333 334 334 334 335 334 335 335 335 334 334 333 331 330 330 330 329 329 328 332 333 331 329 326
337 336 334 333 331 331 330 331 330 330 330 331 330 329 329 329 329 330 331 332 332 333 333 334 334 334 334 334 334 334 333 336 335 335 334 334 332 333 332 329 329 328 327
333 331 329 329 328 328 325 323 324 324 323 323 322 322 323 324 325 326 327 329 328 329 330 332 334 333 333 335 335 334 333 335 334 335 335 333 332 331 330 329 328 327 325
324 323 323 321 320 319 318 318 317 317 317 318 318 319 320 321 321 322 322 323 325 327 327 328 330 331 332 333 334 334 330 333 335 333 331 331 331 329 326 326 325 325 323
320 320 318 318 317 316 316 316 315 314 313 312 312 314 316 317 318 319 319 320 320 319 320 324 326 328 332 334 330 330 327 329 331 330 329 328 326 325 325 324 322 320 319

GFSGL_850_thetae_036.txt.gz
Theta_e
348 348 348 349 349 347 342 341 342 340 345 348 351 351 350 350 350 350 349 347 341 343 344 341 329 326 331 335 335 336 335 335 334 334 336 338 337 336 335 335 334 334 334
346 347 348 348 349 348 343 339 340 340 344 350 350 351 352 353 351 350 350 349 346 342 339 341 337 334 326 328 333 333 334 337 334 330 329 333 336 337 336 335 335 335 334
348 348 348 348 349 347 342 336 336 339 341 348 354 351 350 351 353 353 350 350 350 339 338 340 335 338 339 332 327 332 333 334 336 336 333 332 332 336 337 336 335 336 336
349 348 348 348 347 344 340 337 334 334 336 339 345 351 350 348 349 350 353 352 350 347 338 336 336 335 334 338 341 335 330 333 336 337 336 335 333 333 336 336 336 336 336
349 348 346 345 345 342 340 338 336 335 333 334 335 342 343 349 351 350 351 350 350 348 346 343 339 336 333 332 334 339 343 341 335 336 338 337 336 335 334 334 335 335 336
350 349 348 346 344 342 340 337 336 335 334 334 334 334 335 336 341 349 351 351 352 350 348 346 346 345 343 341 338 336 335 341 344 340 336 337 336 334 333 334 334 335 336
350 350 350 349 347 345 342 340 338 336 334 334 334 334 334 335 335 336 339 343 347 348 348 348 347 347 346 346 344 344 342 339 341 342 344 339 335 333 332 333 334 334 333
351 351 351 351 351 351 351 351 350 350 348 344 339 337 336 337 338 339 341 343 346 347 348 349 349 348 347 347 347 347 346 345 343 343 344 340 341 340 340 336 331 333 334
351 351 351 352 352 352 353 354 355 355 355 355 355 354 353 352 351 351 351 352 353 353 353 352 350 350 351 354 355 355 353 349 349 348 347 346 345 345 345 345 337 335 335
352 352 352 352 353 353 354 354 355 355 356 356 357 357 357 357 358 359 360 360 359 358 358 357 357 359 360 360 360 358 357 355 357 356 355 353 351 351 351 350 347 337 335
353 353 353 353 354 355 355 356 356 357 357 358 358 359 359 359 360 360 361 362 362 361 360 360 359 360 360 360 360 359 358 357 356 356 356 356 356 355 353 352 350 345 338
355 352 353 354 355 357 357 357 358 358 359 359 360 361 361 361 362 362 362 362 361 361 360 360 360 360 359 359 359 358 357 356 358 359 359 357 356 355 353 354 354 351 347
349 352 354 356 355 354 354 354 357 358 360 361 362 362 362 363 363 362 360 360 361 361 361 362 361 361 362 363 363 362 362 362 360 359 359 359 357 357 354 353 352 352 348
338 340 343 342 346 349 350 351 352 353 357 361 363 363 363 361 360 359 360 361 363 363 362 362 362 363 364 361 361 358 359 360 361 361 361 359 358 358 356 356 354 351 349
355 345 340 339 340 347 356 356 356 354 359 361 362 361 362 362 360 359 363 363 362 361 360 361 360 360 359 358 358 358 357 355 355 356 357 357 356 356 355 353 352 351 345
358 359 358 359 356 359 360 358 360 361 362 362 359 361 362 361 360 361 361 360 360 360 359 358 356 353 350 350 352 355 358 357 354 353 353 350 354 353 352 352 351 349 346
353 357 360 362 362 360 359 358 359 364 361 359 362 360 358 357 363 362 361 358 356 354 351 345 338 334 332 335 339 342 343 339 335 334 333 335 336 343 350 343 348 345 345
353 353 356 360 360 362 363 363 361 362 359 358 358 359 357 357 355 352 345 339 336 333 331 331 331 332 333 334 334 332 331 331 332 332 333 332 337 338 338 337 340 341 343
347 350 352 355 357 358 362 364 361 357 351 347 340 339 334 334 333 332 332 331 331 331 330 330 330 331 332 333 332 331 332 334 333 331 331 333 334 331 331 334 336 337 339
345 346 348 349 350 348 356 355 346 343 339 336 335 335 333 332 332 332 333 333 334 333 333 333 333 333 333 333 333 334 334 334 331 330 330 329 326 328 330 332 331 330 330
346 344 343 345 345 344 343 343 340 339 337 336 336 334 333 333 333 332 332 332 333 333 333 334 335 334 334 335 335 334 333 333 333 331 330 329 327 328 329 328 327 325 325
343 344 343 343 342 340 339 338 337 337 336 335 334 332 331 332 332 332 331 331 332 332 332 333 334 334 334 334 334 334 333 333 335 334 334 331 328 328 329 331 330 329 329
340 340 339 338 338 337 336 334 333 333 332 331 329 329 328 328 329 329 329 327 328 329 329 330 331 332 332 333 334 333 334 334 333 333 333 334 332 329 331 332 331 331 331
336 334 333 331 330 329 329 327 326 326 326 325 324 323 323 323 323 324 324 324 325 326 326 328 329 329 330 332 331 333 334 334 334 333 334 334 334 334 334 330 331 330 327
332 329 329 329 325 323 322 320 320 319 319 320 320 320 320 320 320 320 320 319 319 319 320 324 326 327 328 329 330 331 329 332 332 332 332 332 331 331 330 329 327 326 325
319 319 318 317 316 315 315 314 313 313 312 312 313 314 315 316 316 316 316 317 318 319 318 318 320 322 324 327 329 330 329 330 332 330 330 330 329 329 327 327 327 326 325

GFSGL_850_thetae_039.txt.gz
Theta_e
346 346 346 346 347 347 345 342 343 342 344 344 344 346 348 349 349 349 347 346 345 340 342 341 335 333 336 337 338 339 339 338 337 332 331 333 335 336 336 336 335 335 334
347 347 347 347 347 347 347 345 342 343 343 342 343 344 349 349 349 349 350 350 348 347 340 341 340 339 330 328 333 335 337 336 337 334 332 332 331 331 333 335 336 335 335
347 347 347 347 347 347 347 346 345 343 343 344 342 345 347 349 350 351 352 350 350 349 348 343 335 337 337 331 327 327 330 334 336 336 333 333 334 333 331 331 335 336 335
348 348 347 347 347 347 347 347 347 344 339 340 342 341 348 349 348 350 351 352 351 350 349 349 345 336 335 334 334 335 334 331 329 331 332 332 334 335 335 333 332 334 335
348 348 347 346 346 346 347 346 346 343 338 335 337 339 339 348 350 348 348 347 349 348 348 348 346 342 338 335 335 334 335 338 342 340 337 334 333 333 334 332 334 332 332
348 348 347 347 346 345 346 346 343 340 337 335 333 334 336 337 338 340 344 345 345 346 346 345 345 346 345 345 344 343 341 339 339 341 343 345 342 340 336 334 334 336 335
348 348 348 348 347 343 341 343 341 338 336 334 333 333 332 333 334 334 337 341 340 344 346 346 345 344 346 347 348 349 349 348 347 345 344 343 340 338 341 344 340 336 335
349 349 349 349 349 348 347 345 343 342 341 338 335 334 334 334 333 334 335 337 337 337 338 338 341 342 345 347 349 350 350 350 351 350 350 348 347 345 346 346 345 347 344
349 349 349 350 350 350 350 349 348 348 348 347 346 347 346 345 344 342 342 343 343 343 343 345 347 349 351 353 355 356 355 355 355 355 355 354 353 354 353 353 353 350 349
349 349 350 350 350 350 351 351 351 352 353 354 355 355 355 356 356 356 357 356 356 356 356 357 357 357 358 358 359 358 357 358 357 356 356 355 354 354 355 356 355 346 346
349 350 350 350 350 351 351 351 352 352 353 354 355 355 356 357 357 358 359 359 359 359 360 360 359 359 358 359 358 358 357 356 356 357 358 358 358 356 355 354 354 354 353
352 351 352 351 351 352 352 352 353 354 355 355 356 357 357 358 359 359 360 361 361 362 360 358 358 358 358 359 360 360 361 362 363 362 361 361 359 358 356 355 355 355 356
355 355 355 355 355 354 354 354 355 356 357 357 358 358 359 359 359 360 361 362 362 361 359 359 359 362 362 360 359 361 364 365 363 358 357 359 357 358 358 359 358 357 357
348 351 353 354 355 356 357 358 358 358 357 358 356 356 357 359 361 361 359 359 360 360 360 360 361 361 361 361 363 363 361 358 357 356 356 355 355 353 354 354 353 352 350
343 343 343 344 345 345 347 353 356 358 357 356 356 358 360 362 362 362 362 361 359 360 361 362 361 361 359 358 358 357 356 354 355 355 353 351 349 342 342 337 338 343 348
347 345 345 344 343 343 344 345 350 355 357 359 360 362 363 364 363 361 361 361 361 363 360 360 357 355 354 354 352 349 346 345 348 348 346 339 334 332 332 333 336 338 341
338 343 348 352 357 358 357 359 360 360 360 360 362 362 362 360 360 358 359 359 358 359 356 350 350 346 339 333 332 333 334 334 333 333 333 332 331 332 333 330 331 331 332
349 348 348 355 360 362 361 360 359 358 358 361 360 360 361 360 359 358 357 354 347 342 338 335 332 331 332 333 334 332 332 332 332 332 333 331 330 329 329 330 330 330 331
347 351 352 353 358 357 358 360 362 355 356 353 349 349 351 353 349 342 340 338 336 332 330 330 330 330 330 330 330 331 331 332 333 333 332 330 329 329 327 329 328 329 328
344 347 348 349 351 353 354 357 358 354 348 344 340 338 336 338 336 335 334 333 333 333 333 333 333 333 333 333 334 334 334 333 333 333 332 331 330 329 327 327 326 327 325
346 345 345 347 347 349 352 354 351 346 342 340 337 336 335 334 333 332 332 332 331 332 333 332 333 333 334 333 333 334 334 333 332 332 334 334 333 329 327 329 325 324 329
340 343 344 344 345 346 347 348 344 340 338 336 335 333 332 332 330 331 329 329 329 329 330 330 329 330 332 332 332 332 333 334 334 332 333 333 333 331 328 330 330 328 328
339 340 340 342 341 342 341 338 337 335 334 333 332 330 328 327 326 326 326 326 326 326 327 326 326 326 327 328 330 332 332 332 332 334 333 333 333 333 330 330 330 329 328
339 338 338 339 338 338 337 335 333 331 330 329 328 326 325 324 323 323 323 322 322 322 323 324 325 326 326 326 327 329 330 330 331 332 332 333 332 333 333 332 331 330 329
336 334 335 335 333 332 329 328 326 326 324 321 320 319 318 318 319 319 319 319 319 319 319 318 319 319 321 323 325 326 327 330 329 331 331 331 331 330 332 332 331 330 328
328 325 324 324 324 323 321 319 317 316 315 314 314 313 312 312 312 312 312 312 313 312 313 313 314 315 316 317 320 322 325 327 329 329 330 329 329 329 329 329 329 328 327

GFSGL_850_thetae_042.txt.gz
Theta_e
346 346 345 346 345 344 345 345 345 342 340 338 341 344 346 346 347 347 348 346 343 341 340 341 341 340 336 341 340 338 338 339 339 333 333 332 331 330 331 332 335 336 335
347 347 346 346 345 344 345 346 346 343 341 338 339 340 342 345 347 348 348 348 347 346 343 340 338 341 338 333 333 332 334 334 335 333 330 330 331 332 333 332 330 331 334
347 347 346 346 345 345 345 346 346 346 342 340 339 338 338 341 346 348 348 349 349 349 348 348 346 342 338 338 338 335 329 327 327 328 327 327 327 329 330 331 332 332 331
347 347 346 346 346 346 346 346 346 346 345 342 339 338 335 338 342 344 345 348 350 350 349 348 348 346 342 337 334 334 335 336 338 340 337 335 334 332 332 332 332 332 333
347 347 347 347 346 346 346 346 346 346 346 344 341 337 337 336 336 339 340 341 345 348 349 348 346 343 340 340 341 335 334 333 334 335 335 335 333 334 335 337 340 339 338
347 347 347 347 347 347 346 346 346 345 345 345 343 338 334 334 333 332 335 337 338 340 340 340 342 342 341 342 343 344 346 347 348 347 346 345 344 343 342 340 340 341 341
347 347 347 347 347 346 346 345 344 344 344 343 342 338 335 331 330 331 332 334 336 336 337 337 337 337 340 341 342 344 346 349 351 352 352 351 350 350 350 350 350 349 348
346 346 347 347 347 347 346 345 343 343 342 342 341 338 336 333 331 331 332 333 334 333 333 334 336 335 336 338 339 340 342 345 349 351 354 353 355 356 357 356 356 355 353
346 346 346 347 348 348 347 346 344 343 341 341 341 340 338 337 336 335 336 336 336 335 336 336 337 338 340 341 344 348 350 352 354 354 355 355 355 355 355 356 355 353 353
346 346 347 348 348 348 348 348 348 348 347 347 346 346 347 347 349 350 351 351 349 348 348 348 349 351 353 355 356 358 359 357 356 356 355 354 354 354 354 354 353 354 354
346 347 347 348 348 349 349 350 350 350 350 351 352 353 354 354 355 355 356 357 357 357 357 358 358 359 359 358 356 356 356 356 357 358 358 360 359 357 356 355 355 356 357
348 348 348 349 349 349 350 350 351 352 352 353 354 354 354 355 355 356 357 358 359 359 360 360 361 359 357 357 357 357 359 361 361 361 361 359 359 358 358 358 356 356 354
349 349 349 350 350 350 351 351 351 352 352 353 354 354 355 355 355 356 357 359 360 361 361 361 359 360 362 364 363 363 363 365 361 362 360 359 357 355 356 353 351 350 347
352 352 352 353 354 354 354 353 353 354 354 354 355 356 355 355 355 356 359 360 360 360 358 358 360 361 360 361 363 364 362 360 358 356 354 354 354 351 348 346 340 335 332
350 352 354 355 355 356 356 355 355 356 356 356 357 357 357 356 355 360 360 358 357 359 359 359 361 362 362 362 362 359 355 355 355 353 351 350 344 341 335 333 332 332 331
348 346 345 344 345 347 348 349 351 351 354 357 359 359 359 360 361 360 359 358 361 361 359 361 363 361 358 356 353 352 350 347 342 341 339 335 333 332 332 331 330 329 329
339 344 347 347 345 345 346 349 351 350 356 359 359 359 362 365 362 356 354 357 361 360 361 361 359 356 351 349 342 335 332 333 332 331 332 332 332 331 330 330 330 328 328
338 338 341 349 354 355 356 357 358 359 359 363 364 364 363 361 357 356 354 353 356 356 352 347 346 342 335 332 332 333 332 332 331 331 332 332 332 331 331 331 328 327 327
346 349 349 351 357 360 361 360 359 358 355 353 352 353 353 354 353 354 353 348 341 338 338 335 331 330 330 330 330 331 332 333 333 333 333 332 332 332 332 329 328 327 325
345 348 350 351 356 359 360 360 359 357 352 348 348 348 346 342 342 341 341 341 340 335 333 332 332 332 333 333 333 333 334 334 334 333 332 331 332 332 332 328 328 326 325
344 344 344 346 348 354 357 354 354 352 349 344 340 338 337 336 335 335 335 333 332 331 332 332 331 331 332 332 332 332 333 333 334 333 334 332 333 333 332 329 329 328 327
340 339 341 342 344 347 348 350 348 345 342 340 337 336 334 334 333 332 331 330 329 329 328 328 327 327 326 327 328 329 331 332 332 332 332 331 335 332 332 333 329 330 328
339 338 339 337 340 344 345 343 341 339 338 336 335 333 331 330 329 327 327 325 325 324 324 324 325 325 325 325 325 325 326 327 328 329 330 330 331 332 332 332 330 330 329
339 336 339 337 336 339 339 338 336 334 333 332 331 330 328 326 325 324 324 323 323 322 321 320 320 320 320 321 323 323 325 325 325 327 328 329 330 330 330 331 331 331 330
339 337 336 337 335 336 333 333 331 327 325 323 323 322 321 320 319 319 319 319 318 317 316 315 314 314 314 315 315 317 317 321 324 326 329 329 330 329 330 330 330 331 330
336 334 334 333 332 328 326 323 321 319 318 317 317 316 314 312 311 310 310 309 309 310 310 310 310 309 308 308 309 310 312 315 317 322 325 328 329 329 329 328 328 329 329

GFSGL_850_thetae_045.txt.gz
Theta_e
342 342 342 343 343 343 344 345 343 344 344 340 337 337 343 343 345 346 347 347 347 345 343 340 342 343 342 339 337 340 339 339 339 338 334 330 330 331 332 332 331 330 331
345 343 343 344 344 344 345 345 344 344 345 342 340 336 341 342 344 346 347 347 347 346 343 343 341 339 339 341 340 334 332 333 333 328 327 327 326 327 328 329 330 331 332
346 346 346 344 344 345 345 346 344 344 345 345 341 338 337 339 342 345 346 347 346 346 346 347 346 346 344 341 337 337 337 336 336 334 331 332 331 333 332 332 333 333 332
346 346 347 347 346 346 345 345 345 345 345 346 341 338 337 335 336 339 344 345 345 346 346 347 347 347 345 343 343 340 339 338 337 335 334 337 337 333 332 332 333 333 335
346 346 346 347 347 347 346 346 345 345 345 346 345 341 338 337 333 333 337 340 342 344 345 345 345 343 344 344 345 344 345 345 345 348 349 348 348 348 347 347 347 347 347
345 346 346 346 346 347 346 346 346 345 346 346 346 346 342 335 333 330 330 333 334 336 337 339 341 341 341 341 343 345 348 348 346 348 351 352 350 350 352 351 352 351 351
345 346 346 346 346 346 346 346 346 346 346 346 346 346 345 340 333 331 331 332 332 332 331 331 331 332 332 333 335 337 340 344 347 348 348 348 348 350 352 354 355 355 354
345 346 345 345 345 346 346 346 346 346 345 344 345 345 343 341 336 334 333 334 334 333 332 331 331 331 332 332 333 334 335 335 336 338 340 343 348 353 356 356 356 355 355
345 345 345 345 345 346 346 346 346 346 345 343 343 343 341 338 336 333 335 336 334 332 332 332 332 332 333 333 334 336 337 340 344 347 353 355 356 355 354 356 355 356 356
344 345 345 345 345 345 346 346 345 344 343 343 342 340 339 338 337 336 337 339 338 336 336 336 336 337 338 341 345 349 352 355 357 356 357 356 355 356 356 356 357 357 358
345 345 346 345 345 345 346 347 347 347 346 344 343 342 343 344 345 346 347 347 348 350 352 353 354 355 356 357 358 358 357 356 355 356 356 357 356 356 359 359 358 358 357
345 345 346 346 346 347 348 348 349 349 349 349 349 350 350 351 353 354 355 355 356 357 357 357 358 359 359 360 358 356 356 356 357 360 357 359 362 360 360 358 355 354 353
346 346 346 347 347 348 349 349 350 350 351 351 351 352 352 353 354 354 355 356 357 358 359 359 360 361 360 358 358 360 363 362 362 359 360 361 359 356 355 355 353 345 339
346 347 348 348 349 349 350 350 351 351 352 353 355 355 355 354 355 355 355 356 357 359 360 360 361 358 360 360 361 361 361 361 361 360 356 355 354 353 351 341 335 333 332
348 349 349 350 350 350 351 354 353 352 356 354 357 355 355 355 355 355 355 355 357 360 360 361 361 360 361 362 362 363 362 362 357 353 353 352 349 338 334 332 332 331 333
355 354 352 352 352 352 353 353 353 354 354 354 355 356 357 358 357 357 356 358 359 358 359 360 361 360 360 362 361 359 354 351 350 347 341 336 333 332 332 332 331 332 331
354 355 356 354 354 353 355 355 355 354 355 355 356 358 358 358 359 359 358 357 358 358 360 361 360 362 361 359 355 348 344 341 335 332 332 332 332 332 332 332 333 332 331
342 340 337 348 343 353 349 349 350 352 353 353 357 359 360 360 359 359 358 355 355 354 359 360 358 355 350 344 340 336 333 332 332 331 331 332 333 332 332 333 332 329 328
347 349 350 356 358 358 357 356 355 356 357 354 357 361 361 361 357 355 356 354 353 353 352 348 344 341 339 335 332 331 331 331 333 333 333 333 333 332 332 331 331 328 327
345 349 352 354 356 358 360 359 358 357 357 357 357 354 354 353 353 351 351 348 345 344 343 340 336 333 332 331 332 333 333 335 335 336 334 334 334 333 332 333 332 328 329
343 344 345 348 353 361 359 357 356 355 353 349 346 345 343 342 342 340 338 337 337 336 335 333 332 331 330 331 331 332 332 332 331 332 333 332 331 331 331 331 333 334 329
340 339 340 339 344 351 354 354 353 350 346 342 340 338 334 334 335 336 335 333 332 331 330 330 329 328 327 327 327 328 328 327 328 328 329 330 329 330 330 331 331 331 332
340 340 340 338 336 342 345 346 346 345 343 339 337 335 334 333 333 332 330 329 328 327 326 326 326 325 325 325 324 324 324 325 325 325 325 327 328 329 329 330 330 330 331
336 340 339 339 336 340 342 343 343 341 339 337 335 333 331 330 329 328 327 325 324 324 323 321 320 319 318 317 317 317 317 317 318 323 325 326 328 329 330 330 330 330 328
333 336 338 337 336 335 337 336 336 335 334 332 330 328 326 324 323 322 321 319 318 317 316 314 313 312 311 311 310 311 311 312 314 315 320 324 326 328 329 329 328 329 329
330 331 334 336 334 332 333 332 332 330 328 325 322 321 320 318 317 315 313 311 310 309 308 308 307 306 305 303 302 301 301 302 305 309 313 318 322 324 326 327 327 327 327

GFSGL_850_thetae_048.txt.gz
Theta_e
347 348 345 344 342 339 344 342 343 344 345 343 342 340 349 351 348 343 348 352 353 353 353 352 350 349 350 348 348 347 346 345 343 341 340 341 337 328 327 330 329 329 333
345 343 343 341 340 347 340 342 343 344 344 344 343 340 343 349 352 351 347 351 353 353 353 353 352 351 340 340 349 350 346 345 344 343 344 343 342 342 336 331 333 338 341
350 345 345 346 344 342 341 343 344 344 344 344 345 343 340 345 351 350 347 350 353 354 354 354 353 353 353 349 352 351 350 353 352 352 349 347 346 346 347 347 346 344 342
350 350 348 342 344 343 343 344 344 345 345 344 344 345 341 337 347 351 350 345 351 353 353 354 355 354 354 353 353 354 354 353 351 351 349 347 345 345 347 349 349 350 349
350 351 350 343 343 343 344 344 344 345 345 345 345 345 344 345 346 347 349 350 349 349 353 352 349 350 348 347 354 354 355 354 351 350 348 349 349 350 351 351 353 353 352
351 351 351 344 344 345 346 345 345 345 345 345 345 345 346 348 345 341 340 348 349 349 349 347 343 343 340 341 344 344 346 348 351 354 351 351 351 353 353 353 352 352 354
352 351 351 347 345 345 346 346 346 346 345 344 345 345 346 344 339 335 333 335 345 346 344 346 347 349 347 341 337 334 335 336 339 341 343 345 344 347 349 353 354 356 358
352 349 348 348 346 346 346 346 347 346 346 346 345 345 345 344 339 337 334 334 334 335 341 346 338 333 339 347 352 352 350 347 343 337 335 335 338 349 356 356 356 355 355
351 348 346 345 346 346 346 347 346 347 347 346 345 345 344 342 338 334 337 340 338 333 331 331 332 331 330 330 331 332 334 338 348 348 347 349 356 357 356 357 356 358 356
351 344 344 345 345 346 346 346 346 346 346 347 346 345 342 340 338 335 337 341 345 344 337 332 331 331 330 331 332 334 336 342 354 358 360 361 361 361 356 357 359 360 360
354 355 354 349 346 346 346 345 345 346 348 345 349 346 340 337 337 335 336 339 343 348 349 349 350 347 338 343 347 350 352 356 358 359 360 358 359 357 359 359 360 358 358
354 355 353 347 349 353 347 347 347 347 346 345 344 344 349 339 337 336 335 339 342 344 349 352 357 359 357 357 358 358 359 359 358 356 356 357 357 359 361 362 357 357 355
356 355 355 352 346 354 351 352 355 352 357 356 357 356 356 357 350 344 346 348 350 351 353 359 360 362 360 359 360 360 360 358 358 359 360 364 360 357 356 355 353 350 344
358 359 360 359 358 358 358 359 359 359 359 359 359 359 359 359 361 362 353 353 354 355 356 356 357 358 359 360 360 359 361 362 362 361 359 358 356 354 354 351 344 341 340
359 360 361 360 359 361 361 360 360 359 360 359 360 360 361 361 362 363 364 362 355 356 357 358 358 359 360 360 358 359 362 363 360 360 356 354 354 351 345 340 340 339 338
356 357 358 358 361 360 361 359 360 360 360 360 360 362 362 362 363 363 360 361 358 355 357 359 360 361 360 361 361 362 362 360 356 351 349 348 344 340 340 339 338 337 338
357 357 356 357 358 359 359 356 354 356 360 359 359 360 363 361 361 358 357 357 357 359 360 361 362 366 365 361 361 359 354 349 347 343 341 341 340 339 338 338 338 338 337
356 350 356 356 348 345 342 343 339 343 350 354 356 356 356 357 358 358 359 360 361 362 363 363 361 361 359 355 350 345 343 343 342 338 335 338 339 339 338 338 337 336 334
352 349 348 340 337 335 335 335 337 338 353 352 354 356 358 360 360 359 360 359 356 351 350 353 354 354 354 351 345 341 338 334 332 332 333 335 337 336 336 333 335 334 333
346 346 345 345 343 342 340 336 338 351 351 352 356 359 359 360 359 357 356 356 353 352 350 349 347 345 341 338 336 333 332 332 332 333 333 334 334 333 334 334 333 333 331
344 347 353 352 337 341 353 353 352 349 347 352 353 354 353 353 351 351 348 345 344 345 343 340 339 336 334 332 331 331 332 332 332 331 331 330 331 330 330 331 331 331 331
339 341 342 348 350 351 350 349 350 350 352 353 351 349 349 350 348 345 342 340 338 338 337 334 333 332 330 329 329 328 328 326 326 325 326 325 325 326 328 329 329 330 330
336 338 337 336 340 346 344 343 344 343 343 344 343 341 339 339 338 337 337 336 335 333 332 330 329 328 327 326 325 324 323 322 322 323 324 325 325 324 327 329 329 330 330
335 336 333 332 331 338 340 343 344 343 341 340 338 338 336 335 335 334 333 333 330 329 327 326 325 324 321 317 316 314 315 315 314 314 315 318 321 322 325 328 326 328 329
330 334 335 334 334 334 335 339 340 339 338 337 334 334 333 332 331 330 329 327 325 323 320 318 316 314 313 312 312 311 310 308 307 307 309 316 317 318 322 325 326 326 328
327 328 330 328 332 332 332 334 336 335 332 332 331 329 328 327 325 323 322 321 312 314 307 310 310 308 307 305 303 302 300 298 298 298 300 313 314 315 316 318 321 321 322

GFSGL_850_thetae_051.txt.gz
Theta_e
350 349 344 340 342 332 345 346 350 351 351 347 352 351 352 352 352 352 350 353 352 351 354 354 354 352 352 348 349 348 347 347 346 345 343 343 343 344 339 339 339 341 346
352 352 349 344 342 346 339 347 348 349 351 354 353 352 350 351 353 353 353 349 356 355 353 352 354 354 349 346 351 350 349 348 348 346 347 348 349 348 348 347 347 349 348
353 353 352 350 344 344 342 341 346 344 343 351 354 353 351 349 352 354 353 353 353 353 353 354 354 354 354 353 353 351 351 352 355 355 354 352 350 350 348 348 348 351 352
352 352 353 352 351 347 345 338 340 340 342 344 348 352 350 351 351 352 354 353 353 353 354 354 354 355 355 354 353 353 353 351 353 353 353 352 349 347 348 350 352 352 353
350 351 351 352 349 349 345 346 338 341 342 344 344 348 348 352 351 350 353 354 354 354 354 354 354 354 355 356 357 356 356 356 356 353 351 349 348 349 353 353 352 354 352
351 350 351 351 350 346 341 341 340 342 343 344 345 345 347 352 349 347 348 351 352 353 354 354 353 354 354 352 348 344 346 349 349 354 352 350 350 351 353 353 352 350 353
353 352 352 353 350 348 343 341 341 343 344 344 345 345 345 346 349 347 345 346 350 348 349 349 351 352 352 351 348 344 342 342 343 340 340 339 339 339 340 343 352 356 359
354 356 353 354 353 350 351 345 343 343 344 344 344 344 345 345 343 343 342 342 343 340 346 346 343 341 344 352 354 355 354 350 339 346 350 347 346 347 353 358 358 358 357
357 355 357 355 357 354 352 350 345 345 345 345 345 345 344 343 344 341 343 344 343 339 336 334 335 337 334 332 335 337 336 336 344 345 347 349 352 356 358 360 358 357 359
357 357 358 357 358 356 351 350 349 346 346 345 345 345 345 344 344 344 342 344 350 348 343 336 333 332 332 332 333 336 339 342 348 350 354 359 360 361 359 359 360 359 359
357 359 359 358 358 356 355 353 350 347 356 350 355 352 349 346 345 342 340 342 345 350 350 347 349 348 346 345 344 344 342 342 347 357 360 362 362 361 360 359 359 359 360
357 358 359 360 359 360 359 358 358 359 357 359 355 359 359 350 345 341 338 337 338 340 345 345 346 347 348 350 354 357 357 357 357 358 357 361 358 357 356 358 358 356 356
356 358 358 360 360 359 360 360 361 359 360 359 361 359 358 356 358 353 341 335 335 338 339 349 348 349 354 359 361 361 359 359 360 360 359 358 361 361 358 356 355 354 351
358 358 359 360 360 359 363 364 361 360 361 359 358 357 355 352 350 355 354 343 336 338 340 343 348 354 358 361 362 361 359 360 360 359 360 361 361 359 357 353 352 350 344
356 359 360 360 361 361 363 362 361 360 359 358 354 351 349 350 350 352 356 361 355 348 349 351 354 356 359 360 362 361 360 360 359 361 362 360 355 353 353 351 346 343 342
360 360 361 360 362 361 362 361 360 360 360 360 358 358 359 357 358 359 360 364 365 362 356 359 361 360 360 362 364 364 360 360 361 362 359 353 351 350 347 344 342 341 342
360 362 361 361 361 361 360 360 361 360 359 360 360 360 360 363 362 362 363 362 363 364 361 360 362 364 363 361 360 360 362 360 357 354 348 347 346 345 342 341 341 341 341
360 359 360 362 361 362 363 362 360 357 357 358 359 359 357 359 358 359 359 356 361 362 361 358 360 361 361 360 359 356 351 347 346 346 346 344 342 342 342 342 341 340 339
356 359 360 360 360 359 358 357 351 354 354 351 344 346 352 354 356 356 358 359 359 359 361 358 358 358 355 353 351 347 347 344 343 340 336 336 339 338 338 338 337 335 335
350 355 354 355 354 343 337 337 337 338 338 339 340 339 340 349 355 357 360 361 359 356 351 347 345 345 346 344 344 341 338 336 334 333 333 333 334 336 337 335 333 333 333
346 348 350 349 349 345 342 338 340 334 334 335 335 335 344 353 356 351 349 351 350 348 344 341 341 344 342 337 335 333 331 330 330 331 330 331 332 334 333 331 332 332 336
342 342 345 347 349 348 347 340 338 336 334 337 342 345 351 348 344 340 340 343 341 340 337 338 334 332 331 331 330 328 327 327 327 326 327 327 328 329 329 328 329 330 331
340 340 338 339 345 347 346 347 347 347 349 348 347 343 338 337 335 333 331 335 337 337 336 335 334 332 330 328 324 321 321 322 323 321 321 321 324 326 326 325 326 327 328
334 338 337 335 334 339 339 341 342 341 340 341 337 337 336 335 335 334 334 333 333 332 331 329 323 321 320 315 314 318 318 317 315 314 313 314 321 321 321 321 322 325 326
330 333 332 333 331 335 334 340 337 332 330 332 332 332 333 332 332 332 330 328 327 322 320 316 314 315 317 317 315 313 312 311 309 307 305 304 317 318 318 318 319 320 321
329 329 328 330 334 335 334 334 337 337 334 329 328 327 326 326 326 328 324 322 316 313 312 307 306 304 306 309 308 306 304 303 300 299 299 306 310 312 312 311 315 316 317

GFSGL_850_thetae_054.txt.gz
Theta_e
350 347 336 325 328 327 335 335 341 349 350 346 352 349 348 348 351 349 347 353 351 347 352 352 353 349 351 350 350 348 347 347 347 346 346 345 344 343 342 345 348 347 347
352 351 347 337 327 325 326 335 340 344 348 348 346 351 351 349 350 350 347 350 354 354 348 354 355 354 343 345 350 351 353 351 349 348 342 340 348 351 349 349 347 348 350
356 354 353 348 342 334 326 327 339 339 342 346 349 345 348 345 346 349 349 344 351 353 355 350 349 349 350 351 345 348 346 350 353 354 357 357 352 350 350 348 347 350 353
356 355 354 353 349 341 340 330 335 337 337 342 344 344 344 343 341 346 351 351 347 350 352 351 351 351 350 350 348 347 350 348 349 352 351 353 352 351 351 354 355 353 351
353 354 355 355 353 352 347 343 334 333 333 337 340 344 344 344 343 342 345 351 351 348 349 352 352 352 352 352 353 352 353 356 356 357 358 357 353 349 347 347 347 352 344
352 353 353 355 356 353 351 350 346 337 335 336 339 342 346 345 345 349 347 345 352 352 350 346 353 355 355 353 351 352 347 352 353 353 350 345 341 341 339 339 342 343 348
352 353 352 354 356 354 354 352 352 349 338 334 336 340 344 345 345 349 349 349 347 347 352 351 349 349 351 350 349 348 348 346 343 342 343 341 341 344 345 346 351 355 357
353 353 353 353 354 355 354 355 353 352 345 334 335 339 343 345 345 345 348 348 347 345 345 348 348 345 346 353 355 356 355 353 351 351 353 349 351 346 350 353 355 356 358
356 353 355 352 352 353 353 352 352 352 349 340 337 340 342 344 344 344 345 348 348 344 341 341 346 351 343 337 341 349 352 351 348 344 345 346 350 352 351 356 358 361 359
355 357 355 355 353 353 352 351 351 350 344 340 341 341 343 343 343 344 344 346 347 346 343 339 337 336 336 337 337 336 335 332 335 338 341 344 347 355 359 362 360 359 357
357 357 358 358 355 357 356 355 354 354 356 352 348 347 347 344 343 343 344 344 345 345 345 342 338 334 337 343 345 346 346 348 351 353 354 352 356 358 359 359 356 357 358
360 358 360 359 360 359 360 359 359 358 359 360 356 358 357 353 346 344 344 344 344 345 347 350 348 346 347 346 346 347 349 353 357 358 357 357 358 361 360 358 359 357 356
355 360 358 361 361 362 361 362 361 360 361 360 361 360 360 361 355 351 349 348 347 347 347 347 345 345 349 349 349 351 355 358 361 360 359 359 361 358 358 359 357 355 353
357 358 358 361 363 362 361 362 361 361 360 362 362 362 361 361 362 361 357 353 348 348 347 345 346 345 346 346 347 349 356 359 361 359 359 360 359 361 361 355 353 352 349
359 358 359 360 363 363 361 364 361 362 360 360 362 360 363 361 357 359 359 355 351 351 348 345 341 343 347 350 351 354 357 359 360 360 360 359 360 361 354 352 350 347 344
362 361 361 360 363 362 361 364 362 361 362 363 359 362 359 359 357 355 349 350 350 354 360 360 352 347 349 351 356 359 359 358 359 358 361 359 359 352 351 349 346 344 341
364 362 361 361 362 362 362 363 363 364 362 360 361 360 357 354 351 350 354 351 352 359 362 360 357 361 361 362 361 359 358 358 358 359 358 351 348 348 347 344 342 342 342
361 361 361 361 362 362 363 362 362 362 362 360 359 358 357 357 358 360 360 360 359 361 358 362 363 360 363 361 358 358 359 359 356 352 351 348 347 345 343 343 343 342 342
360 358 361 363 361 363 363 361 360 360 359 359 359 358 358 359 359 359 359 357 355 355 348 342 351 360 358 357 358 357 354 351 350 348 346 345 342 340 341 341 341 339 337
355 356 358 360 359 358 362 361 361 359 358 357 352 350 352 352 347 351 354 352 351 352 351 344 352 354 353 351 350 349 348 347 347 344 340 337 334 335 334 335 334 334 334
348 351 354 356 357 357 358 359 355 351 352 351 347 345 344 341 341 346 346 343 341 337 344 343 345 347 345 345 343 341 339 337 335 333 332 332 332 332 333 331 332 332 331
342 347 348 346 344 343 343 346 343 344 340 337 337 340 343 347 348 348 344 340 337 339 342 339 337 334 335 334 333 331 331 331 330 329 329 330 329 329 330 330 328 324 328
339 338 345 346 346 344 346 349 345 341 341 341 342 342 343 344 345 345 344 342 341 339 339 335 335 333 331 330 330 329 328 328 327 325 324 323 324 325 326 326 325 323 325
337 335 335 337 343 343 345 345 343 342 342 342 344 342 340 341 340 339 341 339 336 334 332 331 330 328 330 333 330 325 324 322 319 316 314 315 321 321 321 320 321 321 321
330 334 333 330 333 336 332 335 337 335 342 339 336 334 333 332 332 333 332 329 328 325 326 325 325 325 325 322 320 319 316 314 311 308 305 304 314 317 317 318 318 318 319
327 324 332 331 331 329 329 325 325 326 329 329 331 331 329 329 329 327 325 320 324 318 316 316 321 319 316 315 312 309 309 307 304 301 300 304 308 309 310 310 307 312 312

GFSGL_850_thetae_057.txt.gz
Theta_e
345 341 331 334 334 332 342 342 343 341 344 345 348 349 348 346 339 339 346 345 348 347 350 346 351 347 345 349 349 348 347 346 345 339 341 343 344 345 344 344 348 348 347
346 346 342 329 331 331 330 340 340 344 342 348 350 348 349 348 347 340 339 344 352 353 351 349 351 354 351 348 351 351 350 350 350 350 348 347 352 344 347 348 349 351 350
349 348 347 345 330 328 328 328 333 333 338 350 354 349 349 349 345 338 337 338 347 351 352 353 347 353 354 349 345 348 350 351 351 349 349 350 344 350 352 353 354 353 351
352 351 349 348 346 333 325 326 327 327 331 343 350 348 345 346 345 341 338 335 339 348 347 347 348 347 348 348 347 346 344 345 345 347 348 347 351 352 354 352 343 337 334
354 353 352 350 350 348 338 328 326 326 326 330 335 346 344 341 338 340 341 336 336 342 341 346 347 348 348 348 349 349 348 348 349 354 355 355 355 355 346 339 339 340 340
354 355 354 354 352 351 348 340 333 328 326 327 332 337 344 343 341 340 342 342 337 336 339 340 339 344 348 350 352 351 348 347 346 351 353 351 339 338 341 346 343 348 351
353 355 355 354 354 353 352 349 344 340 336 333 332 332 335 339 339 338 341 343 343 342 339 338 339 341 342 345 346 348 347 349 349 348 347 341 344 347 345 346 349 351 354
354 354 354 354 353 353 353 352 352 349 345 342 339 336 332 332 336 337 340 344 345 346 346 343 340 338 337 339 342 353 353 352 352 351 351 350 351 346 349 350 351 354 357
354 353 353 352 353 353 353 352 352 352 350 348 346 343 339 333 334 337 341 344 349 349 347 346 344 340 336 339 343 343 349 345 344 346 349 350 347 343 347 351 360 360 359
356 354 353 352 352 352 351 352 352 352 351 351 349 346 343 335 332 336 340 343 345 347 347 346 345 344 341 339 339 337 336 332 333 335 340 344 347 350 351 353 358 361 358
353 357 354 353 353 352 352 352 352 351 351 351 350 348 346 340 337 338 340 343 344 344 345 344 343 343 342 340 339 339 339 343 347 348 350 354 356 356 356 357 359 359 358
359 358 357 354 354 355 353 352 352 352 352 352 352 351 347 344 341 341 342 344 343 345 344 342 342 341 343 342 341 345 346 347 349 350 352 357 359 357 358 359 361 358 359
348 358 358 359 357 356 356 354 354 354 354 353 354 353 351 348 346 343 342 343 345 347 345 345 345 346 349 353 351 350 349 349 349 351 354 359 359 357 359 359 360 360 353
356 350 360 358 359 359 359 357 356 356 356 356 356 356 356 356 355 349 347 347 348 350 352 352 352 352 351 350 350 347 345 345 349 354 357 359 359 359 358 360 355 352 351
356 356 354 362 359 360 361 360 360 359 358 357 358 358 360 359 355 354 349 347 349 351 352 354 356 355 353 351 348 348 349 348 352 356 358 358 356 360 358 354 351 351 348
353 358 360 357 361 360 362 362 362 362 361 360 359 359 358 359 359 358 359 357 356 357 355 354 354 354 352 349 348 347 347 351 353 357 356 357 356 356 353 351 350 347 344
354 351 358 361 362 361 362 362 362 363 364 362 360 361 360 360 360 362 362 358 353 356 358 354 354 356 358 358 354 350 351 354 358 357 355 356 356 351 349 347 346 343 341
359 361 364 363 363 362 362 362 361 360 360 365 361 364 361 361 362 360 360 355 355 356 355 356 358 359 357 358 359 358 358 357 356 356 357 356 351 349 346 346 343 343 342
358 359 359 363 363 361 361 361 361 360 361 362 362 362 361 361 360 358 355 356 355 355 355 355 355 353 350 349 350 352 352 352 353 355 353 350 347 346 346 343 342 342 341
349 354 356 358 358 358 357 361 363 362 361 362 363 361 358 357 358 357 356 354 354 354 355 353 351 347 343 344 340 343 346 348 348 348 347 346 346 343 339 338 338 336 334
349 348 352 358 358 356 355 356 360 360 360 360 357 356 355 356 356 355 354 353 353 353 352 350 348 343 342 338 336 336 335 344 344 345 341 338 336 333 332 331 331 332 331
344 348 350 352 353 354 355 357 355 355 353 352 348 344 342 343 345 346 350 351 348 347 345 342 339 335 335 333 335 335 334 337 338 336 333 333 332 331 330 330 330 329 326
337 345 346 347 347 349 347 346 348 346 340 338 341 341 344 347 346 346 347 346 342 339 338 339 338 337 342 340 335 337 337 334 332 331 331 329 329 328 327 327 327 325 319
333 336 340 343 345 345 343 342 340 340 338 337 338 339 341 343 343 341 342 342 340 338 337 337 338 340 340 337 335 334 331 329 328 327 323 323 323 323 322 321 320 321 321
333 332 333 334 338 339 340 340 340 339 338 338 339 338 336 335 334 334 337 338 335 333 332 333 334 333 331 328 327 326 326 325 320 314 312 315 320 319 319 318 318 319 319
328 329 328 329 332 332 331 330 331 329 329 329 329 329 327 326 326 327 325 326 326 327 324 324 324 322 320 319 315 312 311 307 303 303 305 306 307 309 313 313 313 312 311

GFSGL_850_thetae_060.txt.gz
Theta_e
343 342 340 335 335 338 342 345 347 347 350 348 348 349 349 347 345 341 340 340 343 344 346 344 334 335 344 347 349 348 347 346 346 343 343 342 342 341 343 347 349 350 351
344 343 343 338 333 333 335 343 345 347 346 345 346 347 349 348 346 343 335 342 343 346 345 347 342 345 340 343 348 349 349 347 347 348 346 343 343 346 346 350 351 352 352
345 345 344 344 338 331 333 335 343 344 346 344 344 345 349 349 346 344 338 334 339 345 349 349 348 348 349 348 344 347 349 350 351 351 349 348 343 340 347 349 350 352 340
346 346 346 345 345 342 330 331 333 342 343 345 346 345 348 348 346 346 340 334 332 337 345 350 351 352 347 347 348 345 344 344 343 345 346 343 341 347 347 346 344 339 340
347 347 347 347 346 346 346 336 328 331 339 341 338 345 351 351 348 346 344 338 336 332 335 341 345 346 348 347 346 344 345 345 345 345 344 346 346 337 338 339 343 346 344
349 349 348 348 348 348 348 347 344 328 329 330 335 332 344 348 351 347 342 336 337 336 333 337 338 338 342 345 348 347 346 348 349 347 345 343 336 338 340 350 349 347 350
350 351 351 351 350 350 350 349 348 346 333 328 329 329 331 340 345 345 342 340 339 338 337 335 334 339 339 339 339 344 348 348 348 348 349 346 346 344 349 352 354 349 348
351 352 353 353 352 352 352 351 350 349 346 337 329 328 328 329 332 333 335 340 339 339 339 338 335 335 336 338 340 340 339 340 347 351 351 348 349 345 353 352 348 348 354
351 352 353 355 354 354 353 352 351 351 348 345 339 336 330 328 329 332 334 338 339 338 340 340 340 340 339 340 341 340 338 334 333 337 339 339 343 349 345 347 350 354 355
349 351 353 353 355 355 353 353 352 352 351 348 347 344 342 340 337 335 335 335 337 338 340 341 342 343 343 343 343 340 338 331 332 333 336 339 342 346 350 354 355 354 357
337 350 352 354 353 355 354 353 352 352 352 351 349 348 345 344 344 341 339 338 337 337 340 341 341 341 343 342 343 343 340 339 339 339 344 346 348 350 355 356 356 356 358
339 339 345 347 351 352 355 354 353 353 352 352 352 351 349 346 343 341 339 339 334 336 338 339 342 342 342 343 344 344 343 342 344 345 347 348 348 351 357 358 357 357 358
337 344 346 343 354 354 355 355 354 353 353 353 353 352 351 350 348 342 339 337 336 340 340 341 341 342 344 344 344 344 345 347 349 350 349 348 348 352 358 358 359 357 356
336 333 345 352 355 356 355 355 354 353 353 353 353 352 353 352 351 347 343 342 342 345 346 346 346 347 347 348 349 349 349 348 349 349 347 348 350 355 357 358 359 358 354
337 336 338 349 352 355 357 356 356 355 355 354 354 353 353 353 352 350 349 345 341 341 344 347 349 351 352 353 354 354 353 352 351 348 348 351 355 354 354 355 357 354 350
341 338 338 349 350 352 357 358 358 357 357 357 356 356 356 356 355 355 355 353 353 354 353 351 352 351 353 354 355 356 355 353 352 351 350 353 354 354 355 355 356 351 349
341 345 343 345 353 360 357 360 359 359 359 359 359 358 358 358 359 358 358 358 358 357 358 359 359 357 353 353 355 356 356 356 354 351 351 356 354 355 356 354 350 346 344
335 336 345 350 355 359 360 360 360 360 360 360 361 361 360 361 361 360 360 360 359 358 356 359 355 357 356 356 357 357 355 355 355 355 352 351 352 354 354 349 348 345 343
338 343 349 354 360 361 359 360 361 361 361 361 362 362 358 362 359 362 360 360 358 357 356 356 353 354 356 357 357 356 358 356 352 346 336 339 349 348 347 345 344 343 342
339 342 346 349 356 361 358 359 360 361 361 360 359 360 361 358 360 363 358 356 359 357 357 356 353 356 356 354 353 350 350 346 340 336 336 335 343 345 347 345 343 341 340
338 341 344 346 349 356 357 353 356 357 358 358 356 358 360 360 361 359 357 352 357 356 355 354 352 351 353 350 346 344 339 337 337 336 336 341 345 345 344 338 335 333 332
339 343 345 345 344 347 354 357 354 354 354 357 358 357 355 359 359 357 354 353 354 353 353 351 351 351 349 344 340 338 338 338 338 338 337 341 343 341 336 332 331 331 330
337 339 343 344 346 348 350 354 355 354 354 355 355 353 348 350 348 349 349 348 348 348 349 351 349 346 343 339 335 336 336 335 335 337 338 335 333 331 330 330 329 327 326
331 337 340 345 346 349 350 350 351 350 349 346 345 343 343 343 341 341 343 345 346 344 342 341 340 339 338 337 336 334 334 334 334 334 332 330 329 328 328 326 324 324 321
328 332 339 340 340 340 341 340 340 338 338 337 338 340 341 342 340 339 339 341 341 338 337 336 336 335 334 334 333 332 332 331 330 328 328 323 323 324 323 322 321 319 319
325 326 325 331 330 328 326 326 328 333 335 335 337 339 338 338 336 337 335 335 333 331 334 330 328 327 327 329 329 327 328 328 326 322 316 314 316 319 319 317 316 316 317

GFSGL_850_thetae_063.txt.gz
Theta_e
342 343 342 339 333 335 342 345 346 345 344 346 346 347 348 346 344 342 341 342 342 335 335 340 338 340 339 341 346 348 347 345 343 342 342 341 342 343 344 343 348 350 351
343 343 343 342 340 332 333 342 345 345 344 346 350 348 348 348 348 346 345 343 342 341 341 342 344 340 336 337 344 346 348 348 348 345 344 345 344 344 341 341 349 349 352
343 343 343 342 342 342 332 332 342 345 344 346 346 347 346 346 348 348 347 343 341 342 344 345 346 344 344 344 342 342 345 347 349 348 348 347 344 341 337 344 339 339 336
344 344 344 343 343 343 343 332 330 335 341 344 346 346 345 345 345 347 347 345 338 338 339 341 346 348 348 347 347 349 347 344 344 344 342 340 338 338 345 336 333 338 339
346 345 345 344 344 344 343 344 335 328 331 341 344 345 345 345 344 345 346 346 345 340 337 335 337 345 349 349 348 345 347 346 345 345 343 341 337 336 337 341 346 347 340
347 347 347 347 346 345 345 345 345 343 329 329 335 342 343 344 345 344 347 347 345 344 340 339 335 335 337 343 344 344 345 347 346 345 346 344 339 338 340 347 349 351 351
347 348 348 347 347 347 347 346 346 346 346 343 330 329 336 341 341 338 343 347 345 343 339 338 339 337 335 337 338 338 339 341 344 348 348 342 343 341 347 347 348 350 346
346 347 349 349 349 349 348 348 348 348 348 347 347 342 328 327 330 336 333 339 346 344 341 339 339 339 339 338 337 340 340 339 339 341 341 344 348 344 346 349 349 345 348
343 346 350 351 350 351 351 350 350 351 350 350 349 348 346 335 326 325 327 330 337 335 333 337 338 338 339 340 343 342 338 334 334 337 336 338 338 339 341 344 345 350 354
344 345 346 352 353 352 352 352 353 353 353 352 351 349 348 345 338 330 326 326 330 332 331 331 334 336 338 340 344 345 344 334 333 333 336 338 339 341 345 346 349 354 354
344 340 344 345 353 355 354 353 353 354 354 354 353 352 350 345 344 339 335 336 329 330 332 331 329 333 336 338 340 344 342 339 340 341 343 342 341 344 346 348 352 353 357
332 339 340 340 342 351 352 353 353 353 354 354 354 353 352 350 345 343 343 342 341 341 338 334 329 331 333 337 340 341 342 344 345 344 345 342 342 345 346 349 351 355 355
321 328 337 334 344 343 343 349 345 350 352 353 354 354 353 352 350 348 345 344 344 345 342 341 333 331 334 338 341 342 344 345 345 345 344 343 345 347 347 349 351 354 354
321 324 329 334 334 345 349 351 353 354 354 353 354 354 354 353 351 351 350 349 346 344 343 341 338 337 337 340 343 344 346 346 346 346 347 349 349 348 345 350 351 354 355
322 323 321 330 335 339 347 348 350 354 354 354 354 355 354 353 352 352 352 351 350 346 342 345 345 344 343 344 344 345 347 351 351 349 351 352 349 347 351 353 355 353 353
325 321 323 325 336 335 340 344 347 348 352 355 355 355 355 354 354 353 353 353 354 353 353 351 347 345 343 343 344 346 348 353 354 354 354 352 350 349 354 355 352 353 352
326 327 322 329 325 328 333 345 348 347 350 353 355 355 355 355 355 355 355 355 356 357 357 356 355 352 346 343 345 347 349 352 354 356 356 355 352 349 357 352 352 353 353
327 332 324 331 334 332 330 333 338 338 346 356 355 356 356 356 357 357 356 355 357 359 359 359 357 353 352 353 354 354 352 353 355 356 356 354 350 356 352 349 348 350 350
330 330 327 328 330 330 338 349 354 353 353 357 359 358 358 358 358 359 356 355 356 359 359 359 356 354 352 355 355 355 353 351 353 354 353 350 352 349 344 342 343 346 347
328 328 328 330 332 332 345 349 354 360 358 359 359 358 359 359 360 360 359 355 357 358 359 357 357 355 350 350 350 349 349 352 352 353 351 352 345 338 338 342 344 346 346
328 330 330 331 331 331 329 342 351 358 360 358 358 360 359 360 358 356 357 358 356 356 356 356 358 356 354 354 353 350 350 349 350 350 350 347 338 334 339 344 344 344 340
326 327 329 328 335 335 341 346 348 356 358 356 356 358 357 357 356 355 357 361 357 356 355 354 355 354 351 349 348 348 349 348 345 341 338 338 337 340 343 343 343 340 337
324 326 329 329 340 343 343 344 343 345 354 356 353 351 352 354 355 354 356 358 356 355 354 351 348 348 349 348 347 347 346 341 339 337 337 339 341 341 341 338 334 332 331
326 328 331 331 337 338 339 343 345 345 351 354 355 354 351 352 351 351 349 348 349 348 347 347 348 348 347 346 344 343 340 336 336 336 336 336 335 333 332 332 330 329 328
323 324 326 330 333 339 341 343 346 347 348 350 352 351 351 351 349 347 346 344 345 342 341 341 342 342 342 340 340 336 334 333 333 333 333 332 329 328 328 327 326 325 323
317 318 319 318 320 331 338 340 340 342 342 342 343 343 345 343 343 342 340 340 338 336 336 334 332 332 329 331 331 330 326 325 326 327 324 322 322 322 322 321 320 319 318

GFSGL_850_thetae_066.txt.gz
Theta_e
341 341 341 341 338 337 336 340 341 345 344 343 344 346 346 346 343 343 341 340 341 342 337 337 340 341 342 341 340 343 346 348 347 344 343 341 342 343 341 338 338 349 348
341 341 341 342 341 337 335 334 340 344 345 343 344 345 346 347 347 347 346 345 343 342 342 338 336 337 337 338 337 339 344 345 347 346 345 343 343 343 338 336 344 341 337
341 341 341 342 342 341 337 332 332 338 343 344 343 345 348 348 347 347 348 348 346 341 342 343 345 345 346 341 343 343 343 343 345 345 344 345 342 337 335 338 336 331 335
343 343 342 342 342 342 342 340 333 332 337 342 342 343 344 346 345 345 344 348 347 344 337 340 343 345 346 345 346 346 347 348 349 346 343 341 340 338 338 337 333 337 333
344 344 344 343 343 343 342 342 342 337 331 333 340 341 342 343 342 343 343 345 345 345 344 338 336 336 339 346 348 348 348 346 345 345 343 342 339 339 340 342 344 342 334
344 345 345 345 345 344 343 343 343 342 341 332 331 334 337 341 342 342 340 342 345 346 345 344 344 341 339 336 338 343 345 344 343 344 343 341 340 342 340 348 347 346 344
343 345 346 346 346 346 346 345 344 344 343 343 337 329 329 332 336 339 340 342 342 341 344 343 341 341 340 341 338 337 339 339 339 341 340 341 339 338 347 348 346 345 343
337 340 345 346 346 347 347 347 347 346 345 345 344 344 337 329 328 330 335 337 338 336 332 335 341 342 340 340 341 341 339 336 339 340 340 338 336 338 347 347 343 341 342
342 342 345 347 348 348 348 348 348 348 347 347 347 346 346 346 344 337 329 330 335 333 332 327 328 333 332 336 340 340 341 336 335 336 336 335 336 337 341 342 342 345 346
342 345 344 346 349 350 350 350 349 349 350 350 350 349 349 349 349 347 346 341 329 327 327 326 324 324 326 329 333 337 341 335 336 336 336 336 338 339 342 344 343 344 349
322 338 344 342 346 347 348 349 351 351 351 351 351 352 352 352 351 348 346 347 345 334 326 324 324 324 325 327 329 333 337 338 340 342 341 341 342 342 343 343 344 347 349
318 317 324 339 339 341 350 350 352 352 352 353 352 352 353 352 352 352 349 344 345 343 334 330 331 329 328 329 329 330 334 338 342 344 344 342 340 339 338 342 346 348 349
315 315 318 322 333 338 343 351 350 352 353 351 352 350 351 352 352 352 352 350 344 345 343 339 338 338 337 335 332 329 333 337 341 344 344 341 338 340 342 346 348 347 349
311 317 316 317 322 332 338 344 345 342 345 350 349 350 352 352 353 352 352 352 350 349 345 343 342 342 341 337 335 332 333 336 340 343 344 343 342 344 344 348 348 345 350
314 319 321 318 318 322 333 342 350 348 346 350 351 351 352 352 353 353 352 353 351 351 350 348 345 342 340 339 336 333 334 337 342 343 344 345 347 347 348 350 348 347 351
320 320 321 322 319 319 321 328 340 350 351 352 351 353 353 352 354 354 352 352 352 352 352 352 351 350 346 340 336 334 334 336 338 342 344 348 350 351 351 350 348 352 351
320 322 323 325 324 321 321 321 323 331 346 350 349 352 351 351 353 354 354 353 353 353 353 354 354 353 352 349 343 339 337 337 339 342 345 348 352 354 355 353 350 353 355
323 325 326 327 328 327 324 325 323 328 330 337 344 346 347 354 354 355 355 355 354 354 354 355 356 356 355 354 351 348 342 341 343 344 348 352 351 353 353 354 352 349 353
321 324 326 328 328 329 326 325 324 325 327 333 344 343 350 352 355 356 356 355 354 355 356 355 355 357 356 355 354 353 351 351 351 351 351 351 352 354 355 354 352 349 350
320 323 324 325 327 328 327 324 324 325 328 340 338 342 353 352 352 355 356 356 356 356 356 355 354 355 358 356 355 353 352 352 353 352 352 350 350 350 352 352 349 349 347
317 319 323 323 325 327 328 325 326 325 327 334 342 352 348 354 352 351 357 358 358 358 357 357 355 355 356 356 356 355 351 350 350 348 348 347 348 348 347 348 343 336 337
315 317 320 322 325 327 328 326 326 326 325 324 331 348 354 356 353 355 356 358 357 359 358 357 357 357 355 354 353 355 354 353 352 349 349 347 346 346 345 343 339 337 341
315 317 317 318 322 323 322 325 326 330 329 346 349 346 352 355 354 354 356 356 356 355 355 357 357 358 355 353 353 353 351 348 347 347 347 344 341 340 338 337 338 341 340
313 314 317 320 322 325 326 327 328 337 339 346 349 350 350 355 355 354 352 351 353 353 353 353 353 354 353 350 349 349 348 348 346 344 342 340 338 336 338 340 339 337 334
313 316 318 319 323 326 327 330 333 337 340 342 346 345 347 350 352 352 350 350 351 351 351 350 350 350 347 345 345 345 344 343 342 339 337 336 335 337 337 335 333 331 330
309 310 313 317 320 322 326 328 330 333 338 340 342 344 345 346 346 348 348 348 346 344 343 343 344 342 340 337 338 338 338 336 335 334 334 332 333 330 327 327 327 326 324

GFSGL_850_thetae_069.txt.gz
Theta_e
345 344 342 340 340 340 339 339 337 341 344 342 343 344 346 345 342 344 342 339 343 342 339 338 340 340 342 342 341 340 340 343 349 349 343 343 341 341 341 337 334 340 337
344 345 343 341 340 341 340 338 336 341 341 343 342 343 345 345 346 346 344 344 344 341 340 342 336 336 337 339 338 337 337 339 343 349 349 346 342 342 337 335 335 335 331
344 344 344 343 341 341 341 339 337 339 342 343 343 343 343 345 347 346 347 346 347 346 343 340 340 341 340 343 345 341 345 342 342 343 347 348 339 339 335 335 333 332 335
344 344 344 343 342 341 341 341 340 336 337 341 343 343 343 345 347 347 347 346 346 347 345 341 340 341 344 345 345 345 346 346 349 347 351 351 350 343 337 343 346 348 337
346 345 343 344 343 341 341 341 342 341 338 334 337 342 343 343 344 346 345 344 344 347 345 344 337 334 335 338 343 347 349 349 353 352 352 351 351 351 349 350 350 352 339
344 344 346 344 344 344 343 342 342 342 342 341 336 334 339 343 340 340 341 341 342 343 345 345 344 344 343 339 336 336 338 342 346 351 351 350 351 348 350 349 350 352 350
342 340 343 345 344 345 345 344 344 343 343 342 342 341 335 333 339 340 338 340 340 338 339 342 344 344 341 339 338 340 339 337 338 339 339 337 338 336 339 337 349 352 350
345 341 340 342 344 345 345 345 345 345 345 345 344 343 342 341 332 331 334 338 340 339 337 337 334 333 338 339 341 340 339 339 338 338 335 333 335 337 339 344 344 341 339
336 342 340 343 342 344 345 346 346 346 346 346 346 345 344 343 344 341 331 330 335 336 334 333 333 333 329 329 337 339 337 336 338 338 337 334 334 336 339 341 346 349 347
323 330 345 344 345 347 346 347 346 347 347 348 348 347 347 346 346 345 345 343 336 331 329 328 327 329 328 328 327 330 332 331 334 336 337 337 339 339 339 340 342 349 348
312 326 321 334 340 343 346 348 349 349 349 349 349 349 349 349 349 349 348 347 347 346 345 341 329 323 323 324 325 325 325 327 330 333 337 340 342 342 341 340 341 343 349
312 311 319 320 332 339 343 345 347 348 348 350 351 351 351 351 351 351 351 350 349 349 348 347 342 333 327 325 324 324 325 326 330 334 344 347 346 347 346 342 340 341 343
310 312 311 319 322 320 327 337 340 347 351 349 351 352 351 352 351 352 352 351 351 351 348 346 344 341 337 333 332 334 331 331 334 334 338 340 343 343 342 342 341 342 344
310 310 311 311 319 321 322 327 334 343 347 352 351 352 351 352 352 351 352 351 352 352 351 348 344 343 342 340 340 340 342 341 337 333 332 335 338 340 340 341 343 344 348
312 311 311 311 312 321 321 321 326 337 345 347 349 351 351 352 353 350 351 351 352 352 352 351 349 347 343 344 344 344 343 340 338 332 332 335 337 339 340 341 344 345 351
314 313 313 312 312 319 323 319 319 320 327 343 350 348 350 349 351 352 352 352 352 352 352 352 351 351 350 348 345 344 342 339 334 332 332 335 338 341 343 345 348 351 353
317 317 319 316 314 321 323 325 321 318 320 323 331 344 349 349 351 352 352 353 352 352 352 351 352 352 352 351 351 350 350 349 344 336 335 336 337 340 343 347 353 354 354
313 315 317 319 320 322 324 326 328 322 320 319 325 323 335 347 348 350 351 353 353 353 353 352 352 353 353 353 353 353 352 352 351 346 341 339 340 342 344 347 349 353 353
310 313 314 316 319 321 324 327 328 329 321 319 320 324 322 334 344 346 349 353 353 353 353 352 353 354 354 354 355 355 355 354 354 354 351 350 349 348 348 351 352 352 353
307 310 314 315 316 318 322 325 327 328 325 323 320 321 326 321 342 345 347 350 354 353 354 353 353 354 355 355 354 355 356 356 354 354 353 351 352 353 351 351 350 350 350
307 309 311 315 316 318 321 323 325 326 326 326 325 321 322 332 330 342 347 347 349 353 355 355 354 354 355 355 355 354 354 355 356 355 354 352 353 352 352 350 349 348 348
307 307 310 312 315 316 317 321 323 325 327 330 330 324 323 324 327 337 348 345 344 352 355 356 357 357 356 357 358 357 357 355 354 355 356 354 352 351 350 348 348 347 347
307 308 309 311 313 315 317 319 322 324 326 328 331 327 326 328 335 346 350 350 349 349 348 353 353 355 356 356 357 356 357 356 354 354 355 355 353 351 349 348 347 344 341
305 308 309 311 312 314 315 317 319 321 322 324 329 331 332 336 345 347 351 355 355 352 353 353 351 353 353 353 354 353 351 354 352 352 351 350 349 347 344 341 339 339 338
304 307 309 310 310 314 316 317 320 323 325 328 328 327 332 336 339 344 346 350 351 351 350 349 350 351 351 352 351 349 351 351 349 349 348 347 344 341 339 338 337 338 338
301 303 307 310 310 312 315 318 320 323 324 326 329 331 334 336 340 341 344 344 347 348 347 346 347 347 346 346 346 347 349 348 346 344 343 341 340 338 337 338 335 333 331

GFSGL_850_thetae_072.txt.gz
Theta_e
347 347 346 346 342 340 340 346 349 349 350 351 344 346 351 350 346 343 350 351 350 350 348 350 348 348 347 347 349 349 349 349 347 347 350 352 348 347 341 338 345 347 347
351 350 346 345 348 349 341 340 343 348 349 351 343 343 344 352 351 343 345 350 350 350 351 350 350 348 342 344 349 350 349 350 349 349 349 351 354 351 346 335 350 349 348
350 350 345 345 345 348 346 341 341 341 342 350 352 345 342 346 352 346 345 351 353 352 352 351 351 351 350 347 351 349 349 351 351 351 351 350 351 353 353 350 350 352 350
350 350 350 346 344 348 348 342 341 341 340 338 348 352 348 350 350 347 347 348 353 352 354 353 351 351 352 352 351 352 352 351 349 351 350 350 350 351 352 351 349 349 351
348 350 350 350 350 348 349 349 342 341 342 339 337 345 350 352 350 352 353 353 353 352 355 354 352 348 345 348 352 352 353 353 350 350 350 350 350 350 352 348 349 348 349
344 345 349 351 352 351 347 343 346 346 341 342 342 339 340 345 347 348 350 354 354 353 353 353 347 346 339 337 335 334 340 350 353 352 350 350 351 352 350 348 349 347 348
344 344 343 347 350 354 353 351 345 343 345 343 342 342 342 339 338 343 345 345 350 352 353 352 353 349 347 344 341 338 337 337 336 336 344 345 346 348 349 352 349 351 349
342 344 345 343 346 349 351 352 352 351 350 350 348 343 343 343 342 340 334 336 343 347 350 352 351 348 350 351 346 349 344 342 337 337 337 335 336 340 341 350 351 348 350
317 335 341 344 345 345 348 348 349 352 352 351 351 350 345 344 344 343 343 340 337 334 344 346 349 350 346 339 338 348 349 349 346 344 337 336 337 335 336 342 346 345 343
312 314 328 336 343 342 344 346 348 349 349 351 353 352 351 346 345 345 344 343 345 344 337 335 334 338 342 340 336 335 338 339 346 346 347 344 335 337 337 337 340 345 342
311 312 314 323 329 339 342 343 346 350 349 349 349 353 353 351 348 346 346 345 346 347 347 344 342 341 332 328 329 331 332 336 340 343 345 344 344 348 352 348 340 342 342
311 311 311 312 314 322 331 340 343 345 347 350 350 351 354 353 352 348 348 348 347 348 348 348 348 347 346 345 341 331 327 327 336 337 338 339 340 342 344 347 350 349 345
313 311 311 311 312 314 320 322 325 343 345 347 349 351 354 356 355 353 350 350 350 349 350 351 351 351 351 350 349 344 341 337 335 337 338 339 339 339 341 344 348 352 353
313 314 311 311 312 312 318 328 331 332 344 347 349 349 351 355 355 357 356 354 351 351 351 351 351 350 350 350 349 347 345 340 340 342 342 340 341 340 341 345 348 348 349
312 314 316 317 313 314 321 326 330 328 338 341 347 350 352 353 354 355 356 357 356 353 352 352 352 351 352 351 350 349 349 346 339 345 346 346 344 342 342 344 346 347 347
310 312 314 317 319 320 322 322 325 323 318 323 323 336 348 351 353 353 354 352 352 353 353 351 353 354 353 353 352 350 350 349 350 350 349 348 346 344 343 344 346 347 348
307 309 312 314 318 321 321 322 323 325 324 318 319 320 324 332 346 348 348 350 351 352 353 352 354 354 355 355 355 353 352 350 350 350 349 349 347 346 345 345 345 348 350
305 307 308 312 314 317 319 320 322 324 327 329 331 331 332 329 324 331 343 348 349 352 352 352 352 355 356 356 357 357 355 356 355 353 353 352 350 349 348 348 348 349 350
305 306 309 310 313 314 317 318 319 321 324 328 331 332 329 329 325 325 326 344 348 349 350 351 352 352 354 355 355 355 356 357 358 357 357 356 354 353 351 351 349 349 351
303 305 306 308 310 313 315 317 318 319 321 324 327 329 331 333 335 338 326 335 345 346 350 351 350 352 352 353 354 354 355 356 356 356 356 355 355 355 356 355 355 354 355
302 304 305 306 309 311 313 315 317 319 319 321 325 328 330 332 336 341 337 324 340 344 346 350 347 349 353 355 354 354 355 355 356 356 356 356 356 356 356 356 359 360 361
302 303 305 306 308 309 310 314 318 318 319 320 322 326 328 331 332 334 338 339 323 337 348 352 353 354 356 355 355 355 356 356 356 355 355 356 355 355 358 359 357 359 357
301 303 304 305 306 309 310 311 313 316 318 320 322 324 327 330 332 335 338 340 338 337 343 347 344 338 345 341 342 350 354 355 356 356 355 354 353 354 354 354 353 350 352
301 302 304 305 305 306 309 311 313 315 316 318 321 324 326 328 331 333 335 336 330 336 344 352 349 347 342 340 338 340 352 353 349 354 353 353 352 354 353 354 352 351 350
298 299 301 302 304 306 308 309 310 312 314 318 319 321 326 327 331 334 337 335 334 342 345 346 351 351 348 348 347 346 346 347 349 348 349 350 350 348 347 347 345 344 344
297 298 298 299 300 302 304 306 309 311 313 315 318 321 321 322 323 327 327 328 335 338 343 345 347 350 351 349 348 348 347 347 348 348 349 349 348 346 343 344 343 342 340

GFSGL_850_thetae_075.txt.gz
Theta_e
355 354 355 355 355 355 352 352 351 350 352 352 355 354 353 354 352 351 350 352 351 348 347 350 351 345 350 347 346 347 348 349 348 347 350 352 356 352 355 336 349 349 349
353 354 354 355 355 355 355 353 353 352 351 350 353 353 355 353 354 352 352 349 352 351 351 350 350 349 345 343 351 349 349 351 351 350 350 349 351 353 354 349 352 351 352
351 353 354 354 355 354 354 355 353 352 350 350 353 352 353 353 354 355 352 352 353 352 352 352 351 352 351 350 350 348 350 351 352 353 352 351 351 351 353 354 352 352 351
350 351 353 354 354 354 354 354 354 353 345 348 350 353 354 352 352 354 352 351 354 354 354 352 352 352 352 352 347 351 348 348 351 350 349 350 350 350 352 353 352 348 349
349 351 352 353 353 351 354 354 354 354 352 344 344 351 352 352 350 351 352 353 352 354 355 353 351 351 352 353 353 352 351 353 351 350 349 349 350 351 353 355 350 349 350
345 347 351 352 352 354 354 355 356 356 354 352 347 346 348 348 347 348 350 352 351 351 351 353 353 352 351 343 336 340 355 354 350 354 353 352 350 352 351 351 351 349 346
342 342 345 348 351 352 353 353 353 354 355 354 352 352 348 343 344 344 347 348 352 355 351 351 353 349 350 346 338 337 336 334 334 333 336 339 344 344 344 339 347 350 351
329 342 346 345 346 348 349 351 352 353 352 352 354 354 352 351 346 344 341 340 345 344 350 353 351 349 349 354 352 354 350 341 334 334 335 333 334 334 337 345 348 348 352
312 317 337 344 347 347 347 350 351 350 351 353 353 352 353 352 352 350 347 344 343 339 335 335 345 351 351 344 351 354 351 350 346 346 345 344 343 342 341 343 347 345 343
318 312 312 321 338 342 343 348 350 350 354 354 353 353 352 352 353 352 349 349 348 346 346 342 333 332 336 343 342 344 347 344 349 343 346 347 346 346 346 346 342 348 346
320 319 315 312 313 321 332 338 343 347 349 349 351 348 351 353 353 351 351 351 349 349 349 348 347 342 337 335 336 341 339 342 348 346 344 341 340 344 347 350 349 347 345
318 317 315 314 313 312 316 319 330 340 346 348 348 348 349 351 353 353 353 352 349 350 349 349 348 347 346 345 344 343 343 342 344 346 345 342 339 340 341 341 343 345 348
317 317 317 314 314 315 312 312 317 329 332 335 346 345 346 350 351 355 354 353 351 351 349 349 350 350 350 350 349 349 349 349 348 346 346 344 340 337 336 338 339 342 347
313 314 315 316 316 316 319 313 314 325 332 335 344 345 349 347 349 354 355 355 354 352 351 350 349 349 350 351 352 352 351 351 350 349 347 345 342 338 338 339 340 340 343
311 311 313 315 317 318 320 322 322 323 329 333 336 341 344 349 353 352 351 355 355 355 354 354 352 351 350 351 352 352 352 352 350 348 348 347 345 343 342 341 342 341 343
308 309 311 312 314 317 319 322 322 322 321 317 322 321 327 332 343 349 349 351 350 351 352 353 354 354 354 354 354 354 354 353 351 351 350 348 347 347 347 347 345 343 343
306 307 308 309 311 314 316 319 323 324 324 322 317 316 318 317 318 321 326 345 351 350 351 352 353 355 354 355 355 355 355 353 351 351 350 352 351 350 349 349 348 346 345
303 304 306 306 308 310 313 316 318 321 323 324 324 325 328 330 330 321 330 326 334 347 349 349 353 354 354 356 356 355 356 356 355 353 353 353 351 351 351 350 349 348 346
302 303 304 305 307 308 311 315 317 318 320 321 322 324 324 329 331 331 328 329 331 339 345 348 347 351 354 354 356 356 355 355 354 358 358 356 356 354 353 352 351 350 349
301 301 302 304 304 306 308 311 313 316 317 319 320 321 323 327 330 332 332 329 335 330 338 348 351 350 350 353 355 355 357 357 353 354 354 354 354 355 354 353 353 353 353
301 301 301 302 303 305 306 308 312 314 316 318 319 320 322 324 328 331 333 337 340 336 336 347 351 354 353 353 354 353 353 355 355 354 354 354 355 356 356 356 356 354 352
299 300 301 302 302 304 305 306 308 311 314 316 318 320 320 321 323 326 329 332 334 337 340 337 343 349 349 353 354 354 355 355 355 354 354 355 355 356 356 355 355 355 353
299 300 301 301 302 303 304 305 306 308 310 313 315 316 319 321 322 323 327 330 333 333 338 344 339 341 335 340 349 352 352 351 341 347 351 352 354 354 355 355 355 354 353
297 297 298 299 300 302 304 305 306 307 308 311 313 314 316 319 321 322 324 329 334 335 337 339 344 344 337 345 345 344 343 350 346 339 341 340 350 349 350 353 352 353 352
296 295 296 297 298 299 301 302 304 305 307 309 311 312 315 319 321 322 325 328 331 334 334 333 333 340 339 340 343 349 346 344 340 342 343 344 348 351 352 352 351 349 348
295 295 294 295 296 297 298 299 300 302 305 307 309 310 312 316 318 321 325 328 327 331 333 332 331 333 339 342 343 349 350 345 346 348 349 348 346 345 345 346 347 347 345

GFSGL_850_thetae_078.txt.gz
Theta_e
353 355 354 351 349 343 344 344 348 349 348 350 344 343 349 350 347 346 344 352 347 341 343 348 347 344 346 351 345 345 347 348 348 348 349 351 351 349 349 350 343 340 349
355 355 354 355 353 353 348 345 346 341 343 351 347 350 349 350 351 347 342 353 349 347 340 347 349 348 338 347 350 350 350 350 351 349 348 347 343 350 351 352 351 350 351
355 354 354 354 354 356 355 352 351 351 343 339 342 349 346 349 348 350 348 343 348 350 348 349 347 346 345 339 338 347 346 348 348 351 351 354 353 350 350 352 350 352 350
350 353 355 354 355 354 353 354 353 352 352 347 344 347 347 347 348 349 349 348 344 350 352 349 351 351 349 347 346 345 347 349 352 354 352 349 350 351 350 350 352 352 346
347 348 349 350 353 355 354 353 353 353 353 351 347 345 350 349 352 348 348 346 346 346 350 353 350 352 352 351 350 348 349 347 349 348 349 350 350 352 355 355 354 351 351
343 345 342 341 347 350 351 352 353 353 353 354 352 347 344 347 349 351 348 349 349 347 347 347 353 351 353 352 350 342 350 352 352 352 354 354 353 351 351 352 351 350 347
342 341 343 345 337 339 351 353 352 353 353 353 353 353 350 347 344 344 348 349 350 351 351 350 348 351 352 351 348 345 339 333 341 342 341 332 329 328 333 333 331 333 336
323 328 339 344 345 348 350 352 353 352 352 353 355 355 353 352 349 345 345 345 347 347 347 354 353 350 347 349 355 355 354 352 346 341 340 335 333 335 339 339 337 339 345
319 314 321 334 342 345 345 349 349 350 351 352 351 352 353 354 354 353 350 347 345 343 342 340 340 349 346 339 341 348 354 355 353 350 345 345 344 344 346 347 346 346 344
321 318 315 314 316 332 341 344 346 348 350 351 351 352 352 352 352 352 353 352 352 349 347 344 342 341 338 343 352 344 340 337 345 350 351 349 347 345 345 348 344 345 345
320 318 316 315 314 314 315 326 338 341 343 347 349 350 352 352 353 353 352 352 352 352 351 350 348 345 345 345 344 339 335 331 333 337 340 340 342 342 341 339 338 343 344
317 317 317 315 314 314 314 314 313 315 326 338 342 346 348 348 348 350 350 352 353 353 352 351 351 353 351 350 348 346 345 344 342 341 345 349 350 348 347 345 341 341 344
313 313 312 312 313 313 313 316 316 314 314 317 332 337 338 342 346 345 349 349 351 351 352 351 350 348 350 353 350 349 348 347 346 344 345 347 347 348 347 341 335 339 338
311 312 313 313 311 311 313 315 318 321 317 316 327 333 339 342 347 352 351 350 351 351 352 354 353 352 351 348 348 349 350 350 350 349 349 350 350 350 350 348 345 338 334
309 309 310 311 312 313 315 316 318 320 322 322 323 331 335 337 341 344 349 350 349 350 352 352 353 354 354 354 351 349 350 350 350 351 351 351 351 350 350 349 346 342 340
306 307 308 308 310 310 312 313 315 318 321 323 323 321 319 322 326 324 323 325 324 335 345 351 352 354 354 354 354 353 351 351 352 353 352 351 351 351 349 349 348 346 345
304 305 305 306 307 308 309 310 313 314 317 319 324 325 324 323 318 317 326 326 322 322 325 341 348 348 350 351 354 355 356 356 355 354 354 354 353 352 351 351 349 347 350
303 303 303 304 305 306 307 309 310 312 315 317 316 321 323 324 325 325 330 330 325 322 321 324 337 347 349 350 353 351 356 357 357 357 355 354 353 352 354 355 354 352 351
303 303 302 302 303 304 304 305 306 308 311 314 317 319 319 321 322 323 325 329 331 331 327 330 331 334 340 345 350 352 350 351 357 358 357 356 355 355 354 354 353 352 352
302 303 302 302 302 303 304 304 306 307 307 312 314 315 319 319 320 322 325 327 330 331 332 329 327 332 345 348 346 349 352 351 352 353 354 353 353 353 353 353 353 351 352
300 300 300 301 301 302 303 303 304 304 307 309 311 314 317 319 320 322 323 327 330 335 336 336 338 345 342 345 351 352 352 352 353 352 351 353 353 352 351 352 352 351 351
300 300 300 300 300 301 301 302 303 303 304 306 308 309 312 315 316 319 322 322 325 329 331 335 335 336 339 340 348 351 349 350 351 351 351 352 350 350 351 352 353 353 354
297 297 297 297 298 299 299 300 302 303 304 304 305 306 308 311 314 316 319 323 323 320 324 328 332 334 333 339 341 348 349 348 347 349 349 347 348 347 347 348 351 352 350
298 296 295 295 296 296 296 297 299 301 302 304 306 306 307 308 310 312 314 317 322 323 324 330 334 334 335 335 337 342 343 345 341 340 341 339 337 343 344 347 347 349 350
298 297 296 295 295 294 295 295 296 297 299 300 303 304 305 307 309 311 313 318 321 323 324 327 329 333 335 335 335 334 338 338 341 340 338 338 343 345 344 346 346 347 348
298 297 297 296 295 294 293 294 294 294 295 297 298 301 303 306 308 309 311 314 317 320 322 326 329 331 334 334 333 331 329 329 337 337 343 344 346 346 347 347 347 348 349

GFSGL_850_thetae_081.txt.gz
Theta_e
340 340 341 343 344 343 344 349 349 348 347 346 341 341 341 347 349 346 345 345 343 340 339 343 341 341 343 349 346 342 345 348 347 348 349 350 350 349 347 348 349 347 349
343 342 342 345 344 342 342 340 348 349 348 347 343 341 344 346 348 347 343 342 350 348 343 342 345 343 339 342 348 344 349 349 349 349 348 346 343 337 340 348 350 351 349
349 347 347 346 347 345 344 343 341 344 343 341 346 347 348 347 346 351 351 343 351 350 345 341 342 343 341 339 340 347 347 349 348 348 347 347 344 343 347 349 350 352 352
342 345 348 348 348 346 346 352 350 346 348 342 338 341 339 342 347 350 346 347 343 344 349 347 347 345 345 344 339 338 337 338 345 344 349 351 351 346 351 355 355 355 354
343 339 344 350 349 348 348 349 350 353 350 349 347 345 345 348 346 345 346 344 345 344 344 350 349 349 350 350 349 343 341 339 339 345 342 348 349 355 354 352 352 351 351
339 343 343 342 335 338 344 346 350 351 352 352 349 351 346 345 343 346 345 347 347 346 345 345 346 350 351 350 350 352 349 345 341 349 350 350 351 353 352 338 334 335 332
342 342 340 341 340 336 338 341 346 349 351 353 352 352 349 348 344 342 349 352 351 349 348 347 345 345 346 347 346 349 350 348 344 336 334 334 333 330 330 330 332 336 333
320 325 336 340 343 342 341 337 344 345 348 352 352 352 352 353 353 349 345 347 348 349 349 350 349 347 351 349 349 352 352 352 352 351 351 349 341 335 342 344 345 344 340
321 319 317 324 333 340 343 345 345 345 347 350 352 352 352 354 353 354 353 346 345 345 346 347 347 347 346 347 348 347 346 343 341 340 339 338 338 338 340 345 346 347 343
321 318 316 315 315 316 322 335 341 341 344 347 349 350 351 351 350 351 351 352 350 348 347 345 345 344 342 342 343 342 341 334 335 336 337 336 337 342 345 345 343 343 341
319 318 316 315 314 314 315 317 318 322 327 337 342 345 347 349 350 351 351 351 351 349 349 351 351 349 348 345 345 344 343 343 343 342 340 339 337 338 338 338 339 340 337
313 313 312 312 312 312 313 313 314 315 315 316 318 327 337 340 345 347 348 348 349 351 350 349 350 352 351 350 349 351 350 349 348 347 345 343 343 344 345 345 345 345 345
310 310 310 310 310 311 311 311 311 313 314 316 317 317 323 332 335 340 343 342 348 347 349 349 350 350 352 352 351 352 352 351 350 350 349 347 346 347 347 347 348 348 349
307 307 308 308 309 310 311 312 314 315 317 320 323 323 324 333 341 345 344 345 350 351 349 349 349 350 350 353 354 353 351 350 351 350 350 349 349 348 348 348 349 350 349
305 306 306 307 307 307 308 309 310 313 317 319 321 322 323 322 327 327 330 334 338 340 340 345 346 348 349 350 351 352 352 352 351 348 348 348 349 349 349 350 351 350 350
304 305 305 305 306 306 306 307 308 308 309 313 317 319 321 322 323 322 323 321 319 318 319 322 324 329 344 348 350 352 352 352 351 352 352 351 349 350 350 350 350 350 349
302 304 304 305 305 305 305 305 306 308 308 309 310 313 317 320 323 324 324 324 322 324 325 321 320 321 323 333 346 350 351 351 350 352 353 353 352 351 352 352 351 350 350
300 301 302 303 304 304 304 304 304 305 306 308 308 308 310 314 319 322 323 324 324 325 329 329 325 324 323 322 324 328 342 345 348 352 353 353 354 354 354 354 353 351 352
301 301 301 301 301 302 302 302 303 303 304 305 306 307 308 310 315 318 320 322 322 322 324 327 328 328 328 327 328 332 340 342 345 350 351 351 350 350 351 352 352 353 353
299 299 300 300 300 300 300 301 301 302 302 303 304 305 306 308 314 316 319 321 321 320 322 327 329 331 333 333 331 329 334 340 343 345 347 348 348 349 351 352 353 353 352
298 298 298 298 298 299 300 300 300 301 301 302 303 304 304 305 306 310 314 318 319 322 324 328 336 338 338 339 343 343 341 340 343 346 346 349 348 350 350 350 350 350 348
299 299 298 298 297 297 297 298 298 298 299 300 301 303 304 304 304 306 308 311 315 318 322 323 322 327 333 337 336 335 336 336 338 346 348 347 348 348 349 349 349 349 348
300 299 298 297 297 297 296 296 296 296 296 297 299 300 302 304 305 305 306 307 309 314 319 323 325 326 325 325 328 336 335 329 335 342 344 349 347 346 345 346 342 342 341
300 300 299 299 296 296 296 295 295 295 294 294 295 297 299 301 303 304 305 307 308 309 312 316 319 321 322 324 329 335 340 338 335 335 337 340 344 344 341 340 338 339 337
300 300 298 298 297 296 295 295 294 294 293 293 294 295 296 296 299 301 303 305 305 309 311 314 317 320 323 324 325 327 336 338 337 335 334 331 332 335 342 340 338 339 342
301 300 299 298 296 295 295 294 294 294 292 292 293 294 294 294 295 297 299 301 304 305 308 311 314 316 319 322 326 328 330 333 334 333 332 329 325 329 337 342 341 340 343

GFSGL_850_thetae_084.txt.gz
Theta_e
339 339 339 339 343 338 342 344 347 347 346 348 347 347 339 342 346 346 345 338 337 336 337 337 340 340 341 345 348 346 346 346 347 348 349 348 348 348 345 339 342 350 351
341 339 340 338 340 340 341 341 347 347 347 347 346 344 340 342 347 347 344 344 342 339 335 338 340 342 342 341 346 346 346 348 348 347 347 347 346 343 343 345 344 349 350
344 341 342 341 342 343 344 344 345 344 347 348 346 345 341 342 344 346 345 343 340 347 347 345 339 341 342 343 341 339 344 344 344 348 348 347 346 343 342 347 350 351 352
341 344 344 343 343 344 345 343 342 342 341 343 341 338 342 345 348 347 346 347 348 343 348 347 338 336 338 339 337 336 338 339 339 339 340 343 343 342 346 351 352 352 352
341 338 340 339 343 343 344 345 346 346 346 345 345 343 341 345 344 348 347 349 347 346 345 341 346 340 338 340 346 346 345 343 339 336 335 338 338 335 343 352 352 348 336
340 343 341 339 340 341 342 342 344 345 346 347 346 346 350 346 345 347 349 346 344 345 346 344 343 345 348 346 345 350 351 350 344 341 333 335 342 345 345 341 333 331 331
340 341 341 339 339 340 339 336 339 341 344 347 348 347 349 348 349 346 345 347 348 350 351 349 348 346 344 345 348 349 346 345 349 350 349 348 346 340 341 336 336 341 343
329 338 341 341 341 339 339 337 339 335 342 344 345 347 349 349 347 347 347 345 346 350 351 349 350 349 348 347 348 350 346 348 351 352 352 349 348 344 342 338 342 342 340
321 320 325 331 338 337 335 341 341 340 340 344 344 344 345 347 349 348 347 348 347 346 346 347 348 347 346 348 351 349 344 343 343 344 344 340 339 339 341 340 340 338 337
320 319 318 317 318 324 331 328 331 335 340 341 342 344 345 345 347 349 351 350 349 349 347 343 344 345 345 345 345 345 346 342 341 340 340 339 340 341 343 346 347 349 347
319 318 317 315 315 315 315 316 317 317 318 328 338 337 341 344 345 347 349 349 350 350 349 348 348 348 348 349 349 350 348 346 346 346 345 344 345 345 343 342 341 343 342
312 311 311 311 311 311 311 312 312 313 314 316 317 316 317 325 333 336 338 343 346 346 347 348 348 349 350 349 348 350 351 351 350 351 351 349 348 346 345 346 346 345 345
308 308 308 309 309 309 310 310 311 311 312 313 315 317 318 319 331 337 343 344 345 343 347 350 349 346 348 349 349 349 350 352 352 352 351 351 349 348 349 348 347 347 347
305 305 305 306 307 307 308 308 309 310 312 313 314 316 318 319 320 327 333 335 333 336 339 342 344 347 347 347 348 348 348 349 350 351 351 351 351 350 349 349 349 349 349
304 304 305 305 305 306 306 306 307 307 308 309 310 312 315 315 317 319 322 326 328 328 330 334 336 337 338 342 341 343 347 348 349 350 351 351 350 350 349 348 347 348 349
302 303 304 304 305 305 305 306 306 306 306 307 307 308 309 312 315 317 319 321 322 322 324 326 324 319 318 321 323 324 328 343 348 350 351 351 352 352 352 352 351 350 349
300 300 301 302 302 303 304 304 305 305 305 306 306 307 307 307 308 310 313 317 321 322 322 321 320 320 320 321 321 322 322 321 324 331 345 347 346 346 352 352 352 351 351
300 301 301 301 302 302 302 303 303 304 304 305 305 306 307 307 308 308 308 311 315 320 323 323 323 323 323 325 326 325 325 326 328 334 337 339 343 345 348 350 350 350 350
299 299 300 300 300 300 301 301 302 302 303 303 304 305 306 306 307 308 308 311 314 316 319 321 322 322 322 322 324 327 329 331 332 335 341 344 344 346 349 349 349 348 345
299 299 299 299 299 299 299 299 299 300 301 301 302 302 303 304 306 307 307 307 308 312 316 318 319 319 324 329 334 334 334 338 342 341 339 339 340 345 349 348 348 348 348
300 300 299 299 299 299 298 298 298 299 299 300 301 301 301 301 302 303 305 306 306 307 309 315 316 319 322 324 324 326 336 340 341 342 342 340 341 350 348 345 347 347 348
300 300 300 300 299 298 297 297 297 297 298 298 299 300 300 300 299 300 302 303 305 305 307 307 310 315 318 320 322 324 325 330 335 336 337 335 339 340 340 346 345 345 348
301 301 300 298 298 297 296 296 297 296 295 296 296 297 297 297 298 298 298 300 303 304 305 306 307 309 313 316 318 322 324 328 331 336 338 339 336 337 336 342 345 343 343
301 301 300 299 299 298 297 296 295 295 295 295 294 293 293 293 293 295 295 296 298 300 303 304 304 306 308 311 314 317 321 322 323 329 334 333 338 335 334 333 336 341 342
302 302 301 300 300 298 298 296 295 295 294 293 293 292 292 293 292 292 292 294 294 296 297 300 303 304 306 310 312 316 319 322 325 327 330 333 334 335 334 332 328 329 338
302 302 300 301 301 299 298 296 295 295 294 293 292 291 290 290 290 290 290 291 292 293 295 297 299 302 303 305 308 312 314 317 320 323 325 327 329 331 331 330 327 324 327

GFSGL_850_thetae_087.txt.gz
Theta_e
345 344 341 341 345 344 344 346 344 344 346 346 347 346 347 348 341 340 343 340 337 338 336 336 337 336 335 341 345 347 346 344 345 346 347 348 347 346 345 342 340 340 349
345 341 341 341 342 344 342 342 345 345 346 345 347 348 347 341 340 345 345 346 345 338 338 337 337 337 339 339 342 344 345 345 345 346 347 346 346 345 345 344 344 348 349
344 343 340 342 342 340 340 342 340 342 345 345 346 345 344 341 340 343 346 343 343 342 343 345 339 340 339 342 342 342 341 340 342 344 344 344 346 346 345 342 341 345 353
340 343 341 341 343 342 341 342 344 343 345 346 345 346 346 345 341 343 345 345 345 344 342 344 345 344 341 340 340 340 339 338 339 339 339 339 339 339 338 337 335 346 351
339 340 342 343 342 342 343 343 343 345 341 342 344 347 346 342 343 346 347 346 345 343 346 346 344 343 345 341 341 340 343 346 346 347 345 341 334 335 339 342 345 343 339
339 341 338 338 337 340 339 341 342 342 343 343 343 344 345 347 347 344 344 347 349 346 344 344 345 344 343 345 347 345 345 347 349 349 349 348 347 346 338 338 339 335 332
338 339 341 341 340 340 339 340 340 340 339 340 344 345 344 345 346 346 346 345 345 348 346 345 348 348 348 347 345 344 346 347 348 348 346 348 348 345 348 347 346 342 337
340 340 340 340 340 338 337 338 340 339 337 336 339 342 343 344 344 345 346 346 346 343 344 347 351 349 348 348 348 349 349 348 349 347 345 349 349 345 345 345 347 344 339
328 332 334 337 340 339 338 339 338 339 338 336 338 338 340 342 343 343 342 343 344 345 344 344 344 344 346 346 347 346 342 343 344 343 343 342 342 341 341 343 344 345 343
320 320 319 322 325 329 333 332 335 336 339 339 339 340 340 340 341 342 343 345 345 344 345 348 347 347 347 345 345 347 347 345 344 344 344 344 343 343 343 343 343 343 344
318 318 317 316 315 316 317 317 322 330 329 326 326 328 327 329 336 340 341 343 344 344 346 348 348 349 348 348 349 348 348 349 349 350 350 350 348 346 343 343 346 346 345
312 311 311 311 311 311 312 312 313 313 317 321 314 316 317 320 330 333 338 338 340 343 345 345 345 346 346 347 347 347 348 348 348 350 351 351 349 347 345 347 347 347 348
307 307 308 308 308 309 309 310 310 311 311 311 312 313 315 319 318 328 332 337 339 340 340 342 341 342 344 346 347 346 346 347 349 349 348 350 349 349 349 349 350 349 348
304 304 305 305 306 306 307 307 307 308 309 310 310 311 311 312 314 318 319 327 333 335 337 336 337 339 340 340 340 341 342 342 336 339 346 347 348 348 349 350 350 349 349
303 303 304 304 304 305 305 305 306 306 306 306 307 307 308 308 309 310 311 313 316 320 327 331 333 332 333 335 336 333 327 328 328 324 327 343 348 349 350 350 350 350 352
300 301 302 303 303 304 304 304 304 304 305 305 305 305 306 307 307 307 308 308 309 311 314 317 319 320 321 323 324 322 319 320 321 322 324 323 326 335 345 348 349 346 346
299 300 301 301 301 302 302 303 303 303 303 304 304 304 304 305 305 306 307 307 308 308 309 310 312 315 319 321 321 321 321 320 323 324 325 328 326 334 337 335 339 343 344
299 300 300 300 300 300 300 301 301 301 302 302 302 303 303 304 304 305 305 306 306 307 308 309 310 311 314 318 320 321 321 321 322 324 327 329 331 336 343 345 346 345 346
299 299 299 299 299 300 300 300 300 300 301 301 302 302 302 303 303 304 304 304 305 305 307 307 308 310 313 316 318 319 321 322 325 328 327 332 337 335 334 338 342 345 347
299 299 299 299 300 300 299 299 299 299 299 300 300 301 301 302 302 303 303 303 303 304 304 305 306 307 308 311 315 317 320 324 327 330 333 336 341 343 342 340 340 345 344
300 300 300 300 300 299 298 298 298 298 299 299 299 299 299 300 300 301 301 301 301 302 302 303 304 304 306 307 308 314 317 320 321 324 327 332 337 340 341 338 338 336 339
300 300 300 300 299 299 298 297 297 297 297 298 299 299 299 299 299 298 298 299 299 299 299 299 300 302 304 305 306 307 310 315 317 321 327 331 332 337 338 336 336 333 338
300 300 300 299 299 299 298 297 296 295 296 297 297 298 297 297 297 297 297 297 297 298 298 298 298 299 299 303 304 305 308 313 316 319 320 323 326 331 334 336 335 334 334
301 301 301 300 300 300 299 298 296 295 295 295 296 296 295 295 295 295 295 295 295 296 295 295 296 297 297 298 300 304 306 307 311 313 315 320 323 324 327 332 331 335 334
302 302 301 301 300 300 299 299 298 297 295 294 296 295 294 294 293 293 293 293 293 293 294 293 292 292 293 295 296 299 302 303 305 310 314 316 318 321 325 329 332 334 334
303 302 302 300 299 299 299 299 298 298 297 294 295 295 295 294 293 293 292 292 291 292 291 291 291 291 292 293 295 296 299 301 302 304 309 312 314 317 320 322 325 327 326

GFSGL_850_thetae_090.txt.gz
Theta_e
344 345 344 344 342 344 345 344 345 345 344 344 345 345 345 346 347 347 339 342 342 340 336 333 333 337 338 336 337 344 346 346 345 344 344 344 345 345 345 345 344 341 344
345 345 343 345 342 342 345 343 343 344 344 344 344 345 347 347 347 345 339 342 342 340 338 336 334 336 336 336 336 337 343 343 344 344 344 343 343 344 344 344 343 341 342
346 343 342 343 342 341 342 342 341 340 341 342 343 343 345 344 343 340 341 344 343 340 342 342 342 340 335 337 337 341 342 342 341 339 339 341 342 341 338 335 336 336 336
346 343 343 343 344 343 343 340 340 341 342 341 343 344 345 344 345 344 342 344 344 343 342 341 342 343 344 345 341 342 342 341 342 343 344 344 343 340 336 337 339 341 341
343 342 341 339 342 342 342 342 341 342 342 341 341 344 343 345 345 343 344 344 346 346 344 344 345 345 344 342 345 342 342 342 342 347 346 348 349 343 346 346 346 346 340
341 338 337 336 341 340 339 339 340 341 342 342 341 342 341 341 344 347 347 345 345 346 346 343 345 345 345 345 345 345 346 348 348 346 346 342 344 347 348 350 350 350 348
338 339 339 338 340 340 337 339 338 339 340 340 338 340 343 343 344 343 344 344 345 345 344 346 345 344 347 347 346 344 345 347 346 346 347 348 346 343 349 348 346 345 343
338 338 339 339 339 339 340 339 337 336 339 339 338 336 338 340 341 342 343 343 343 343 344 343 342 343 345 347 348 348 347 345 346 347 346 347 347 346 346 345 343 340 339
335 336 337 338 338 338 337 338 338 338 338 339 339 336 337 338 337 340 341 342 343 342 342 343 343 343 342 343 343 343 344 344 344 343 343 343 343 343 343 344 342 343 342
324 323 324 325 329 334 335 335 333 334 334 335 337 338 337 337 336 338 339 340 341 342 344 344 344 344 346 347 346 346 345 344 344 344 344 344 345 345 346 347 348 348 346
318 317 317 317 316 317 319 321 322 323 327 326 319 326 330 336 336 336 335 338 339 341 343 344 345 345 346 347 347 348 347 347 347 347 347 347 345 345 345 347 348 348 348
312 312 311 311 311 312 312 312 312 313 314 316 318 316 318 319 322 326 330 336 337 337 338 341 343 344 345 345 346 346 346 346 346 346 346 346 346 346 346 347 348 348 348
308 308 308 308 308 309 309 309 309 310 310 311 311 312 313 315 318 318 320 326 331 333 335 336 336 337 339 341 342 342 341 340 339 340 342 343 337 337 344 345 346 347 347
304 304 305 305 305 306 306 307 307 307 308 308 308 308 309 309 310 310 312 314 316 318 323 330 333 335 336 336 336 335 336 332 327 325 324 327 327 327 332 342 347 348 349
303 303 303 303 304 304 304 305 305 305 305 306 306 306 306 306 306 306 307 307 308 308 309 310 312 314 316 320 322 324 324 325 324 321 320 321 322 322 322 323 329 340 346
301 301 302 302 303 303 304 304 304 304 304 304 304 304 304 304 305 305 305 305 305 306 306 306 307 308 308 309 310 311 313 316 319 320 320 321 323 325 324 324 328 342 340
300 300 300 301 301 301 301 302 302 302 302 302 302 303 303 303 303 303 304 304 304 304 305 305 306 306 307 308 308 309 310 312 313 317 319 320 321 323 328 328 329 337 341
299 299 300 300 300 300 300 300 300 301 301 301 301 301 302 302 302 302 303 303 303 304 304 304 305 305 306 307 307 308 309 311 313 317 321 321 322 325 328 334 337 338 336
299 299 299 299 299 299 299 299 299 299 300 300 301 301 301 302 302 302 302 302 302 302 303 303 303 304 304 305 306 307 307 308 311 313 316 321 324 327 333 338 340 343 344
299 299 299 299 299 299 299 299 298 298 298 299 300 300 301 301 301 301 301 301 301 301 301 301 301 301 301 302 304 304 306 307 307 308 312 316 320 322 324 327 332 338 340
300 299 299 300 299 299 299 298 297 297 297 298 299 299 299 299 299 299 299 299 298 298 298 299 300 300 301 301 300 300 303 305 306 307 307 309 315 318 324 323 329 334 337
300 300 300 300 299 299 299 298 297 296 295 295 296 298 298 298 298 298 297 297 296 296 296 296 296 296 296 298 299 299 299 300 301 305 309 312 316 318 319 320 325 330 333
300 300 300 300 300 300 299 299 298 297 296 295 295 295 296 297 297 296 296 295 295 295 295 294 294 294 294 294 294 296 297 298 298 298 305 306 310 312 313 316 320 322 325
301 300 300 300 300 299 299 299 299 298 297 296 295 294 294 296 297 296 296 295 295 295 295 294 294 294 294 293 293 294 294 296 296 298 299 304 306 308 310 312 316 319 321
301 302 302 300 299 299 299 299 299 298 297 297 296 294 294 294 296 296 295 295 294 294 294 294 294 294 294 293 293 293 294 294 295 295 295 297 302 305 307 309 311 313 317
302 302 302 302 300 300 299 299 299 298 298 298 297 295 294 294 295 295 295 294 294 294 293 294 294 294 294 293 294 293 293 293 293 293 292 294 296 300 303 305 308 310 314

GFSGL_850_thetae_093.txt.gz
Theta_e
344 344 345 342 341 341 343 344 345 345 345 345 345 345 345 345 345 345 346 342 340 339 341 339 337 335 337 339 338 336 338 344 349 350 345 344 343 342 342 342 341 342 349
344 343 344 344 343 342 341 342 344 343 345 344 344 344 346 345 344 345 346 341 340 340 340 338 337 335 334 335 336 336 338 338 343 345 346 343 341 340 342 341 338 341 344
343 343 343 343 342 343 340 340 343 342 343 343 343 343 343 345 345 345 342 340 342 341 340 342 339 338 336 336 336 337 342 341 343 343 345 341 338 338 338 339 334 335 340
343 343 343 343 340 340 342 341 340 339 338 340 340 340 344 344 344 344 343 341 342 342 341 340 340 342 343 341 345 344 342 340 344 344 349 349 348 345 343 346 349 350 348
343 341 342 341 342 343 344 343 341 340 340 341 342 342 342 342 343 342 342 344 342 343 345 344 343 343 345 344 343 341 341 341 348 348 347 348 348 349 348 350 352 352 350
343 342 342 342 341 340 339 340 341 341 341 341 341 342 341 341 341 341 343 342 342 345 345 345 344 342 344 345 345 344 344 344 344 347 348 349 349 347 350 349 351 351 349
342 340 339 339 338 339 341 339 338 339 339 340 340 339 341 342 341 342 342 342 343 342 342 341 341 348 345 343 345 347 347 344 344 346 347 346 347 346 346 346 351 349 349
337 338 339 339 338 339 340 339 338 338 336 338 338 338 336 337 340 341 342 343 343 343 343 343 343 341 341 341 343 344 344 344 345 347 346 345 345 344 344 347 345 343 343
337 337 337 338 338 338 339 338 338 337 337 338 339 339 338 337 336 338 338 339 340 341 342 344 344 344 344 343 342 342 342 342 343 342 343 344 343 343 344 345 347 350 348
331 332 331 332 332 333 334 333 332 332 332 332 334 336 337 337 336 336 337 336 337 338 340 342 343 343 342 342 342 343 346 348 346 345 346 346 346 345 345 346 346 350 350
319 318 318 318 318 319 320 322 324 325 327 327 327 325 325 329 334 336 335 335 335 336 337 338 341 342 342 342 343 343 345 346 346 346 346 346 348 348 349 350 347 346 350
313 312 312 311 311 312 312 312 313 314 316 316 319 319 319 319 319 322 325 328 330 332 334 335 336 337 339 341 342 342 342 341 342 342 342 342 341 341 341 341 338 341 344
308 308 308 308 308 308 309 309 309 310 310 311 312 313 314 316 316 316 317 318 318 320 321 324 328 332 334 336 336 335 336 334 332 333 334 334 334 333 331 333 334 336 337
305 305 305 305 305 306 306 306 307 307 308 308 308 309 309 309 309 310 310 310 311 311 312 312 313 314 316 319 321 324 326 327 328 326 330 331 331 331 333 336 338 339 340
303 303 303 303 304 304 304 304 305 305 305 305 305 305 305 305 305 305 306 306 306 306 306 306 306 306 307 307 308 309 309 310 312 314 319 324 327 329 331 334 336 338 338
302 301 302 302 303 303 303 303 303 303 304 304 304 303 304 304 304 303 303 303 303 304 304 304 304 304 305 305 306 306 308 310 315 315 320 323 325 328 329 331 334 336 336
300 300 300 300 301 301 301 301 301 301 301 301 301 301 302 302 302 302 302 303 303 303 303 303 303 304 304 304 307 307 306 311 310 315 316 321 325 327 328 328 330 332 334
300 300 300 300 300 300 300 300 300 300 300 300 300 301 301 301 302 302 302 302 303 303 303 303 303 303 303 303 304 305 305 305 307 310 312 313 316 318 320 324 329 331 333
299 299 299 299 299 299 299 299 299 299 299 300 300 300 301 301 302 302 303 303 303 303 302 303 303 302 302 302 303 303 303 303 304 306 309 310 311 312 314 317 321 323 324
299 299 299 299 299 299 299 298 298 298 298 299 299 300 300 301 301 301 301 301 301 300 300 300 300 300 300 301 301 301 301 302 303 305 306 308 309 310 313 315 318 318 323
299 299 299 299 299 299 299 298 298 297 296 296 297 297 298 299 299 299 300 299 299 298 298 298 297 297 297 297 298 298 298 298 299 299 301 303 304 306 307 313 315 317 317
302 300 299 300 299 299 299 299 298 297 297 296 295 295 296 296 296 297 297 297 297 297 296 296 296 295 295 295 295 294 295 296 296 296 297 298 299 300 302 306 308 312 314
303 300 300 300 299 299 300 299 299 299 298 297 296 295 295 295 295 296 297 296 296 295 295 294 294 294 293 293 293 292 292 293 293 295 294 294 296 297 298 300 305 309 309
304 300 300 300 300 300 300 300 300 299 298 297 297 297 296 295 294 294 296 296 296 296 295 294 294 294 293 293 293 293 293 293 293 293 293 293 294 294 295 296 297 300 306
304 301 301 301 300 300 300 299 300 299 298 298 298 298 297 295 295 294 295 296 296 296 295 295 295 294 295 294 294 294 294 294 293 293 293 294 294 294 293 293 294 296 298
305 302 301 302 301 300 300 300 300 299 299 299 298 298 297 296 295 294 294 294 295 295 295 295 295 294 294 294 294 294 294 294 295 295 296 295 294 295 294 293 292 293 295

GFSGL_850_thetae_096.txt.gz
Theta_e
346 346 345 345 348 347 346 347 345 345 344 344 345 344 348 345 344 343 346 349 350 349 350 349 348 345 345 346 347 348 347 347 348 347 350 350 351 352 349 341 346 347 345
344 343 344 345 345 348 347 347 347 343 343 344 344 344 344 349 351 345 345 350 350 349 348 349 349 345 346 343 346 347 347 348 347 346 346 348 351 351 351 350 350 345 346
344 344 343 343 344 345 348 347 348 347 342 347 344 344 344 343 344 344 346 348 348 348 348 348 348 347 348 344 345 345 343 344 345 345 345 346 347 350 351 350 348 349 348
344 344 343 343 343 341 343 346 347 346 341 347 345 344 342 342 343 344 343 343 349 349 349 348 348 349 349 350 349 349 348 349 346 346 345 344 345 346 349 347 345 346 347
345 344 343 343 343 343 340 342 343 343 347 346 348 349 348 346 348 344 342 342 344 343 349 350 350 348 345 344 348 349 351 349 346 344 344 344 345 347 347 346 346 346 346
344 344 343 342 340 342 340 345 343 341 342 343 346 347 350 349 344 341 341 342 349 341 347 349 347 344 343 342 344 346 346 345 350 348 346 346 347 350 349 349 348 347 347
344 343 342 343 342 341 340 340 340 340 341 341 342 346 342 342 341 341 341 341 349 348 349 350 350 346 347 349 348 343 345 347 348 346 347 350 348 348 349 350 349 349 348
343 342 342 342 342 340 338 338 339 339 339 338 338 339 339 338 340 342 342 343 347 348 349 348 347 347 343 341 344 349 350 351 349 346 348 347 346 348 348 348 348 349 351
342 340 337 339 339 339 340 340 340 339 338 337 338 338 338 338 337 336 337 339 343 344 342 342 343 343 342 343 342 345 350 351 350 347 350 348 344 343 344 345 348 350 349
336 337 337 337 336 337 337 337 337 336 335 334 337 337 336 337 337 337 336 336 336 338 338 339 339 340 340 342 342 342 343 344 343 344 345 346 347 347 347 349 350 351 351
327 325 325 326 325 327 331 332 331 330 331 329 329 330 332 333 333 334 336 336 335 334 334 334 336 336 338 340 341 341 342 342 342 343 342 344 346 349 349 350 350 351 352
316 316 314 314 314 314 315 316 317 319 321 322 322 322 322 321 322 323 322 323 325 329 329 329 329 333 335 336 337 338 338 339 339 337 339 340 340 341 341 341 341 340 338
309 309 309 309 309 309 309 310 310 311 314 313 315 316 315 315 315 316 316 316 316 318 317 317 316 317 317 317 320 325 329 332 334 335 336 337 338 338 338 337 338 339 341
307 306 306 306 306 306 308 309 311 311 312 313 313 312 310 309 309 309 309 309 309 308 308 308 307 308 309 309 309 310 315 317 322 323 324 327 328 329 330 331 333 335 337
304 304 304 308 306 306 307 308 309 306 306 310 309 309 309 309 306 306 305 305 305 304 304 305 311 313 314 315 315 316 317 319 318 321 322 323 324 324 325 327 328 330 331
306 308 309 309 308 308 308 304 304 304 304 304 304 304 304 304 304 303 303 303 303 303 303 304 306 305 310 311 313 314 314 315 317 319 319 319 320 322 324 327 327 328 329
307 307 306 306 307 307 307 307 305 302 302 302 302 302 302 302 302 302 302 302 303 303 308 308 306 306 309 305 306 310 312 312 309 312 313 315 316 316 316 318 320 322 326
304 303 305 306 305 305 305 306 306 306 306 304 300 301 301 301 302 302 302 303 306 306 306 306 306 306 306 306 306 306 306 306 308 309 310 311 313 314 314 315 316 317 319
304 304 304 304 304 304 304 304 304 304 304 304 304 301 301 301 301 302 302 303 304 305 304 304 304 303 303 303 303 303 303 304 304 305 307 308 309 311 312 313 313 315 317
305 303 303 303 301 303 303 303 303 303 303 303 303 302 300 303 303 303 303 302 303 303 302 302 302 302 301 301 301 301 301 302 302 302 303 304 304 305 307 309 310 311 311
304 301 301 303 303 303 303 303 302 302 302 302 302 299 298 300 302 302 302 301 301 301 301 301 300 300 300 300 300 300 300 300 300 300 300 301 301 301 302 303 305 305 307
304 304 302 304 304 303 303 303 303 302 302 302 301 300 297 300 301 301 301 300 300 299 299 299 299 299 298 298 298 298 298 298 298 298 298 298 298 299 299 300 300 300 300
305 305 304 304 304 303 303 304 304 303 303 302 302 301 300 300 300 300 300 300 299 299 298 298 298 298 297 296 295 295 295 295 295 294 294 294 294 295 295 296 297 298 299
306 306 305 305 304 304 304 304 304 303 303 303 302 301 301 300 300 299 299 299 298 298 297 297 296 296 295 295 294 294 293 292 293 294 294 294 293 294 294 294 294 295 296
307 306 305 305 305 303 304 304 304 304 304 303 303 302 302 301 300 299 298 298 297 296 296 296 296 296 295 294 294 293 294 295 294 294 294 295 295 296 296 297 297 298 297
306 306 305 306 305 305 304 304 304 304 304 303 303 303 302 302 301 299 298 298 297 296 294 295 296 295 295 294 294 295 295 296 296 296 296 298 298 298 298 298 298 299 298

GFSGL_850_thetae_099.txt.gz
Theta_e
352 351 351 351 349 350 349 348 349 350 346 350 348 351 351 351 351 350 344 349 354 350 349 351 350 349 348 347 346 348 348 347 347 347 349 350 351 352 354 348 352 350 348
348 346 348 345 350 350 350 348 348 350 351 350 349 351 352 351 352 351 351 350 353 351 350 349 349 348 348 345 345 346 347 348 350 346 346 346 346 348 350 351 351 350 348
343 344 345 346 344 347 348 349 349 349 348 351 352 346 348 349 354 353 350 351 350 351 350 350 350 349 348 347 347 348 347 347 347 348 347 345 344 344 346 350 347 348 351
343 343 344 344 343 343 343 343 344 349 349 350 352 353 352 351 346 353 353 352 352 351 350 350 350 350 350 350 348 347 346 347 347 348 347 345 346 344 344 347 348 344 346
343 344 343 342 340 343 343 343 342 343 347 349 350 351 352 351 348 347 351 352 352 351 353 352 351 351 350 348 347 349 349 350 350 350 346 344 344 349 350 348 349 347 347
347 346 344 342 344 343 344 342 340 343 345 347 348 347 349 349 348 345 344 346 351 352 351 352 351 351 343 344 344 342 342 344 344 350 349 349 347 349 350 351 351 348 348
346 345 345 345 343 343 342 342 342 344 344 345 346 343 342 342 341 342 344 343 344 349 349 350 350 349 348 350 350 347 345 343 343 345 345 343 343 344 346 345 350 350 351
345 345 344 342 342 341 340 340 340 340 341 342 344 342 341 340 340 341 342 342 343 348 349 349 348 346 342 344 343 343 350 351 349 349 350 349 346 347 348 349 346 346 350
344 343 342 342 342 341 340 339 338 340 340 341 341 339 337 337 338 337 337 343 347 347 343 343 344 342 342 342 342 344 346 348 349 347 347 347 345 343 344 345 345 349 349
341 340 339 338 339 339 339 340 339 339 338 341 340 338 337 337 337 338 338 337 339 340 342 340 338 339 339 338 339 341 342 346 346 343 342 342 342 343 346 348 349 349 350
335 335 335 335 335 335 336 336 335 334 334 335 334 335 336 335 335 334 336 336 336 336 336 336 335 335 335 336 337 338 338 339 340 340 340 341 343 343 344 345 344 346 349
321 325 319 320 321 322 323 326 329 329 330 329 329 327 326 330 329 328 326 326 323 324 328 332 332 330 331 329 325 326 330 331 332 335 339 340 341 342 342 342 342 341 340
312 312 312 312 311 311 311 312 312 314 320 322 322 322 321 319 318 318 317 316 315 314 315 315 313 312 313 313 313 312 313 314 325 330 331 331 329 331 333 332 332 333 334
310 309 309 308 308 308 310 313 316 316 316 317 317 317 317 316 312 310 309 309 309 308 308 307 307 310 312 315 316 320 320 320 317 313 315 322 324 325 325 325 326 327 328
307 308 306 309 308 311 314 313 313 314 313 315 315 315 315 315 314 306 305 305 305 304 304 307 315 316 316 317 317 317 318 318 319 321 322 321 321 321 322 323 325 328 328
314 314 313 313 313 313 312 308 306 305 305 306 307 306 306 306 305 304 303 303 303 303 308 310 313 311 312 313 313 314 315 315 315 313 315 316 317 317 318 318 317 319 320
311 312 312 309 311 311 311 312 309 304 303 303 303 304 303 303 302 302 302 302 303 308 312 312 312 312 312 311 310 309 308 309 306 308 311 311 313 315 316 316 317 317 318
307 309 310 309 310 310 310 310 310 310 309 308 301 301 301 301 302 302 302 306 310 309 309 310 309 309 309 308 308 308 308 308 308 306 307 308 309 310 311 312 313 314 315
307 309 306 308 308 308 308 308 308 308 309 308 307 304 301 301 301 302 302 308 308 308 308 308 307 307 307 306 306 306 306 305 304 306 306 306 306 306 306 307 308 308 309
309 307 307 307 307 306 306 306 306 307 307 307 307 307 305 305 307 307 307 306 307 306 306 306 305 305 305 305 304 304 304 304 304 304 304 304 304 304 304 304 304 304 305
310 308 304 306 306 306 306 306 306 306 306 306 306 305 299 305 306 306 305 305 305 305 304 304 304 304 303 303 303 302 302 302 301 301 301 301 301 301 301 301 302 302 302
309 308 304 305 306 306 306 306 306 305 305 305 305 303 300 299 304 304 304 304 304 303 303 302 302 302 302 301 301 300 299 299 299 298 298 298 298 298 298 298 298 299 299
309 309 307 306 307 306 306 306 306 306 306 306 305 304 303 303 303 303 303 303 303 302 302 301 301 301 300 300 299 298 298 297 297 296 296 295 296 296 296 296 296 297 297
310 309 309 308 308 307 307 306 307 306 307 307 306 305 304 304 303 303 302 302 302 301 301 300 300 300 300 299 298 298 297 296 295 295 295 295 296 296 297 298 298 298 298
310 310 310 309 309 308 308 307 308 308 307 305 306 306 305 305 304 303 302 302 301 301 300 300 299 299 299 298 297 297 296 295 296 297 297 296 297 297 297 298 298 297 298
310 309 309 310 309 309 308 308 308 308 308 307 306 306 306 305 304 304 303 301 301 300 299 299 299 298 298 297 297 296 295 296 297 297 297 298 298 298 298 298 298 298 298

GFSGL_850_thetae_102.txt.gz
Theta_e
353 353 351 349 349 344 344 345 349 349 347 346 349 350 350 346 345 345 342 348 349 347 343 348 349 349 341 339 348 347 350 348 348 350 348 345 343 346 347 351 349 349 349
343 346 349 347 347 350 349 348 348 349 348 348 345 347 348 349 350 349 343 345 349 347 348 345 346 345 349 348 340 344 346 345 348 348 347 347 347 343 344 346 346 349 348
342 340 345 348 346 348 350 346 347 348 347 347 348 346 344 345 346 348 349 347 346 349 348 350 349 348 348 346 345 346 346 347 346 345 345 345 344 345 347 347 349 346 344
341 344 343 344 344 344 345 347 346 344 346 348 343 348 348 346 347 348 350 346 346 349 349 347 349 350 346 348 346 348 345 348 348 349 351 350 347 350 349 349 351 352 352
344 343 343 342 342 342 340 343 343 342 340 339 346 346 349 349 349 346 346 348 348 348 348 351 351 350 349 348 347 346 345 347 346 350 346 344 346 347 346 346 345 346 342
343 344 345 345 344 341 341 341 341 342 342 341 340 345 343 345 346 345 343 345 346 350 347 345 346 345 345 345 346 347 345 343 340 340 340 340 340 340 340 340 340 343 344
346 346 346 346 344 343 343 345 344 342 340 336 336 337 335 339 340 341 342 344 343 341 341 342 344 346 348 348 347 345 341 343 345 346 347 349 348 344 343 342 343 344 342
348 348 346 346 345 343 342 342 341 342 341 340 341 336 341 342 341 341 341 342 342 342 343 345 345 343 341 341 343 344 343 341 342 348 347 346 346 345 346 345 343 342 343
345 345 345 344 341 341 341 340 340 339 340 341 342 341 341 338 338 338 337 341 346 347 344 342 342 342 341 341 341 342 341 342 343 342 343 343 343 342 342 344 344 345 347
344 344 343 342 342 342 340 339 339 338 340 340 341 340 339 339 337 337 338 337 339 340 339 340 340 338 338 337 336 336 336 338 340 341 341 341 341 343 343 344 347 349 348
339 339 339 340 338 338 338 338 339 338 338 338 338 338 338 337 335 335 335 336 337 336 336 336 336 336 336 335 333 330 329 331 333 333 333 339 340 341 342 342 342 341 340
335 334 336 336 336 335 335 334 335 334 335 336 335 333 330 330 330 330 330 327 327 326 325 328 332 333 330 326 328 332 329 323 317 319 330 335 336 336 338 338 338 337 331
317 319 324 317 314 315 316 316 317 319 326 326 325 324 324 324 326 322 317 317 317 316 315 313 313 312 311 310 312 315 316 315 315 314 317 321 321 323 324 324 324 325 325
310 311 310 309 309 309 310 311 316 318 317 315 319 320 320 320 317 312 311 310 309 309 309 307 307 312 316 317 318 319 318 319 319 320 321 321 321 321 321 322 323 324 325
309 309 308 309 309 308 311 312 314 317 317 318 319 319 318 318 316 314 307 305 305 305 305 305 312 316 316 317 317 317 317 317 316 316 315 312 314 314 314 315 315 316 317
312 313 312 313 313 313 314 312 312 310 309 313 315 316 314 311 311 309 304 303 303 303 306 311 310 310 310 310 308 309 313 312 311 308 306 308 309 310 310 313 315 316 316
315 315 315 313 315 314 314 314 313 310 308 304 304 305 305 304 304 303 302 302 303 309 313 313 313 312 312 312 311 310 308 307 307 307 306 306 307 307 307 308 309 311 312
308 311 313 313 310 312 312 312 313 313 311 311 310 303 302 302 302 302 303 308 310 309 311 311 311 310 309 309 308 307 306 307 305 305 306 306 306 306 306 306 306 306 305
309 312 310 310 311 311 310 310 311 310 311 312 309 307 302 301 301 302 308 310 310 310 309 309 308 308 308 307 306 306 305 305 305 305 305 304 304 304 304 304 303 303 303
310 310 310 309 310 309 309 309 309 309 309 309 309 310 307 305 308 308 307 308 308 308 308 307 307 306 306 305 304 304 304 303 303 303 302 302 301 301 301 300 300 300 300
314 312 308 307 309 308 307 308 308 308 308 308 308 308 307 305 308 307 307 307 307 306 306 306 305 305 304 303 302 302 301 301 301 300 299 299 298 298 298 298 298 298 298
314 312 311 306 307 308 307 308 307 308 307 307 307 306 305 302 305 306 306 306 305 304 304 304 304 303 303 302 300 300 300 299 299 298 297 297 297 297 298 298 298 298 299
315 312 311 309 306 308 308 307 308 307 307 307 307 306 305 302 305 305 305 305 304 304 304 303 302 302 301 300 300 300 299 299 298 297 297 297 298 298 298 298 298 298 298
316 314 311 310 308 308 308 308 307 308 307 307 307 307 306 305 305 305 304 304 304 303 303 302 301 301 301 300 300 299 298 297 296 296 297 297 297 298 298 298 297 297 296
317 314 312 310 310 309 309 308 308 308 308 308 308 308 307 306 306 305 304 304 303 303 302 301 301 300 300 300 299 298 297 296 296 296 297 297 298 298 298 298 297 296 296
315 315 312 311 311 310 310 309 309 308 309 308 307 307 307 307 306 306 305 304 303 302 301 301 300 300 300 299 298 297 296 296 296 297 297 298 298 298 297 297 297 297 297

GFSGL_850_thetae_105.txt.gz
Theta_e
348 349 347 340 339 342 345 346 344 342 345 340 341 345 344 346 345 348 346 343 349 349 345 341 348 348 347 341 336 342 342 345 348 347 345 347 345 343 343 343 344 346 347
352 351 350 341 343 345 346 346 344 340 344 342 345 344 348 349 349 348 346 344 343 347 347 345 343 341 343 342 345 346 346 347 347 346 345 344 344 348 345 346 347 348 350
348 347 347 345 346 343 348 347 347 343 343 345 344 344 344 347 347 346 347 346 346 346 349 346 349 348 348 348 346 342 342 342 342 342 343 343 349 350 350 350 349 348 347
346 343 344 343 344 344 346 346 346 342 346 347 344 341 347 347 345 346 346 347 345 346 345 348 348 347 346 346 345 345 345 346 346 346 346 346 347 346 345 341 343 342 340
343 343 341 343 344 344 344 343 342 344 346 342 346 345 347 344 343 344 343 344 347 345 345 348 347 348 348 348 347 346 348 346 341 340 339 339 338 338 338 338 339 338 335
345 343 343 343 343 342 343 341 341 341 343 342 339 341 344 343 342 342 343 344 342 345 346 345 345 344 344 341 342 345 343 343 342 342 343 344 344 345 344 342 341 340 341
344 343 343 345 345 344 342 342 343 343 342 342 342 340 335 333 333 338 341 341 343 345 343 340 341 340 341 342 343 343 344 342 341 342 343 345 346 344 342 341 342 342 342
347 346 346 346 346 345 343 342 341 342 342 341 338 336 335 331 338 341 341 340 341 341 341 340 339 341 343 343 342 341 342 341 341 341 341 341 342 342 342 342 342 345 346
347 346 347 346 345 343 341 341 340 340 342 342 340 342 342 341 339 339 338 339 340 341 342 342 342 341 340 340 340 340 340 339 340 342 343 343 341 341 343 343 344 345 346
347 346 344 344 343 341 340 341 340 340 339 340 340 340 340 339 338 337 337 337 337 339 339 339 340 339 338 336 335 335 334 334 334 335 337 338 341 341 343 344 342 339 336
343 343 343 343 342 341 340 338 339 339 338 339 339 338 338 338 338 337 335 336 336 336 336 336 336 336 335 335 335 334 332 334 334 325 322 333 337 335 333 332 331 331 329
339 339 339 339 340 339 338 338 337 336 337 337 336 336 334 332 332 331 330 329 329 329 328 327 324 323 323 316 312 312 313 313 313 314 316 319 325 330 333 333 328 326 326
334 333 332 333 333 333 334 333 330 331 332 332 331 326 328 327 326 325 321 315 317 315 313 312 311 310 310 314 318 319 317 316 318 316 315 316 317 317 316 314 314 316 320
315 315 319 317 313 312 312 312 313 314 315 319 321 322 321 321 320 317 312 308 309 308 307 307 308 310 312 316 317 318 317 317 317 317 316 317 317 313 310 310 310 309 308
311 311 311 310 310 309 310 311 312 314 317 318 317 317 318 318 318 316 314 310 306 305 305 305 309 313 316 317 317 317 317 316 315 313 310 307 306 306 306 307 308 309 310
309 309 309 310 312 310 309 309 310 312 315 315 316 317 318 318 317 313 307 305 304 304 304 307 311 310 309 311 311 309 308 310 307 306 306 305 305 305 305 305 305 305 305
315 316 315 314 315 314 314 313 313 311 310 310 306 305 308 311 309 305 304 303 303 310 314 314 313 312 312 311 310 309 307 306 305 305 304 305 305 305 305 304 304 304 304
310 314 315 314 312 313 314 313 312 312 312 312 311 310 307 303 303 303 302 304 308 311 311 311 311 310 309 308 307 306 305 305 304 304 304 304 303 303 303 302 301 301 301
310 309 309 312 312 311 312 312 312 311 311 312 311 310 307 301 301 302 308 310 311 310 309 310 309 309 308 307 305 304 304 304 304 303 302 302 301 300 300 300 300 300 300
312 310 310 311 309 310 311 310 310 310 309 309 310 309 308 302 303 302 307 309 309 309 309 308 308 307 305 304 303 303 302 301 301 301 300 299 299 298 299 299 299 299 299
319 312 310 311 309 309 308 307 307 308 308 309 309 309 309 307 308 308 308 307 307 307 307 306 305 304 303 303 302 300 300 300 299 299 298 298 298 298 298 298 298 299 299
321 315 313 312 309 309 309 306 307 307 308 307 308 308 308 307 306 307 307 306 306 305 305 304 303 304 303 302 301 299 299 299 299 298 297 297 298 298 298 298 298 298 298
319 319 315 313 312 309 308 308 307 307 307 307 307 307 307 306 305 306 306 305 305 305 304 303 302 302 302 301 300 299 298 298 298 296 297 297 297 298 298 298 298 297 297
316 318 315 313 312 311 308 308 308 307 308 307 307 307 306 306 303 305 305 305 304 304 303 303 302 301 300 300 299 298 298 297 296 296 297 297 298 298 298 296 296 296 296
314 315 316 315 311 310 310 308 308 308 307 308 307 307 307 306 305 305 305 304 304 303 303 302 301 301 300 300 300 299 298 297 296 296 297 297 297 297 296 297 296 296 296
310 312 314 315 313 311 310 309 309 308 308 308 308 308 308 307 306 306 306 304 303 303 302 302 301 301 300 300 299 298 298 297 296 296 297 297 296 297 296 296 296 297 298

GFSGL_850_thetae_108.txt.gz
Theta_e
341 341 345 344 344 347 348 346 344 344 343 344 341 342 342 346 346 346 347 346 345 343 345 344 343 345 347 347 344 347 347 347 346 346 346 344 342 341 344 344 345 343 346
342 344 346 346 346 344 345 343 340 339 343 344 344 345 345 344 346 347 344 343 341 341 346 345 342 342 340 341 342 342 343 345 346 346 345 343 342 343 349 349 349 348 348
344 346 349 344 339 339 343 344 344 345 343 341 343 345 344 347 347 348 346 345 345 345 342 344 345 347 346 346 347 345 344 342 341 341 343 343 348 346 348 347 342 343 344
343 346 346 345 344 344 344 343 345 345 344 341 343 343 343 347 346 345 345 344 346 346 346 345 345 348 347 345 345 345 345 345 345 343 343 344 344 342 341 340 337 336 336
342 346 344 344 342 342 343 344 345 345 344 343 346 346 342 342 345 343 343 342 343 343 342 344 343 346 345 343 345 345 344 342 343 342 340 338 338 340 341 339 340 338 337
345 346 345 342 342 343 344 344 343 341 341 345 345 343 341 342 343 342 342 343 343 342 345 345 345 341 342 341 341 341 344 343 342 341 340 341 341 343 344 342 340 340 339
347 344 343 342 343 343 342 342 342 342 342 341 343 342 341 339 336 332 335 339 341 341 342 341 340 340 340 340 341 342 341 342 342 340 339 339 341 342 342 340 340 341 344
346 346 344 343 344 344 343 342 342 341 342 341 341 341 338 335 332 333 332 340 340 340 342 342 341 339 339 341 342 342 341 341 341 342 342 342 342 342 341 340 342 343 344
346 345 344 345 344 343 344 342 341 340 341 341 340 338 337 337 338 339 339 339 340 341 341 341 342 341 340 339 340 339 339 339 339 340 340 340 339 339 341 343 343 343 341
348 347 347 345 346 344 341 341 340 339 340 341 341 341 341 340 339 338 336 336 337 339 340 340 340 339 338 337 336 335 333 331 330 327 331 335 337 339 338 337 336 335 333
347 345 346 344 343 341 340 340 340 339 339 339 339 339 338 337 337 337 337 336 336 336 336 336 336 336 335 335 334 333 330 329 330 330 329 323 333 336 333 331 329 328 328
342 341 342 341 341 340 339 338 338 338 338 338 338 337 336 334 331 330 330 332 330 329 328 327 325 324 323 321 318 317 314 314 314 314 314 315 318 320 322 322 321 321 322
338 338 338 338 338 338 337 336 335 335 336 336 336 335 331 329 327 327 322 319 316 319 317 314 313 312 312 312 314 316 316 318 317 316 315 315 316 316 315 315 314 313 314
331 328 327 328 329 330 329 327 327 329 331 331 329 327 325 323 322 318 315 309 307 308 307 308 308 311 314 315 316 318 318 317 316 314 314 312 310 308 307 306 306 306 306
312 312 312 313 312 311 311 311 313 315 315 316 316 319 319 319 318 317 316 312 308 305 304 309 313 315 316 317 317 317 316 316 315 313 308 306 305 305 305 305 305 305 305
310 310 309 310 310 310 310 310 311 311 314 316 316 316 317 318 317 317 316 309 305 304 305 310 311 312 312 313 313 312 310 307 306 306 305 305 304 304 304 304 303 303 303
313 314 314 313 314 314 313 313 313 312 311 309 310 309 306 306 310 312 310 305 303 304 309 312 312 312 311 311 310 309 307 305 305 304 304 304 303 303 302 302 302 301 301
313 313 314 315 314 312 313 313 313 312 311 312 311 311 310 307 305 303 303 302 305 311 313 313 312 312 311 309 308 306 305 304 304 303 302 302 301 301 300 300 300 300 300
319 312 311 314 314 313 311 312 313 312 311 311 311 311 309 307 302 302 303 306 308 310 311 310 310 310 309 307 306 304 303 303 302 301 300 300 300 299 300 300 299 299 299
321 320 312 309 309 311 311 310 311 311 310 310 310 309 309 306 302 302 309 309 310 310 309 309 308 308 307 305 304 303 302 301 300 299 299 298 298 298 299 299 299 299 299
322 322 320 312 311 310 309 309 309 309 309 309 308 309 308 308 307 304 306 307 308 308 308 308 307 306 304 303 302 301 300 299 299 298 297 297 297 298 298 298 298 298 298
320 321 320 320 317 311 309 309 309 307 307 308 308 308 308 308 307 306 307 307 307 306 305 305 304 303 302 302 301 300 298 298 298 297 296 297 297 297 298 298 298 298 298
314 316 318 319 318 315 313 310 308 308 307 307 307 307 307 307 306 305 307 306 306 305 305 304 303 302 302 301 300 299 298 297 296 296 296 297 297 297 298 297 297 297 297
313 313 313 316 318 317 316 313 309 308 307 307 307 307 307 307 306 306 305 306 305 305 304 304 303 302 301 300 299 299 299 297 296 295 296 297 297 297 297 296 296 297 298
315 313 312 312 313 315 314 313 311 308 308 307 307 307 307 306 306 305 304 305 304 304 304 303 303 302 301 300 300 299 299 297 296 295 296 297 297 297 296 296 297 297 297
313 313 312 310 310 312 314 314 311 307 308 308 308 307 307 307 307 307 305 305 304 304 304 303 303 302 302 301 300 299 299 297 296 295 295 296 297 297 296 297 297 297 296

GFSGL_850_thetae_111.txt.gz
Theta_e
343 341 345 343 344 344 345 346 345 345 346 344 344 347 346 344 343 347 345 344 344 345 343 344 343 344 345 345 345 343 344 345 346 345 345 345 344 343 341 339 341 345 345
346 344 346 343 344 345 344 347 345 343 343 343 343 343 343 343 345 346 345 347 347 345 341 345 345 343 341 341 344 346 346 343 344 344 344 343 342 342 343 345 345 346 346
348 345 342 341 343 341 344 342 343 340 341 343 343 344 346 347 345 346 347 347 344 343 343 341 343 345 345 346 346 346 345 345 346 345 346 345 344 346 346 345 343 342 338
345 344 343 343 344 342 342 340 341 344 344 342 340 339 344 344 345 345 346 346 344 344 344 345 343 344 345 343 343 344 345 343 345 345 344 341 340 340 339 340 339 337 336
346 343 342 342 344 344 341 343 344 344 344 344 342 342 343 341 343 346 344 344 344 345 345 343 342 341 340 344 341 341 343 344 342 343 341 341 342 342 343 343 343 340 338
343 343 343 344 344 343 344 343 344 344 344 343 343 343 344 343 340 342 342 341 343 344 343 341 341 342 342 340 339 340 342 341 342 341 340 338 339 340 341 341 340 338 339
343 344 344 344 344 342 342 343 344 343 343 341 341 342 344 343 339 340 337 340 342 342 339 339 340 340 339 339 339 340 341 341 340 341 341 340 340 341 341 340 340 340 342
343 345 344 344 343 342 343 343 342 342 342 342 341 341 342 342 341 338 335 333 334 341 340 340 343 343 341 339 339 341 342 341 341 341 342 341 341 340 340 340 341 342 341
344 344 344 343 343 343 344 343 342 342 341 341 341 340 339 337 336 335 335 338 340 340 339 339 341 341 341 340 339 339 339 339 338 338 337 336 336 337 337 338 339 339 338
336 343 345 344 343 344 343 343 341 340 340 341 341 340 339 340 339 338 337 337 337 338 340 340 341 340 339 338 337 335 334 332 329 328 328 332 334 335 335 335 334 334 333
345 345 344 345 345 344 343 341 340 340 339 340 341 340 339 339 338 337 337 337 336 335 336 336 336 336 336 335 335 334 331 329 329 329 328 325 328 330 328 329 329 326 325
342 343 344 343 342 342 341 340 340 339 339 339 338 338 337 336 333 331 332 333 330 330 331 331 331 330 328 326 322 319 316 315 315 315 315 315 317 317 318 317 317 316 316
339 340 340 341 341 341 340 338 338 337 337 337 337 336 335 333 330 329 326 318 319 320 322 322 319 319 316 314 314 315 317 318 318 317 316 314 313 312 311 311 310 310 310
336 336 336 336 336 336 335 333 333 334 335 335 334 334 330 327 325 322 317 313 308 306 309 309 309 310 311 313 316 318 318 317 316 315 313 311 308 306 305 305 305 305 305
321 322 322 320 317 315 316 317 319 319 321 324 324 320 320 319 319 318 317 316 311 306 305 306 309 313 315 316 317 317 316 315 314 312 309 306 305 305 304 304 304 303 303
311 310 310 310 310 310 310 310 311 312 313 315 316 316 316 316 317 317 317 316 313 305 305 308 312 314 315 315 315 314 312 310 307 305 305 304 304 303 303 302 302 302 302
313 313 313 312 313 313 313 312 312 312 311 310 310 310 309 308 306 305 308 311 309 304 305 310 311 311 311 310 310 309 308 306 304 304 303 303 302 301 301 301 301 301 301
314 314 313 313 314 314 312 313 313 313 312 311 311 311 311 310 308 305 303 303 303 304 308 312 312 312 311 310 308 307 305 304 303 303 301 301 300 300 300 300 300 300 299
321 321 317 311 311 312 312 312 311 312 312 311 311 310 310 309 307 303 301 302 304 308 312 312 311 310 309 308 307 305 303 303 302 300 300 299 299 299 299 299 299 299 299
323 322 322 321 316 310 309 310 311 310 311 310 310 309 309 308 307 302 303 306 308 310 310 310 309 308 308 306 304 303 302 301 300 299 299 298 298 298 298 298 298 298 298
322 322 322 321 321 320 311 311 310 310 310 309 309 309 309 308 307 306 304 307 309 309 308 308 307 307 305 304 302 301 300 299 298 298 297 297 297 297 297 298 298 298 298
314 315 316 317 318 319 319 318 312 309 309 309 307 308 308 308 308 307 306 306 306 306 306 305 304 303 303 302 301 301 299 298 297 297 296 296 296 297 297 297 297 297 298
310 311 313 313 315 316 318 317 315 313 310 308 307 307 307 307 308 307 306 306 307 306 305 304 304 303 302 301 301 299 298 298 297 296 295 296 296 297 297 297 297 297 297
309 311 313 313 312 312 312 314 316 315 316 310 308 307 307 307 307 307 306 305 307 306 305 304 304 303 301 300 299 299 298 298 296 296 295 296 297 297 297 296 297 297 297
307 310 314 314 313 312 311 309 309 314 314 313 308 307 307 307 307 306 306 305 306 306 305 304 304 303 302 302 301 299 299 298 297 296 295 295 296 297 296 297 297 297 297
306 307 311 313 312 312 310 308 309 311 313 313 311 308 308 307 307 306 306 306 305 305 304 304 304 304 303 302 301 300 299 298 297 296 295 294 296 297 297 297 297 297 297

GFSGL_850_thetae_114.txt.gz
Theta_e
340 342 341 343 343 346 345 343 345 346 345 345 345 343 344 345 345 345 343 343 343 345 344 344 344 342 343 344 344 344 343 343 343 342 342 343 344 343 343 343 343 345 343
342 344 342 341 342 344 340 345 344 345 344 344 344 344 345 344 344 344 343 345 345 345 346 345 343 345 343 341 341 343 344 345 344 343 340 339 340 343 346 344 344 345 342
344 346 345 343 343 341 340 341 342 344 345 340 342 343 342 342 342 343 344 345 345 344 343 342 340 343 344 345 346 345 345 344 344 344 344 343 342 342 342 342 341 341 338
345 346 346 343 341 342 342 339 340 339 341 343 343 342 343 344 345 345 344 345 344 343 344 344 344 343 344 345 345 344 344 344 345 344 344 343 341 342 341 341 339 339 338
345 345 344 343 341 343 342 342 341 340 342 343 342 341 340 341 341 341 345 344 343 344 344 345 345 345 343 342 343 341 340 342 342 344 344 342 340 339 340 340 341 341 338
341 345 346 343 341 342 343 343 342 342 343 343 344 344 343 342 344 342 341 343 341 342 343 345 343 342 341 343 340 339 341 340 340 341 342 342 340 340 340 341 340 340 339
345 345 342 343 343 343 343 342 343 343 344 344 343 339 340 343 343 342 339 340 340 342 342 342 342 342 342 342 340 339 338 340 341 340 341 340 340 340 340 339 339 340 341
342 343 343 344 343 343 344 342 343 343 342 342 342 341 342 342 342 341 339 334 332 336 338 338 338 338 339 339 340 338 338 340 341 341 340 340 339 338 337 337 339 340 339
343 342 342 337 338 341 343 342 342 342 342 342 342 341 341 340 339 337 336 336 335 335 339 340 339 339 338 339 340 339 338 338 337 337 336 335 334 334 335 335 335 336 335
340 342 345 344 341 342 343 343 343 342 341 341 341 340 340 338 338 337 337 336 337 339 340 340 340 339 339 338 336 336 335 333 332 329 328 328 329 330 330 331 331 331 331
338 339 339 343 342 343 343 342 340 340 340 340 340 339 340 340 339 338 337 337 336 336 336 337 337 338 337 336 335 335 334 331 328 327 325 326 326 326 325 325 324 323 322
343 341 336 336 340 343 342 341 339 339 339 339 338 337 338 338 335 332 331 330 332 333 333 334 334 334 333 330 326 322 319 317 317 318 318 318 317 316 315 315 314 313 311
339 340 338 335 340 341 341 340 339 339 338 338 338 337 336 335 333 330 327 324 321 323 325 325 324 324 321 317 315 315 316 318 319 318 317 315 313 311 309 308 307 307 307
337 336 336 335 336 336 337 337 336 337 338 338 336 334 333 330 327 324 320 316 313 309 308 309 311 311 311 311 314 317 318 319 317 316 314 312 309 306 305 305 304 304 304
330 328 325 323 323 323 325 326 328 331 332 332 331 328 322 320 322 321 318 317 315 312 307 307 307 310 313 314 316 317 316 316 315 313 310 307 305 304 304 303 303 303 302
311 311 311 311 310 310 310 311 312 313 314 315 315 315 316 316 316 316 317 317 316 315 310 306 310 313 315 316 315 315 313 311 309 306 305 304 303 303 302 301 301 301 301
314 314 314 313 313 313 312 311 312 312 312 311 310 310 310 309 308 307 306 306 307 310 309 305 311 313 313 312 310 310 309 307 306 304 303 302 301 301 300 300 300 300 300
315 317 316 313 312 313 313 312 312 312 313 312 311 310 310 310 309 308 307 305 304 304 304 304 310 312 311 311 309 308 306 304 303 303 301 300 300 299 299 299 299 299 299
322 322 321 320 318 314 311 311 311 311 310 312 311 310 310 309 309 307 305 303 302 302 304 308 312 311 310 309 307 306 304 303 302 301 299 299 298 298 298 298 298 298 298
323 322 322 321 322 321 320 317 310 310 310 310 310 310 309 309 309 307 305 302 304 305 309 312 311 309 308 307 306 304 302 301 300 299 298 298 297 297 297 298 298 298 298
319 318 319 319 320 321 320 320 318 312 311 310 309 309 308 309 309 308 306 304 305 309 310 310 308 308 307 305 304 302 301 300 299 298 297 297 296 297 297 297 297 298 298
313 312 312 313 314 315 316 318 318 318 317 311 309 309 308 308 309 308 307 306 305 308 308 307 306 304 303 302 302 301 300 299 298 297 296 296 296 296 297 297 297 297 297
304 304 306 307 310 312 313 314 315 316 318 317 314 309 308 307 307 308 307 307 306 306 306 306 304 303 303 302 301 300 299 298 297 296 296 295 296 296 297 297 297 297 297
304 304 303 307 309 312 312 312 311 311 310 310 314 314 314 307 307 307 308 307 306 306 306 305 304 303 302 301 300 299 298 298 297 296 295 295 296 296 297 297 297 297 297
305 306 306 305 307 311 313 312 311 310 309 308 309 311 314 312 307 307 307 308 306 306 307 305 304 304 302 302 301 300 299 298 298 296 295 294 295 297 297 296 297 297 297
305 305 306 306 307 310 312 312 311 309 308 308 309 310 313 311 308 307 307 307 306 305 306 305 304 304 304 302 301 300 299 299 298 296 296 294 294 295 297 297 297 297 297

GFSGL_850_thetae_117.txt.gz
Theta_e
342 341 342 343 340 343 345 344 345 344 345 345 345 345 345 345 345 344 344 343 344 343 343 342 343 343 341 342 344 344 344 343 347 345 344 342 339 340 343 343 344 345 346
340 340 340 342 341 344 343 345 342 344 345 344 345 344 343 343 343 345 344 344 341 342 342 342 345 343 344 343 343 342 342 343 346 349 347 347 343 342 342 343 344 346 341
341 340 341 343 342 342 343 344 341 343 343 344 342 342 343 344 345 344 342 342 342 343 343 343 342 342 342 343 342 344 343 346 344 344 347 344 343 340 339 339 340 341 342
342 342 342 345 342 342 344 342 344 341 341 341 341 341 343 343 341 342 343 344 343 344 344 343 343 343 343 342 343 343 344 342 343 343 345 348 342 340 339 339 342 340 340
343 343 343 345 345 345 343 344 341 341 340 338 340 342 342 342 341 341 342 343 344 344 344 344 344 344 344 344 343 343 342 340 340 340 340 342 341 344 339 343 341 340 342
345 345 344 345 345 345 341 343 343 342 339 341 343 342 343 341 342 342 343 341 343 343 342 343 343 344 344 341 341 342 339 340 341 340 340 341 341 340 340 340 340 343 345
344 344 344 344 345 344 342 341 343 342 341 342 342 343 343 343 340 343 343 341 340 341 341 343 344 342 342 341 341 340 340 339 340 341 341 340 340 339 339 338 338 341 344
343 343 342 345 345 343 342 343 343 343 342 342 342 343 341 339 339 342 342 341 336 334 340 343 341 339 339 337 336 335 338 340 340 340 340 339 339 337 335 335 336 337 338
342 342 343 344 343 344 343 343 343 343 342 342 341 341 341 341 341 341 339 338 338 338 337 337 336 339 338 338 336 338 339 337 336 336 335 334 333 332 332 333 333 336 339
343 343 342 343 343 339 339 340 341 342 342 342 342 341 341 339 338 336 336 336 336 339 339 340 340 340 340 339 338 336 334 334 334 334 332 331 329 328 328 329 329 332 334
341 340 341 339 341 340 339 341 342 342 342 341 339 339 339 339 339 339 338 337 336 336 337 338 339 339 338 338 337 336 334 334 331 328 327 326 326 325 323 320 318 319 319
340 339 339 338 339 337 338 340 341 340 340 339 339 339 338 337 338 337 334 334 333 334 334 334 334 334 334 334 333 330 326 320 318 320 321 319 317 316 315 314 312 311 310
338 338 337 338 335 336 330 338 336 338 339 339 337 338 337 336 334 332 330 329 328 324 324 326 327 325 324 322 320 317 316 317 318 318 318 317 315 312 310 308 306 305 305
336 336 336 337 336 331 333 335 337 338 338 338 338 337 335 333 330 328 325 321 317 315 311 310 310 311 312 312 314 315 317 318 318 317 316 314 312 309 306 305 304 304 303
329 330 332 333 333 333 330 331 333 334 334 334 334 332 329 325 324 324 322 318 317 315 313 308 307 308 310 312 313 316 317 317 316 315 313 311 307 305 304 303 303 302 302
310 310 310 310 310 311 312 313 315 316 316 316 316 315 316 316 316 317 317 317 317 316 315 313 308 309 313 315 316 316 315 314 311 308 307 305 304 303 302 302 301 301 301
315 314 314 314 313 313 312 312 312 312 311 311 311 310 310 310 309 309 309 308 308 307 307 310 308 310 313 314 314 312 310 309 308 306 304 303 302 301 300 300 300 300 300
320 320 317 314 312 312 312 312 311 311 311 312 312 311 310 310 309 309 308 307 306 305 305 306 311 309 313 312 311 310 308 306 305 304 303 302 300 300 299 299 299 299 299
323 322 322 321 321 321 320 318 314 310 311 311 310 311 311 310 309 309 308 306 304 303 303 304 305 309 312 311 310 308 306 304 303 302 301 300 299 299 298 298 298 298 299
322 321 321 321 320 320 320 320 320 318 312 311 310 310 310 310 309 309 308 307 304 303 304 305 308 311 311 309 308 307 305 303 302 301 299 298 298 297 298 298 298 300 300
317 316 316 316 315 315 318 318 318 319 319 318 318 312 309 309 308 309 309 307 305 304 306 309 312 311 309 308 307 304 303 302 300 299 298 297 297 297 297 297 299 299 299
311 309 308 308 308 311 314 315 316 316 317 316 316 315 312 309 308 308 308 308 306 305 308 310 310 308 307 304 303 302 302 301 300 298 297 296 296 297 298 299 299 300 299
302 302 303 305 306 307 311 314 314 314 314 314 314 313 314 315 310 307 307 308 307 306 306 308 307 305 303 303 302 302 301 300 298 297 297 296 296 297 298 299 299 299 299
304 305 305 305 305 307 312 313 314 313 312 312 312 311 311 310 311 314 311 307 308 307 306 306 306 304 303 303 302 301 299 298 298 297 296 296 298 296 299 299 299 298 299
304 304 305 305 306 306 308 311 312 313 313 312 311 311 311 311 310 310 312 310 307 307 307 306 306 304 304 302 300 300 299 298 298 297 296 295 296 296 298 298 298 298 298
303 303 303 304 305 306 306 307 308 309 309 309 309 309 310 310 310 310 312 308 307 307 307 306 306 305 304 302 301 300 300 299 299 297 296 295 294 296 298 298 298 298 299

GFSGL_850_thetae_120.txt.gz
Theta_e
349 349 349 349 349 349 349 350 346 343 344 345 345 346 348 347 349 348 349 349 351 350 349 350 348 350 348 346 345 346 346 346 346 344 344 347 347 348 348 347 346 347 349
349 350 350 349 348 350 344 350 347 344 344 345 346 346 345 348 350 350 346 350 351 351 349 349 349 348 349 346 347 349 348 349 347 347 347 347 350 350 347 342 349 346 347
350 350 350 350 346 348 349 349 347 347 345 349 345 343 343 345 345 344 344 348 350 350 349 350 350 350 349 349 348 348 348 349 348 349 348 349 350 348 348 349 349 346 347
351 350 350 349 349 347 349 349 348 342 342 347 348 348 347 344 347 349 347 346 347 350 350 349 349 349 349 349 348 347 342 345 345 347 348 346 349 348 347 348 347 348 346
349 351 350 349 348 347 349 348 347 345 346 341 340 341 344 348 350 345 345 346 347 348 349 347 345 347 345 344 344 343 342 346 347 346 347 342 341 343 344 344 346 346 347
343 343 348 344 342 342 346 346 345 345 343 344 344 344 341 342 341 341 342 342 343 343 345 347 344 343 344 344 344 341 340 341 341 339 344 346 340 344 348 345 344 345 348
344 344 346 347 346 343 344 346 344 342 343 342 342 342 343 343 342 341 342 342 343 342 341 344 344 344 343 343 342 342 340 340 339 339 340 346 345 344 340 339 347 347 348
344 345 344 345 345 345 345 345 343 342 343 343 341 342 342 343 342 343 339 340 343 342 338 340 344 343 341 339 339 337 336 336 339 340 340 340 339 338 336 338 339 340 339
343 343 343 342 342 342 343 345 344 342 343 342 342 339 341 342 341 340 339 341 341 337 336 336 337 338 336 338 337 338 338 338 338 336 335 334 333 332 332 333 338 337 340
339 339 342 343 343 344 344 343 342 343 343 342 341 341 341 341 341 340 339 337 338 337 337 338 338 337 338 341 340 338 335 335 335 335 333 331 329 328 328 328 329 332 335
340 341 342 341 341 342 342 339 338 340 341 342 342 340 339 339 338 337 337 337 336 336 336 336 335 339 339 338 337 335 335 334 334 329 327 325 324 324 321 317 315 316 322
340 341 340 340 338 338 337 339 339 340 333 335 339 338 338 338 339 336 336 335 333 332 334 334 335 335 335 335 334 334 332 328 327 326 324 322 320 319 316 314 312 310 310
342 341 339 338 338 336 336 333 332 335 333 331 333 337 337 336 336 335 333 331 329 326 325 326 326 328 328 327 326 323 320 321 323 321 320 319 317 315 313 311 308 306 305
338 337 335 335 334 332 331 336 335 332 333 337 336 337 336 335 334 333 329 326 323 319 317 316 312 311 313 315 314 315 316 317 318 319 318 316 314 312 311 308 306 308 309
333 333 333 334 334 334 332 334 335 333 332 332 331 331 331 329 328 327 326 322 318 316 316 314 312 311 316 311 313 314 316 317 318 317 315 314 312 309 307 305 305 308 309
314 313 311 311 312 314 319 320 319 319 320 317 317 317 316 316 316 316 317 317 316 316 315 318 318 318 317 317 317 315 316 316 315 313 310 308 308 307 306 306 305 306 307
315 314 314 316 317 316 317 317 315 312 312 312 311 311 310 310 310 310 309 309 309 308 308 310 315 316 316 317 316 316 315 313 310 309 310 308 308 307 303 307 306 306 306
319 319 319 316 314 313 312 314 316 316 316 316 311 311 311 310 309 309 309 308 308 308 307 309 312 316 316 315 315 314 312 310 310 309 308 307 307 306 306 306 306 306 306
324 323 323 321 321 320 320 320 319 319 316 313 313 312 311 311 310 310 309 309 308 309 309 310 311 313 315 315 314 313 311 310 308 307 306 306 305 305 305 305 304 302 302
323 320 320 323 322 321 320 320 319 318 318 317 317 315 315 311 310 310 310 309 310 310 310 311 311 313 313 314 313 311 309 308 306 305 305 305 304 304 304 304 304 304 305
318 318 315 316 317 318 318 317 318 318 317 317 317 318 316 314 313 313 312 312 311 311 311 312 312 313 313 313 312 311 309 308 306 305 304 304 304 303 304 304 304 303 304
310 310 311 312 313 313 314 315 315 316 315 315 314 314 315 314 314 313 313 313 312 312 312 312 313 313 313 312 311 310 308 307 305 304 304 303 303 303 303 303 303 303 303
310 310 310 311 311 311 312 313 313 314 314 313 313 313 312 312 312 313 313 312 312 312 312 312 312 312 311 311 309 307 306 306 305 304 303 303 302 302 302 303 303 303 303
310 311 311 312 312 312 313 313 313 313 313 313 313 312 312 312 312 311 312 312 312 311 311 311 311 310 309 309 307 306 306 305 304 303 302 302 302 301 302 302 302 302 302
310 311 311 311 312 312 312 312 312 312 312 312 311 311 311 311 311 311 311 311 311 311 310 310 310 309 309 308 306 306 304 302 302 301 301 301 301 301 301 301 302 302 301
310 310 311 311 311 311 311 310 309 309 309 310 310 310 311 311 311 311 311 310 311 311 310 310 309 309 308 307 306 305 303 300 298 298 300 300 300 300 301 301 301 301 301